[[{"header":{"parameterUnit":"m.s-1","parameterCategory":1,"la1":30.6,"la2":28.766,"lo1":-90.7593,"lo2":-88.6598,"dy":0.0162,"dx":0.0183,"nx":116,"ny":114,"refTime":"2023-06-13T06:00:00:Z","depth":0,"parameterNumber":2,"parameterNumberName":"U-component_of_WINDS"},"data":[0.0,0.0,0.0,0.0,0.0,0.0,0.0,0.0,0.0,0.0,0.0,0.0,0.0,0.0,0.0,0.0,0.0,0.0,0.0,0.0,0.0,0.0,0.0,0.0,0.0,0.0,0.0,0.0,0.0,0.0,0.0,0.0,0.0,0.0,0.0,0.0,0.0,0.0,0.0,0.0,0.0,0.0,0.0,0.0,0.0,0.0,0.0,0.0,0.0,0.0,0.0,0.0,0.0,0.0,0.0,0.0,0.0,0.0,0.0,0.0,0.0,0.0,0.0,0.0,0.0,0.0,0.0,0.0,0.0,0.0,0.0,0.0,0.0,0.0,0.0,0.0,0.0,0.0,0.0,0.0,0.0,0.0,0.0,0.0,0.0,0.0,0.0,0.0,0.0,0.0,0.0,0.0,0.0,0.0,0.0,0.0,0.0,0.0,0.0,0.0,0.0,0.0,0.0,0.0,0.0,0.0,0.0,0.0,0.0,0.0,0.0,0.0,0.0,0.0,0.0,0.0,0.0,0.0,0.0,0.0,0.0,0.0,0.0,0.0,0.0,0.0,0.0,0.0,0.0,0.0,0.0,0.0,0.0,0.0,0.0,0.0,0.0,0.0,0.0,0.0,0.0,0.0,0.0,0.0,0.0,0.0,0.0,0.0,0.0,0.0,0.0,0.0,0.0,0.0,0.0,0.0,0.0,0.0,0.0,0.0,0.0,0.0,0.0,0.0,0.0,0.0,0.0,0.0,0.0,0.0,0.0,0.0,0.0,0.0,0.0,0.0,0.0,0.0,0.0,0.0,0.0,0.0,0.0,0.0,0.0,0.0,0.0,0.0,0.0,0.0,0.0,0.0,0.0,0.0,0.0,0.0,0.0,0.0,0.0,0.0,0.0,0.0,0.0,0.0,0.0,0.0,0.0,0.0,0.0,0.0,0.0,0.0,0.0,0.0,0.0,0.0,0.0,0.0,0.0,0.0,0.0,0.0,0.0,0.0,0.0,0.0,0.0,0.0,0.0,0.0,0.0,0.0,0.0,0.0,0.0,0.0,0.0,0.0,0.0,0.0,0.0,0.0,0.0,0.0,0.0,0.0,0.0,0.0,0.0,0.0,0.0,0.0,0.0,0.0,0.0,0.0,0.0,0.0,0.0,0.0,0.0,0.0,0.0,0.0,0.0,0.0,0.0,0.0,0.0,0.0,0.0,0.0,0.0,0.0,0.0,0.0,0.0,0.0,0.0,0.0,0.0,0.0,0.0,0.0,0.0,0.0,0.0,0.0,0.0,0.0,0.0,0.0,0.0,0.0,0.0,0.0,0.0,0.0,0.0,0.0,0.0,0.0,0.0,0.0,0.0,0.0,0.0,0.0,0.0,0.0,0.0,0.0,0.0,0.0,0.0,0.0,0.0,0.0,0.0,0.0,0.0,0.0,0.0,0.0,0.0,0.0,0.0,0.0,0.0,0.0,0.0,0.0,0.0,0.0,0.0,0.0,0.0,0.0,0.0,0.0,0.0,0.0,0.0,0.0,0.0,0.0,0.0,0.0,0.0,0.0,0.0,0.0,0.0,0.0,0.0,0.0,0.0,0.0,0.0,0.0,0.0,0.0,0.0,0.0,0.0,0.0,0.0,0.0,0.0,0.0,0.0,0.0,0.0,0.0,0.0,0.0,0.0,0.0,0.0,0.0,0.0,0.0,0.0,0.0,0.0,0.0,0.0,0.0,0.0,0.0,0.0,0.0,0.0,0.0,0.0,0.0,0.0,0.0,0.0,0.0,0.0,0.0,0.0,0.0,0.0,0.0,0.0,0.0,0.0,0.0,0.0,0.0,0.0,0.0,0.0,0.0,0.0,0.0,0.0,0.0,0.0,0.0,0.0,0.0,0.0,0.0,0.0,0.0,0.0,0.0,0.0,0.0,0.0,0.0,0.0,0.0,0.0,0.0,0.0,0.0,0.0,0.0,0.0,0.0,0.0,0.0,0.0,0.0,0.0,0.0,0.0,0.0,0.0,0.0,0.0,0.0,0.0,0.0,0.0,0.0,0.0,0.0,0.0,0.0,0.0,0.0,0.0,0.0,0.0,0.0,0.0,0.0,0.0,0.0,0.0,0.0,0.0,0.0,0.0,0.0,0.0,0.0,0.0,0.0,0.0,0.0,0.0,0.0,0.0,0.0,0.0,0.0,0.0,0.0,0.0,0.0,0.0,0.0,0.0,0.0,0.0,0.0,0.0,0.0,0.0,0.0,0.0,0.0,0.0,0.0,0.0,0.0,0.0,0.0,0.0,0.0,0.0,0.0,0.0,0.0,0.0,0.0,0.0,0.0,0.0,0.0,0.0,0.0,0.0,0.0,0.0,0.0,0.0,0.0,0.0,0.0,0.0,0.0,0.0,0.0,0.0,0.0,0.0,0.0,0.0,0.0,0.0,0.0,0.0,0.0,0.0,0.0,0.0,0.0,0.0,0.0,0.0,0.0,0.0,0.0,0.0,0.0,0.0,0.0,0.0,0.0,0.0,0.0,0.0,0.0,0.0,0.0,0.0,0.0,0.0,0.0,0.0,0.0,0.0,0.0,0.0,0.0,0.0,0.0,0.0,0.0,0.0,0.0,0.0,0.0,0.0,0.0,0.0,0.0,0.0,0.0,0.0,0.0,0.0,0.0,0.0,0.0,0.0,0.0,0.0,0.0,0.0,0.0,0.0,0.0,0.0,0.0,0.0,0.0,0.0,0.0,0.0,0.0,0.0,0.0,0.0,0.0,0.0,0.0,0.0,0.0,0.0,0.0,0.0,0.0,0.0,0.0,0.0,0.0,0.0,0.0,0.0,0.0,0.0,0.0,0.0,0.0,0.0,0.0,0.0,0.0,0.0,0.0,0.0,0.0,0.0,0.0,0.0,0.0,0.0,0.0,0.0,0.0,0.0,0.0,0.0,0.0,0.0,0.0,0.0,0.0,0.0,0.0,0.0,0.0,0.0,0.0,0.0,0.0,0.0,0.0,0.0,0.0,0.0,0.0,0.0,0.0,0.0,0.0,0.0,0.0,0.0,0.0,0.0,0.0,0.0,0.0,0.0,0.0,0.0,0.0,0.0,0.0,0.0,0.0,0.0,0.0,0.0,0.0,0.0,0.0,0.0,0.0,0.0,0.0,0.0,0.0,0.0,0.0,0.0,0.0,0.0,0.0,0.0,0.0,0.0,0.0,0.0,0.0,0.0,0.0,0.0,0.0,0.0,0.0,0.0,0.0,0.0,0.0,0.0,0.0,0.0,0.0,0.0,0.0,0.0,0.0,0.0,0.0,0.0,0.0,0.0,0.0,0.0,0.0,0.0,0.0,0.0,0.0,0.0,0.0,0.0,0.0,0.0,0.0,0.0,0.0,0.0,0.0,0.0,0.0,0.0,0.0,0.0,0.0,0.0,0.0,0.0,0.0,0.0,0.0,0.0,0.0,0.0,0.0,0.0,0.0,0.0,0.0,0.0,0.0,0.0,0.0,0.0,0.0,0.0,0.0,0.0,0.0,0.0,0.0,0.0,0.0,0.0,0.0,0.0,0.0,0.0,0.0,0.0,0.0,0.0,0.0,0.0,0.0,0.0,0.0,0.0,0.0,0.0,0.0,0.0,0.0,0.0,0.0,0.0,0.0,0.0,0.0,0.0,0.0,0.0,0.0,0.0,0.0,0.0,0.0,0.0,0.0,0.0,0.0,0.0,0.0,0.0,0.0,0.0,0.0,0.0,0.0,0.0,0.0,0.0,0.0,0.0,0.0,0.0,0.0,0.0,0.0,0.0,0.0,0.0,0.0,0.0,0.0,0.0,0.0,0.0,0.0,0.0,0.0,0.0,0.0,0.0,0.0,0.0,0.0,0.0,0.0,0.0,0.0,0.0,0.0,0.0,0.0,0.0,0.0,0.0,0.0,0.0,0.0,0.0,0.0,0.0,0.0,0.0,0.0,0.0,0.0,0.0,0.0,0.0,0.0,0.0,0.0,0.0,0.0,0.0,0.0,0.0,0.0,0.0,0.0,0.0,0.0,0.0,0.0,0.0,0.0,0.0,0.0,0.0,0.0,0.0,0.0,0.0,0.0,0.0,0.0,0.0,0.0,0.0,0.0,0.0,0.0,0.0,0.0,0.0,0.0,0.0,0.0,0.0,0.0,0.0,0.0,0.0,0.0,0.0,0.0,0.0,0.0,0.0,0.0,0.0,0.0,0.0,0.0,0.0,0.0,0.0,0.0,0.0,0.0,0.0,0.0,0.0,0.0,0.0,0.0,0.0,0.0,0.0,0.0,0.0,0.0,0.0,0.0,0.0,0.0,0.0,0.0,0.0,0.0,0.0,0.0,0.0,0.0,0.0,0.0,0.0,0.0,0.0,0.0,0.0,0.0,0.0,0.0,0.0,0.0,0.0,0.0,0.0,0.0,0.0,0.0,0.0,0.0,0.0,0.0,0.0,0.0,0.0,0.0,0.0,0.0,0.0,0.0,0.0,0.0,0.0,0.0,0.0,0.0,0.0,0.0,0.0,0.0,0.0,0.0,0.0,0.0,0.0,0.0,0.0,0.0,0.0,0.0,0.0,0.0,0.0,0.0,0.0,0.0,0.0,0.0,0.0,0.0,0.0,0.0,0.0,0.0,0.0,0.0,0.0,0.0,0.0,0.0,0.0,0.0,0.0,0.0,0.0,0.0,0.0,0.0,0.0,0.0,0.0,0.0,0.0,0.0,0.0,0.0,0.0,0.0,0.0,0.0,0.0,0.0,0.0,0.0,0.0,0.0,0.0,0.0,0.0,0.0,0.0,0.0,0.0,0.0,0.0,0.0,0.0,0.0,0.0,0.0,0.0,0.0,0.0,0.0,0.0,0.0,0.0,0.0,0.0,0.0,0.0,0.0,0.0,0.0,0.0,0.0,0.0,0.0,0.0,0.0,0.0,0.0,0.0,0.0,0.0,0.0,0.0,0.0,0.0,0.0,0.0,0.0,0.0,0.0,0.0,0.0,0.0,0.0,0.0,0.0,0.0,0.0,0.0,0.0,0.0,0.0,0.0,0.0,0.0,0.0,0.0,0.0,0.0,0.0,0.0,0.0,0.0,0.0,0.0,0.0,0.0,0.0,0.0,0.0,0.0,0.0,0.0,0.0,0.0,0.0,0.0,0.0,0.0,0.0,0.0,0.0,0.0,0.0,0.0,0.0,0.0,0.0,0.0,0.0,0.0,0.0,0.0,0.0,0.0,0.0,0.0,0.0,0.0,0.0,0.0,0.0,0.0,0.0,0.0,0.0,0.0,0.0,0.0,0.0,0.0,0.0,0.0,0.0,0.0,0.0,0.0,0.0,0.0,0.0,0.0,0.0,0.0,0.0,0.0,0.0,0.0,0.0,0.0,0.0,0.0,0.0,0.0,0.0,0.0,0.0,0.0,0.0,0.0,0.0,0.0,0.0,0.0,0.0,0.0,0.0,0.0,0.0,0.0,0.0,0.0,0.0,0.0,0.0,0.0,0.0,0.0,0.0,0.0,0.0,0.0,0.0,0.0,0.0,0.0,0.0,0.0,0.0,0.0,0.0,0.0,0.0,0.0,0.0,0.0,0.0,0.0,0.0,0.0,0.0,0.0,0.0,0.0,0.0,0.0,0.0,0.0,0.0,0.0,0.0,0.0,0.0,0.0,0.0,0.0,0.0,0.0,0.0,0.0,0.0,0.0,0.0,0.0,0.0,0.0,0.0,0.0,0.0,0.0,0.0,0.0,0.0,0.0,0.0,0.0,0.0,0.0,0.0,0.0,0.0,0.0,0.0,0.0,0.0,0.0,0.0,0.0,0.0,0.0,0.0,0.0,0.0,0.0,0.0,0.0,0.0,0.0,0.0,0.0,0.0,0.0,0.0,0.0,0.0,0.0,0.0,0.0,0.0,0.0,0.0,0.0,0.0,0.0,0.0,0.0,0.0,0.0,0.0,0.0,0.0,0.0,0.0,0.0,0.0,0.0,0.0,0.0,0.0,0.0,0.0,0.0,0.0,0.0,0.0,0.0,0.0,0.0,0.0,0.0,0.0,0.0,0.0,0.0,0.0,0.0,0.0,0.0,0.0,0.0,0.0,0.0,0.0,0.0,0.0,-1.2877,-1.2685,0.0,0.0,0.0,0.0,0.0,0.0,0.0,0.0,0.0,0.0,0.0,0.0,0.0,0.0,0.0,0.0,0.0,0.0,0.0,0.0,0.0,0.0,0.0,0.0,0.0,0.0,0.0,0.0,0.0,0.0,0.0,0.0,0.0,0.0,0.0,0.0,0.0,0.0,0.0,0.0,0.0,0.0,0.0,0.0,0.0,0.0,0.0,0.0,0.0,0.0,0.0,0.0,0.0,0.0,0.0,0.0,0.0,0.0,0.0,0.0,0.0,0.0,0.0,0.0,0.0,0.0,0.0,0.0,0.0,0.0,0.0,0.0,0.0,0.0,0.0,0.0,0.0,0.0,0.0,0.0,0.0,0.0,0.0,0.0,0.0,0.0,0.0,0.0,0.0,0.0,0.0,0.0,0.0,0.0,0.0,0.0,0.0,0.0,0.0,0.0,0.0,0.0,0.0,0.0,0.0,0.0,0.0,0.0,0.0,0.0,0.0,0.0,0.0,0.0,-1.3514,-1.3114,0.0,0.0,0.0,0.0,0.0,0.0,0.0,0.0,0.0,0.0,0.0,0.0,0.0,0.0,0.0,0.0,0.0,0.0,0.0,0.0,0.0,0.0,0.0,0.0,0.0,0.0,0.0,0.0,0.0,0.0,0.0,0.0,0.0,0.0,0.0,0.0,0.0,0.0,0.0,0.0,0.0,0.0,0.0,0.0,0.0,0.0,0.0,0.0,0.0,0.0,0.0,0.0,0.0,0.0,0.0,0.0,0.0,0.0,0.0,0.0,0.0,0.0,0.0,0.0,0.0,0.0,0.0,0.0,0.0,0.0,0.0,0.0,0.0,0.0,0.0,0.0,0.0,0.0,0.0,0.0,0.0,0.0,0.0,0.0,0.0,0.0,0.0,0.0,0.0,0.0,0.0,0.0,0.0,0.0,0.0,0.0,0.0,0.0,0.0,0.0,0.0,0.0,0.0,0.0,0.0,0.0,0.0,0.0,-1.464,-1.4911,-1.5431,-1.5431,-1.5431,-1.5372,-1.4219,-1.3695,-1.3667,-1.3667,0.0,0.0,0.0,0.0,0.0,0.0,0.0,0.0,0.0,0.0,0.0,0.0,0.0,0.0,0.0,0.0,0.0,0.0,0.0,0.0,0.0,0.0,0.0,0.0,0.0,0.0,0.0,0.0,0.0,0.0,0.0,0.0,0.0,0.0,0.0,0.0,0.0,0.0,0.0,0.0,0.0,0.0,0.0,0.0,0.0,0.0,0.0,0.0,0.0,0.0,0.0,0.0,0.0,0.0,0.0,0.0,0.0,0.0,0.0,0.0,0.0,0.0,0.0,0.0,0.0,0.0,0.0,0.0,0.0,0.0,0.0,0.0,0.0,0.0,0.0,0.0,0.0,0.0,0.0,0.0,0.0,0.0,0.0,0.0,0.0,0.0,-1.6655,-1.6585,0.0,0.0,0.0,0.0,0.0,0.0,0.0,0.0,0.0,0.0,0.0,0.0,0.0,-1.4611,-1.5167,-1.5174,-1.5218,-1.5299,-1.5299,-1.5343,-1.5431,-1.5431,-1.5431,-1.5416,-1.4986,0.0,-1.434,-1.4185,0.0,0.0,0.0,0.0,0.0,0.0,0.0,0.0,0.0,0.0,0.0,0.0,0.0,0.0,0.0,0.0,0.0,0.0,0.0,0.0,0.0,0.0,0.0,0.0,0.0,0.0,0.0,0.0,0.0,0.0,0.0,0.0,0.0,0.0,0.0,0.0,0.0,0.0,0.0,0.0,0.0,0.0,0.0,0.0,0.0,0.0,0.0,0.0,0.0,0.0,0.0,0.0,0.0,0.0,0.0,0.0,0.0,0.0,0.0,0.0,0.0,0.0,0.0,0.0,0.0,0.0,0.0,0.0,0.0,0.0,0.0,0.0,0.0,0.0,0.0,0.0,0.0,0.0,0.0,0.0,0.0,0.0,0.0,0.0,0.0,-1.6924,-1.6279,-1.5982,-1.5711,-1.5322,0.0,0.0,0.0,0.0,0.0,0.0,0.0,0.0,0.0,-1.4992,-1.5174,-1.5313,-1.5431,-1.5782,-1.6052,-1.6228,-1.6411,-1.6689,-1.704,-1.704,-1.704,-1.7047,-1.6764,-1.6321,-1.5749,-1.4686,-1.3598,-1.2628,0.0,0.0,0.0,0.0,-1.0748,-1.077,0.0,0.0,0.0,0.0,0.0,0.0,0.0,0.0,0.0,0.0,0.0,0.0,0.0,0.0,0.0,0.0,0.0,0.0,0.0,0.0,0.0,0.0,0.0,0.0,0.0,0.0,0.0,0.0,0.0,0.0,0.0,0.0,0.0,0.0,0.0,0.0,0.0,0.0,0.0,0.0,0.0,0.0,0.0,0.0,0.0,0.0,0.0,0.0,0.0,0.0,0.0,0.0,0.0,0.0,0.0,0.0,0.0,0.0,0.0,0.0,0.0,0.0,0.0,0.0,0.0,0.0,0.0,0.0,0.0,0.0,0.0,0.0,0.0,0.0,0.0,0.0,0.0,-1.6517,-1.5781,-1.5237,-1.5006,-1.4805,0.0,0.0,0.0,0.0,0.0,0.0,-1.4823,-1.4984,-1.5328,-1.5899,-1.606,-1.614,-1.6162,-1.6711,-1.7069,-1.723,-1.7552,-1.7911,-1.8299,-1.8207,-1.8207,-1.8207,-1.7818,-1.7456,-1.6816,-1.5241,-1.4058,-1.322,-1.2864,-1.2264,-1.1642,-1.1993,-1.2063,-1.2093,0.0,0.0,0.0,0.0,0.0,0.0,0.0,0.0,0.0,0.0,0.0,0.0,0.0,0.0,0.0,0.0,0.0,0.0,0.0,0.0,0.0,0.0,0.0,0.0,0.0,0.0,0.0,0.0,0.0,0.0,0.0,0.0,0.0,0.0,0.0,0.0,0.0,0.0,0.0,0.0,0.0,0.0,0.0,0.0,0.0,0.0,0.0,0.0,0.0,0.0,0.0,0.0,0.0,0.0,0.0,0.0,0.0,0.0,0.0,0.0,0.0,0.0,0.0,0.0,0.0,0.0,0.0,0.0,0.0,0.0,0.0,0.0,0.0,0.0,0.0,0.0,0.0,0.0,0.0,-1.3711,-1.4131,0.0,0.0,0.0,0.0,-1.4421,-1.4999,-1.5496,-1.5826,-1.5562,-1.5965,-1.7194,-1.6952,-1.7238,-1.8152,-1.8496,-1.8525,-1.8233,-1.8562,-1.8569,-1.8299,-1.8016,-1.7917,-1.7917,-1.732,-1.7107,-1.7004,-1.6074,-1.497,-1.3803,-1.3351,-1.2826,-1.2316,-1.2923,-1.3099,-1.319,0.0,0.0,0.0,0.0,0.0,0.0,0.0,0.0,0.0,0.0,0.0,0.0,0.0,0.0,0.0,0.0,0.0,0.0,0.0,0.0,0.0,0.0,0.0,0.0,0.0,0.0,0.0,0.0,0.0,0.0,0.0,0.0,0.0,0.0,0.0,0.0,0.0,0.0,0.0,0.0,0.0,0.0,0.0,0.0,0.0,0.0,0.0,0.0,0.0,0.0,0.0,0.0,0.0,0.0,0.0,0.0,0.0,0.0,0.0,0.0,0.0,0.0,0.0,0.0,0.0,0.0,0.0,0.0,0.0,0.0,0.0,0.0,0.0,0.0,0.0,0.0,0.0,0.0,0.0,-1.4743,-1.5131,0.0,-1.535,-1.5379,-1.5401,-1.5401,-1.5987,-1.6484,-1.6806,-1.7113,-1.7677,-1.8555,-1.8672,-1.8789,-1.8928,-1.9252,-1.9252,-1.8935,-1.9034,-1.9014,-1.8938,-1.8816,-1.8794,-1.8787,-1.8282,-1.7989,-1.7934,-1.7022,-1.6172,-1.5417,-1.5035,-1.4734,-1.4577,-1.5041,-1.5199,-1.5225,0.0,0.0,0.0,0.0,0.0,0.0,0.0,0.0,0.0,0.0,0.0,0.0,0.0,0.0,0.0,0.0,0.0,0.0,0.0,0.0,0.0,0.0,0.0,0.0,0.0,0.0,0.0,0.0,0.0,0.0,0.0,0.0,0.0,0.0,0.0,0.0,0.0,0.0,0.0,0.0,0.0,0.0,-2.5598,0.0,0.0,0.0,0.0,0.0,0.0,0.0,0.0,0.0,0.0,0.0,0.0,0.0,0.0,0.0,0.0,0.0,0.0,0.0,0.0,0.0,0.0,0.0,0.0,0.0,0.0,0.0,0.0,0.0,0.0,0.0,0.0,0.0,0.0,-1.5828,-1.5866,-1.5731,-1.6228,-1.655,-1.6535,-1.6645,-1.6718,-1.6718,-1.7311,-1.7816,-1.813,-1.846,-1.8928,-1.9579,-1.9703,-1.9711,-1.9601,-1.9917,-1.9917,-1.9502,-1.9597,-1.9566,-1.9276,-1.9255,-1.9071,-1.8974,-1.8666,-1.8462,-1.834,-1.7721,-1.7221,-1.682,-1.6319,-1.6126,-1.6146,-1.6346,-1.642,-1.6446,0.0,0.0,0.0,0.0,0.0,0.0,0.0,0.0,0.0,0.0,0.0,0.0,0.0,0.0,0.0,0.0,0.0,0.0,0.0,0.0,0.0,0.0,0.0,0.0,0.0,0.0,0.0,0.0,0.0,0.0,0.0,0.0,0.0,0.0,0.0,0.0,0.0,0.0,0.0,0.0,0.0,0.0,-2.708,0.0,0.0,0.0,0.0,0.0,0.0,0.0,0.0,0.0,0.0,0.0,0.0,0.0,0.0,0.0,0.0,0.0,0.0,0.0,0.0,0.0,0.0,0.0,0.0,0.0,0.0,0.0,0.0,0.0,0.0,0.0,0.0,0.0,-1.6238,-1.6837,-1.7041,-1.6566,-1.7274,-1.7611,-1.7018,-1.7801,-1.835,-1.835,-1.8935,-1.9433,-1.9755,-1.9477,-1.9594,-2.023,-1.9952,-1.9938,-2.0237,-2.0559,-2.0337,-1.9814,-2.0143,-1.9899,-1.9243,-1.9043,-1.8789,-1.8536,-1.8494,-1.8343,-1.807,-1.8063,-1.8063,-1.7976,-1.7088,-1.674,-1.6734,-1.6747,-1.674,-1.6734,0.0,0.0,0.0,0.0,0.0,0.0,0.0,0.0,0.0,0.0,0.0,0.0,0.0,0.0,0.0,0.0,0.0,0.0,0.0,0.0,0.0,0.0,0.0,0.0,0.0,0.0,0.0,0.0,0.0,0.0,0.0,0.0,0.0,0.0,0.0,0.0,0.0,0.0,0.0,0.0,0.0,0.0,-2.664,0.0,0.0,0.0,0.0,0.0,0.0,0.0,0.0,0.0,0.0,0.0,0.0,0.0,0.0,0.0,0.0,0.0,0.0,0.0,0.0,0.0,0.0,0.0,0.0,0.0,0.0,0.0,0.0,0.0,0.0,0.0,-1.6163,-1.6418,-1.6346,-1.6854,-1.7522,-1.805,-1.8357,-1.873,-1.9257,-1.9338,-1.936,-1.936,-1.9528,-1.9769,-2.0091,-2.0018,-2.0164,-2.0574,-2.0508,-2.0274,-1.9895,-1.9989,-1.9884,-1.9477,-1.9566,-1.9542,-1.9353,-1.9246,-1.9193,-1.9112,-1.8865,-1.8758,-1.8664,-1.8457,-1.837,-1.8323,-1.7862,-1.7542,-1.7368,-1.7595,-1.7535,-1.7315,0.0,0.0,0.0,0.0,0.0,0.0,0.0,0.0,0.0,0.0,0.0,0.0,0.0,0.0,0.0,0.0,0.0,0.0,0.0,0.0,0.0,0.0,0.0,0.0,0.0,0.0,0.0,0.0,0.0,0.0,0.0,0.0,0.0,0.0,0.0,0.0,0.0,0.0,0.0,0.0,0.0,0.0,-2.8122,-2.7419,-2.6892,-2.6465,-2.5912,-2.5473,-2.5031,-2.4446,0.0,0.0,0.0,0.0,0.0,0.0,0.0,0.0,0.0,0.0,0.0,0.0,0.0,0.0,0.0,0.0,0.0,0.0,0.0,0.0,0.0,0.0,0.0,0.0,-1.6817,-1.734,-1.7552,-1.7911,-1.8452,-1.9294,-1.952,-1.982,-2.0384,-2.0398,-2.0369,-2.0369,-2.0369,-2.045,-2.0633,-2.0647,-2.0728,-2.0918,-2.0794,-2.0579,-2.0172,-2.0124,-1.9907,-1.9521,-1.9537,-1.9503,-1.9334,-1.9401,-1.9299,-1.9178,-1.9132,-1.9038,-1.8911,-1.8744,-1.8671,-1.8644,0.0,0.0,0.0,0.0,-1.7929,-1.7736,0.0,0.0,0.0,0.0,0.0,0.0,0.0,0.0,0.0,0.0,0.0,0.0,0.0,0.0,0.0,0.0,0.0,0.0,0.0,0.0,0.0,0.0,0.0,0.0,0.0,0.0,0.0,0.0,0.0,0.0,0.0,0.0,0.0,0.0,0.0,0.0,0.0,0.0,0.0,0.0,0.0,0.0,-3.0432,-2.8812,-2.8461,-2.8762,-2.821,-2.7092,-2.5795,-2.4986,0.0,0.0,0.0,0.0,0.0,0.0,0.0,0.0,0.0,0.0,0.0,0.0,0.0,0.0,0.0,0.0,0.0,0.0,0.0,0.0,0.0,0.0,0.0,0.0,-1.7508,-1.8306,-1.925,-1.9418,-1.9652,-2.0223,-2.0545,-2.0735,-2.0772,-2.1042,-2.1211,-2.1211,-2.1174,-2.1167,-2.1211,-2.1174,0.0,0.0,0.0,-2.0718,-2.0608,-2.0394,-2.0083,-1.9768,-1.9802,-1.9707,-1.9366,-1.9366,-1.9225,-1.8991,-1.9252,-1.9219,-1.8978,-1.8978,-1.8978,-1.8945,-1.8617,-1.851,-1.8504,-1.8203,-1.8096,-1.805,0.0,0.0,0.0,0.0,0.0,0.0,0.0,0.0,0.0,0.0,0.0,0.0,0.0,0.0,0.0,0.0,0.0,0.0,0.0,0.0,0.0,0.0,0.0,0.0,0.0,0.0,0.0,0.0,0.0,0.0,0.0,0.0,0.0,0.0,0.0,0.0,0.0,0.0,0.0,0.0,0.0,0.0,-3.0482,-2.9239,-2.8561,-2.8197,-2.7645,-2.7519,-2.7401,-2.6166,-2.5781,-2.5492,-2.3318,0.0,0.0,0.0,0.0,0.0,0.0,0.0,0.0,0.0,0.0,0.0,0.0,0.0,0.0,0.0,0.0,0.0,0.0,0.0,0.0,-1.7328,-1.8225,-1.9242,-1.9952,-2.0274,-2.0486,-2.0611,-2.0684,-2.0823,-2.1086,-2.1174,-2.1211,-2.1211,-2.0969,-2.0933,-2.1196,-2.0955,-2.0815,-2.0815,-2.0757,-2.0507,-1.9964,-2.0179,-1.9977,-1.946,-1.9699,0.0,-1.9366,-1.9366,-1.9339,-1.9285,-1.9339,-1.9332,-1.9279,-1.9279,-1.9279,-1.9225,-1.8698,-1.8637,-1.8804,-1.851,-1.8404,-1.8364,0.0,0.0,0.0,0.0,0.0,0.0,0.0,0.0,0.0,0.0,0.0,0.0,0.0,0.0,0.0,0.0,0.0,0.0,0.0,0.0,0.0,0.0,0.0,0.0,0.0,0.0,0.0,0.0,0.0,0.0,0.0,0.0,0.0,0.0,0.0,0.0,0.0,0.0,0.0,0.0,0.0,0.0,-3.175,-3.0896,-3.0231,-2.9679,-2.9139,-2.845,-2.7641,-2.636,-2.5408,-2.4498,-2.2918,-2.2083,-2.1417,0.0,0.0,0.0,0.0,0.0,0.0,0.0,0.0,0.0,0.0,0.0,0.0,0.0,0.0,-1.798,0.0,0.0,-1.8157,-1.8515,-1.9228,-1.9923,-2.0413,-2.0757,-2.0969,-2.0969,-2.0969,-2.1035,-2.1196,-2.1211,-2.1211,-2.1211,-2.1057,-2.1035,-2.1203,-2.1057,-2.0969,-2.0969,-2.0808,-2.0601,-2.0251,-2.0302,-2.013,-1.9822,-2.0006,-1.9912,-1.98,-1.98,-1.98,-1.98,-1.98,-1.972,-1.9573,-1.9432,-1.9366,-1.9339,-1.9045,-1.9018,-1.9112,-1.8818,-1.8704,-1.8664,0.0,0.0,0.0,0.0,0.0,0.0,0.0,0.0,0.0,0.0,0.0,0.0,0.0,0.0,0.0,0.0,0.0,0.0,0.0,0.0,0.0,0.0,0.0,0.0,0.0,0.0,0.0,0.0,0.0,0.0,0.0,0.0,0.0,0.0,0.0,0.0,0.0,0.0,0.0,0.0,0.0,0.0,-3.3169,-3.2604,-3.1964,-3.1336,-3.0922,-2.932,-2.7375,-2.6391,-2.4734,-2.3048,-2.2401,-2.2149,-2.188,-2.0855,-2.0493,0.0,0.0,0.0,0.0,0.0,0.0,0.0,0.0,0.0,-1.9279,-1.9316,-1.8688,-1.8169,-1.8636,-1.8401,-1.8555,-1.9674,-2.012,-2.0442,-2.0772,-2.1042,-2.1211,-2.1211,-2.1211,-2.1211,-2.1211,-2.1211,-2.1211,-2.1211,-2.1211,-2.1211,-2.1211,-2.1211,-2.124,-2.1306,-2.105,-2.095,-2.1025,-2.0677,-2.0454,-2.0474,-2.0361,-2.0227,-2.0234,-2.0234,-2.0234,-2.0234,-2.0234,-2.0067,-1.978,-1.9546,-1.9419,-1.9366,-1.9366,-1.9366,-1.9339,-1.9098,-1.9011,-1.8971,0.0,0.0,0.0,0.0,0.0,0.0,0.0,0.0,0.0,0.0,0.0,0.0,0.0,0.0,0.0,0.0,0.0,0.0,0.0,0.0,0.0,0.0,0.0,0.0,0.0,0.0,0.0,0.0,0.0,0.0,0.0,0.0,0.0,0.0,0.0,0.0,0.0,0.0,0.0,0.0,0.0,0.0,-3.3746,-3.3194,-3.2315,-3.1386,-3.1323,-2.9539,-2.7155,-2.7011,-2.5756,-2.4233,-2.3832,-2.336,-2.277,-2.1424,0.0,-2.0317,-1.982,-1.9836,-2.0114,-2.0692,-2.0672,-2.0887,0.0,0.0,-2.146,-2.0657,-2.067,-2.0342,-1.904,-1.9229,-1.9681,-2.0113,-2.0457,-2.0786,-2.1108,-2.1189,-2.1211,-2.1211,-2.1211,-2.1211,-2.1211,-2.1211,-2.1211,-2.1211,-2.1211,-2.1211,-2.1211,-2.1211,-2.1342,-2.1635,-2.1606,-2.1745,-2.2067,-2.1694,-2.1343,-2.1138,-2.0818,-2.047,-2.0234,-2.0234,-2.0234,-2.0234,-2.0234,-2.0067,-1.98,-1.9766,-1.9599,-1.9366,-1.9366,-1.9366,-1.9366,-1.9332,-1.9319,-1.9279,0.0,0.0,0.0,0.0,0.0,0.0,0.0,0.0,0.0,0.0,0.0,0.0,0.0,0.0,0.0,0.0,0.0,0.0,0.0,0.0,0.0,0.0,0.0,0.0,0.0,0.0,0.0,0.0,0.0,0.0,0.0,0.0,0.0,0.0,0.0,0.0,0.0,0.0,0.0,0.0,0.0,0.0,-3.3357,-3.2792,-3.17,-3.0457,-3.0457,-2.9151,0.0,0.0,-2.4937,-2.3859,-2.3562,-2.2977,-2.2211,-2.1362,-2.0793,0.0,-1.993,-2.0254,-2.0722,0.0,-2.1401,-2.2056,-2.3044,-2.2785,-2.218,-2.1561,-2.1345,-2.1057,-1.9881,-2.0011,-2.0428,-2.075,-2.0918,-2.1057,-2.1189,-2.1211,-2.1211,-2.1211,-2.1211,-2.1211,-2.1211,-2.1211,-2.1211,-2.1211,-2.1211,-2.1211,-2.1211,-2.1386,-2.1554,-2.1693,-2.1876,-2.2045,-2.2184,-2.1982,-2.1818,-2.1697,-2.1396,-2.1114,-2.099,-2.0866,-2.0742,-2.0735,-2.0561,-2.0421,-2.0294,-2.012,-1.988,-1.9633,-1.9806,-1.9659,-1.9366,-1.9366,-1.9366,-1.9352,0.0,0.0,0.0,0.0,0.0,0.0,0.0,0.0,0.0,0.0,0.0,0.0,0.0,0.0,0.0,0.0,0.0,0.0,0.0,0.0,0.0,0.0,0.0,0.0,0.0,0.0,0.0,0.0,0.0,0.0,0.0,0.0,0.0,0.0,0.0,0.0,0.0,0.0,0.0,0.0,0.0,0.0,-3.298,-3.2102,-3.0846,-2.9553,-2.9553,-2.8235,0.0,0.0,-2.4408,-2.3438,-2.3483,-2.3024,-2.2352,-2.1551,-2.0886,-2.038,-2.0163,-2.0702,0.0,-2.166,-2.2498,-2.3378,-2.4057,-2.389,-2.3493,-2.3105,-2.2568,-2.2004,-2.108,-2.0914,-2.0933,-2.1174,-2.1211,-2.1211,-2.1211,-2.1211,-2.1211,-2.1211,-2.1211,-2.1211,-2.1211,-2.1211,-2.1211,-2.1211,-2.1211,-2.1247,-2.1342,-2.1569,-2.1774,-2.1942,-2.2184,-2.2345,-2.244,-2.2285,-2.2262,-2.2269,-2.1749,-2.1607,-2.1607,-2.1235,-2.1109,-2.1096,-2.0882,-2.0755,-2.0661,-2.0441,-2.0187,-1.994,-2.0147,-1.9973,-1.9599,-1.9512,-1.9432,-1.9366,0.0,0.0,0.0,0.0,0.0,0.0,0.0,0.0,0.0,0.0,0.0,0.0,0.0,0.0,0.0,0.0,0.0,0.0,0.0,0.0,0.0,0.0,0.0,0.0,0.0,0.0,0.0,0.0,0.0,0.0,0.0,0.0,0.0,0.0,0.0,0.0,0.0,0.0,0.0,0.0,0.0,0.0,-3.2905,-3.1273,-2.9955,-2.895,-2.895,0.0,0.0,0.0,-2.4753,-2.3447,-2.4084,-2.4287,0.0,-2.2265,-2.1135,-2.0452,0.0,0.0,-2.217,-2.3622,-2.4205,-2.4697,-2.5996,-2.6299,-2.6241,-2.5807,-2.4791,-2.3821,-2.3103,-2.1964,-2.1196,-2.1211,-2.1211,-2.1211,-2.1211,-2.1211,-2.1211,-2.1211,-2.1211,-2.1211,-2.1211,-2.1211,-2.1211,-2.1211,-2.1211,-2.135,-2.1664,-2.1693,-2.1972,-2.2571,-2.2601,-2.2762,-2.3076,-2.2716,-2.2591,-2.2598,-2.1978,-2.1607,-2.1607,-2.1235,-2.1109,-2.1109,-2.1096,-2.0935,-2.0675,-2.0668,-2.0488,-2.0221,-2.0227,-2.0221,-2.0174,-1.9887,-1.9606,-1.9366,0.0,0.0,0.0,0.0,0.0,0.0,0.0,0.0,0.0,0.0,0.0,0.0,0.0,0.0,0.0,0.0,0.0,0.0,0.0,0.0,0.0,0.0,0.0,0.0,0.0,0.0,0.0,0.0,0.0,0.0,0.0,0.0,0.0,0.0,0.0,0.0,0.0,0.0,0.0,0.0,0.0,0.0,-3.224,-2.9854,-2.8486,-2.7695,0.0,0.0,0.0,0.0,-2.3696,-2.3419,-2.2999,0.0,0.0,-2.1188,-2.0886,-2.1102,-2.2237,0.0,-2.3864,-2.507,-2.5592,-2.5986,-2.7002,-2.7236,-2.7072,-2.6439,-2.5557,-2.4474,-2.3552,-2.24,-2.1539,-2.1539,-2.1369,-2.1211,-2.1211,-2.1211,-2.1211,-2.1211,-2.1211,-2.1211,-2.1211,-2.1211,-2.1211,-2.1211,-2.1408,-2.1576,-2.1693,-2.2089,-2.2403,-2.2615,-2.2835,-2.3003,-2.3106,-2.2981,-2.2988,-2.2856,-2.2237,-2.1859,-2.1607,-2.1235,-2.1109,-2.1109,-2.1109,-2.1056,-2.0962,-2.0962,-2.0788,-2.0548,-2.0735,-2.0575,-2.0247,-2.0347,-2.0074,-1.9626,0.0,0.0,0.0,0.0,0.0,0.0,0.0,0.0,0.0,0.0,0.0,0.0,0.0,0.0,0.0,0.0,0.0,0.0,0.0,0.0,0.0,0.0,0.0,0.0,0.0,0.0,0.0,0.0,0.0,0.0,0.0,0.0,0.0,0.0,0.0,0.0,0.0,0.0,0.0,0.0,0.0,0.0,-3.0482,-2.8109,-2.6879,0.0,0.0,0.0,0.0,0.0,0.0,0.0,-2.3097,-2.2395,-2.1691,-2.1084,-2.1362,-2.2175,-2.3662,-2.4503,-2.5237,-2.634,-2.6731,-2.7031,-2.7734,-2.7891,-2.766,-2.6861,-2.5869,-2.4818,-2.3859,-2.2286,-2.1207,-2.1333,-2.099,-2.0728,-2.0845,-2.0962,-2.1079,-2.1196,-2.1211,-2.1211,-2.1211,-2.1211,-2.1262,-2.1379,-2.1467,-2.1628,-2.1862,-2.225,-2.2513,-2.2615,-2.2828,-2.2937,-2.2937,-2.2937,-2.2872,-2.2856,-2.2487,-2.2111,-2.1734,-2.1607,-2.1355,-2.1235,-2.1235,-2.1235,-2.1109,-2.1109,-2.1002,-2.0848,-2.1036,-2.0875,-2.0561,-2.0648,-2.0441,-2.0054,0.0,0.0,0.0,0.0,0.0,0.0,0.0,0.0,0.0,0.0,0.0,0.0,0.0,0.0,0.0,0.0,0.0,0.0,0.0,0.0,0.0,0.0,0.0,0.0,0.0,0.0,0.0,0.0,0.0,0.0,0.0,0.0,0.0,0.0,0.0,0.0,0.0,0.0,0.0,0.0,0.0,0.0,-2.7921,-2.6201,0.0,0.0,0.0,0.0,0.0,0.0,0.0,0.0,0.0,-2.3372,-2.2101,-2.1993,-2.2584,-2.3639,-2.4906,-2.5621,-2.629,-2.7511,-2.7819,-2.7803,-2.8203,-2.8262,-2.7998,-2.7187,-2.5866,-2.4674,0.0,0.0,-2.0588,-2.0735,-2.0309,-1.9945,-2.0245,-2.0552,-2.0859,0.0,0.0,0.0,0.0,-2.1211,-2.1342,-2.1672,-2.1408,-2.1503,-2.2125,-2.2176,-2.2308,-2.2593,-2.2601,-2.2608,-2.2623,-2.2637,-2.2675,-2.2584,-2.2606,-2.2487,-2.2111,-2.2111,-2.1985,-2.1607,-2.1607,-2.1355,-2.1109,-2.1109,-2.1109,-2.1109,-2.1109,-2.1109,-2.1076,-2.0802,-2.0688,-2.0595,0.0,0.0,0.0,0.0,0.0,0.0,0.0,0.0,0.0,0.0,0.0,0.0,0.0,0.0,0.0,0.0,0.0,0.0,0.0,0.0,0.0,0.0,0.0,0.0,0.0,0.0,0.0,0.0,0.0,0.0,0.0,0.0,0.0,0.0,0.0,0.0,0.0,0.0,0.0,0.0,0.0,0.0,-2.7883,0.0,0.0,0.0,0.0,0.0,0.0,0.0,0.0,0.0,0.0,-2.2863,-2.2987,-2.3296,-2.4229,-2.5595,-2.7225,-2.787,-2.8289,-2.9086,-2.8807,-2.8386,-2.8271,-2.7803,-2.7275,-2.706,-2.5889,-2.4675,0.0,0.0,0.0,-2.1785,-2.1317,0.0,-2.0955,-2.1035,0.0,-2.1203,0.0,-2.1211,-2.1211,-2.1211,-2.1342,-2.1672,-2.162,-2.1642,-2.1811,-2.2052,-2.222,-2.2293,-2.2293,-2.2396,-2.2615,-2.2864,-2.2901,-2.2624,-2.2623,-2.2613,-2.248,-2.223,-2.2111,-2.1985,-2.1734,-2.1607,-2.1481,-2.1235,-2.1109,-2.1109,-2.1109,-2.1109,-2.1102,-2.1029,-2.0862,-2.0655,0.0,0.0,0.0,0.0,0.0,0.0,0.0,0.0,0.0,0.0,0.0,0.0,0.0,0.0,0.0,0.0,0.0,0.0,0.0,0.0,0.0,0.0,0.0,0.0,0.0,0.0,0.0,0.0,0.0,0.0,0.0,0.0,0.0,0.0,0.0,0.0,0.0,0.0,0.0,0.0,0.0,0.0,0.0,0.0,0.0,0.0,0.0,0.0,0.0,0.0,0.0,-2.35,-2.3216,-2.367,-2.4345,-2.4885,0.0,-2.7396,-2.8724,-2.9382,-2.9743,-2.9833,-2.9507,-2.8913,-2.8034,-2.7377,-2.6804,-2.6033,-2.5133,0.0,-2.4217,-2.3205,-2.2476,0.0,0.0,0.0,-2.1612,-2.1668,-2.1602,0.0,-2.1211,0.0,-2.1211,-2.1211,-2.1284,-2.1467,-2.1481,-2.1606,-2.1898,-2.195,-2.2096,-2.2367,-2.2111,-2.2045,-2.2213,-2.2542,-2.2608,-2.2432,-2.2646,-2.2783,-2.2653,-2.2548,-2.2487,-2.2362,-2.2111,-2.1859,-2.1614,-2.1362,-2.1235,-2.1109,-2.1109,-2.1109,-2.1109,-2.1109,-2.1002,-2.0869,0.0,0.0,0.0,0.0,0.0,0.0,0.0,0.0,0.0,0.0,0.0,0.0,0.0,0.0,0.0,0.0,0.0,0.0,0.0,0.0,0.0,0.0,0.0,0.0,0.0,0.0,0.0,0.0,0.0,0.0,0.0,0.0,0.0,0.0,0.0,0.0,0.0,0.0,0.0,0.0,0.0,0.0,0.0,0.0,0.0,0.0,0.0,0.0,0.0,0.0,-2.4198,-2.4247,-2.432,-2.5078,-2.6075,-2.6743,-2.7862,-2.8992,-2.969,-3.0458,-3.0809,-3.0096,-2.9755,-2.9192,-2.7522,-2.6861,-2.624,-2.4636,0.0,-2.3922,-2.375,-2.3086,-2.274,-2.3374,0.0,-2.2698,-2.218,-2.2541,-2.2411,-2.1509,-2.1432,-2.1432,-2.1432,-2.1318,-2.1211,-2.1211,-2.1211,-2.1459,-2.2023,-2.1789,-2.1876,-2.2418,-2.1957,-2.1679,-2.1635,-2.2001,-2.2162,-2.2125,-2.2703,-2.2857,-2.263,-2.2915,-2.2944,-2.2606,-2.2606,-2.223,-2.1607,-2.1607,-2.1362,-2.1109,-2.1109,-2.1109,-2.1109,-2.1069,-2.1049,-2.1049,0.0,0.0,0.0,0.0,0.0,0.0,0.0,0.0,0.0,0.0,-3.0526,-3.0526,0.0,0.0,0.0,0.0,0.0,0.0,0.0,0.0,0.0,0.0,0.0,0.0,0.0,0.0,0.0,0.0,0.0,0.0,0.0,0.0,0.0,0.0,0.0,0.0,0.0,0.0,0.0,0.0,0.0,0.0,0.0,0.0,0.0,0.0,0.0,0.0,0.0,0.0,-2.5149,-2.5283,-2.5114,-2.6441,-2.8213,-2.8649,-2.9539,-3.0522,-3.1323,-3.1416,-3.123,-3.0799,-2.9845,-2.8757,-2.7381,-2.5909,0.0,0.0,-2.377,-2.3551,-2.3307,-2.3368,-2.3598,-2.404,0.0,0.0,0.0,0.0,-2.3883,0.0,-2.2652,-2.2652,-2.2652,-2.1767,-2.1211,-2.1211,-2.1211,-2.1262,-2.1372,-2.132,-2.1342,-2.1452,-2.1613,-2.1569,-2.1298,-2.1884,-2.2052,-2.1789,-2.2162,-2.244,-2.2623,-2.2681,-2.2849,-2.2981,-2.2731,-2.2362,-2.1985,-2.1734,-2.1362,-2.1109,-2.1109,-2.1109,-2.1082,-2.0842,-2.0755,-2.0755,0.0,0.0,0.0,0.0,0.0,0.0,0.0,-3.0858,-3.109,-3.109,-3.109,-3.0957,-3.0518,-3.0526,0.0,0.0,0.0,0.0,0.0,0.0,0.0,0.0,0.0,0.0,0.0,0.0,0.0,-2.7625,0.0,0.0,0.0,0.0,0.0,0.0,0.0,0.0,0.0,0.0,0.0,0.0,0.0,0.0,0.0,0.0,0.0,0.0,0.0,0.0,0.0,0.0,-2.5791,-2.6098,-2.6431,-2.7707,-2.9104,-2.9818,-3.0677,-3.1485,-3.1919,-3.223,-3.224,-3.1416,-3.0298,-2.8973,-2.69,0.0,0.0,0.0,-2.3412,-2.3484,-2.3788,0.0,0.0,0.0,0.0,0.0,0.0,0.0,0.0,0.0,-2.2974,-2.2974,-2.2974,-2.1873,-2.1432,-2.2101,-2.1702,-2.1459,-2.1459,-2.1628,-2.1715,-2.1715,-2.1708,-2.162,-2.1467,-2.1774,-2.1767,-2.1452,-2.195,-2.2169,-2.2147,-2.2315,-2.2476,-2.263,-2.2508,-2.2256,-2.1874,-2.1758,-2.1479,-2.1112,-2.0956,-2.0873,-2.0848,-2.0555,-2.0448,-2.0468,0.0,0.0,0.0,0.0,0.0,0.0,0.0,-3.1113,-3.1576,-3.1576,-3.1576,-3.1361,-3.0824,-3.0609,-3.0526,0.0,0.0,0.0,0.0,0.0,0.0,0.0,0.0,0.0,0.0,0.0,0.0,-2.7625,-2.7625,0.0,0.0,0.0,0.0,0.0,-2.7625,0.0,0.0,0.0,0.0,0.0,0.0,0.0,0.0,0.0,0.0,0.0,0.0,0.0,0.0,0.0,-2.6104,-2.659,-2.7519,-2.853,-2.9435,-3.0056,-3.1164,-3.2168,-3.2064,-3.2696,-3.3027,-3.1588,-3.046,-2.9001,-2.6351,-2.4964,0.0,0.0,-2.3049,-2.3401,-2.4126,0.0,-2.489,0.0,0.0,0.0,0.0,0.0,0.0,0.0,-2.3801,0.0,-2.3866,-2.2472,-2.1987,-2.2982,-2.2115,-2.162,-2.1693,-2.1876,-2.1979,-2.1979,-2.1723,-2.1591,-2.1591,-2.1591,-2.1467,-2.1218,-2.173,-2.1876,-2.1708,-2.1957,-2.2118,-2.2184,-2.2184,-2.2049,-2.1668,-2.1668,-2.149,-2.1122,-2.0949,-2.0896,-2.0875,-2.0395,-2.0261,-2.0295,0.0,0.0,0.0,0.0,0.0,0.0,0.0,-3.1113,-3.1576,-3.1576,-3.1576,-3.1543,-3.1494,-3.0882,-3.0526,0.0,0.0,0.0,0.0,0.0,0.0,0.0,0.0,0.0,0.0,0.0,0.0,-2.7625,-2.7625,0.0,0.0,0.0,0.0,0.0,0.0,-2.756,-2.7408,0.0,0.0,0.0,0.0,0.0,0.0,0.0,0.0,0.0,0.0,0.0,0.0,0.0,0.0,-2.6597,-2.7356,-2.8319,-2.9239,-2.8897,0.0,0.0,-3.2157,-3.2696,-3.2954,-3.1184,-2.9735,-2.8131,-2.5813,0.0,0.0,-2.2128,-2.2604,-2.3215,-2.3298,-2.4022,-2.4718,0.0,0.0,-2.553,0.0,0.0,0.0,0.0,0.0,0.0,-2.6818,-2.4398,-2.2869,-2.2974,-2.1904,-2.1386,-2.1679,-2.1445,-2.1298,-2.1298,-2.1269,-2.1254,-2.1254,-2.1254,-2.124,-2.1211,-2.1269,-2.1437,-2.1693,-2.173,-2.1906,-2.2184,-2.2184,-2.2049,-2.1668,-2.1668,-2.1612,-2.1491,-2.1306,-2.1254,-2.1456,-2.064,-2.0308,-2.0196,0.0,0.0,0.0,0.0,0.0,0.0,-3.0526,-3.1113,-3.1576,-3.1576,-3.1576,-3.1576,-3.1576,-3.0957,-3.0526,-3.0526,0.0,0.0,0.0,0.0,0.0,0.0,0.0,0.0,0.0,0.0,-2.7625,-2.7625,-2.7625,0.0,0.0,0.0,0.0,0.0,0.0,-2.7049,-2.7011,0.0,0.0,0.0,0.0,0.0,0.0,0.0,0.0,0.0,0.0,0.0,0.0,0.0,0.0,0.0,-2.6165,-2.6982,0.0,0.0,-3.0192,-3.1226,-3.1868,-3.2696,-3.3006,-3.1485,-2.9849,-2.809,-2.6082,0.0,0.0,-2.2356,-2.2739,-2.3277,-2.3557,-2.4115,-2.4578,-2.4851,0.0,0.0,0.0,0.0,0.0,0.0,-2.6522,0.0,-2.7207,-2.5036,-2.3378,-2.2594,-2.2628,-2.2344,-2.1686,-2.1576,-2.1591,-2.1789,-2.1606,-2.1503,-2.1503,-2.1306,-2.1211,-2.1211,-2.1211,-2.1276,-2.1408,-2.1408,-2.1474,-2.1598,-2.1598,-2.1474,-2.135,-2.135,-2.1421,-2.1314,-2.0989,-2.0934,-2.104,-2.0496,-2.0343,-2.0254,0.0,0.0,0.0,0.0,0.0,-3.0568,-3.0526,-3.1113,-3.1576,-3.1576,-3.1576,-3.1576,-3.1576,-3.0957,-3.0526,-3.0526,-3.0526,0.0,0.0,0.0,0.0,0.0,0.0,0.0,0.0,0.0,-2.7625,-2.7625,-2.7625,-2.7625,0.0,0.0,-2.7625,-2.7575,0.0,0.0,0.0,0.0,0.0,0.0,0.0,0.0,0.0,0.0,0.0,0.0,0.0,0.0,0.0,0.0,0.0,0.0,0.0,0.0,0.0,0.0,-2.9406,-3.0276,-3.1113,-3.2204,-3.2654,-3.1309,-2.9684,-2.7935,0.0,0.0,0.0,-2.2625,-2.2977,-2.3494,-2.3815,-2.424,-2.454,-2.454,0.0,-2.46,-2.5411,0.0,0.0,0.0,0.0,-2.733,-2.7572,-2.6057,-2.4604,-2.3448,-2.3465,-2.32,-2.2398,-2.1972,-2.1759,-2.1891,-2.1672,-2.1554,-2.1554,-2.132,-2.1211,-2.1211,-2.1211,-2.1211,-2.1211,-2.1211,-2.1211,-2.1211,-2.1211,-2.1211,-2.1211,-2.1211,-2.1285,-2.1313,-2.0975,-2.0923,-2.0932,-2.0614,-2.0442,-2.0554,0.0,0.0,0.0,0.0,0.0,0.0,-3.0526,-3.1113,-3.1576,-3.1576,-3.1576,-3.1576,-3.1576,-3.0957,-3.0526,-3.0526,-3.0526,0.0,0.0,0.0,0.0,0.0,0.0,0.0,0.0,0.0,-2.7625,-2.7625,-2.7625,-2.7625,-2.7625,-2.7625,-2.7625,-2.7575,0.0,0.0,0.0,0.0,0.0,0.0,0.0,0.0,0.0,0.0,0.0,0.0,0.0,0.0,0.0,0.0,0.0,0.0,0.0,0.0,0.0,0.0,-2.8254,-3.0421,-2.9958,-3.0937,-3.1723,-3.0356,-2.8959,-2.7458,0.0,0.0,-2.3608,-2.2687,-2.3225,-2.3867,-2.3877,-2.424,-2.454,-2.454,-2.454,0.0,-2.5411,0.0,0.0,0.0,-2.7703,-2.8074,-2.8658,-2.7791,-2.6848,-2.5964,-2.4491,-2.3757,-2.4109,-2.2553,-2.1547,-2.1233,-2.1218,-2.1218,-2.1218,-2.1211,-2.1211,-2.1211,-2.1211,-2.1211,-2.1211,-2.1211,-2.1211,-2.1211,-2.1211,-2.1211,-2.1211,-2.1211,-2.1401,-2.1664,-2.1342,-2.1408,-2.165,-2.096,-2.0916,-2.1188,0.0,0.0,0.0,0.0,0.0,0.0,0.0,-3.0974,-3.1124,-3.1124,-3.1041,-3.1,-3.1,-3.0701,-3.0526,-3.0526,-3.0526,0.0,0.0,0.0,0.0,0.0,0.0,0.0,0.0,0.0,-2.7625,-2.7625,-2.8038,-2.8038,-2.7625,-2.8053,-2.8023,-2.7575,-2.6549,-2.6068,0.0,0.0,0.0,0.0,0.0,0.0,-2.6987,0.0,0.0,0.0,0.0,0.0,0.0,0.0,0.0,0.0,0.0,0.0,0.0,0.0,0.0,0.0,-2.8278,-2.916,-2.9748,-2.8505,-2.7562,-2.6693,-2.5502,0.0,0.0,-2.3091,-2.3453,-2.3877,-2.3877,-2.424,-2.454,-2.454,-2.4809,0.0,0.0,0.0,0.0,-2.7509,-2.8595,-2.9202,-2.8899,-2.9355,-2.8788,-2.6511,-2.5922,-2.521,-2.414,-2.2553,-2.165,-2.1547,-2.154,-2.1437,-2.1211,-2.1211,-2.1211,-2.1211,-2.1211,-2.1211,-2.1211,-2.1211,-2.1211,-2.1211,-2.1211,-2.1211,-2.1211,-2.1211,-2.1269,-2.135,-2.1247,-2.1408,-2.1679,-2.146,-2.162,-2.1896,0.0,0.0,0.0,0.0,0.0,0.0,0.0,-3.0912,-3.0912,-3.0912,-3.0831,-3.0749,-3.0692,-3.0609,-3.0568,-3.051,-3.0342,0.0,0.0,0.0,0.0,0.0,0.0,0.0,0.0,-2.7625,-2.7625,-2.7625,-2.8263,-2.8382,-2.7979,-2.8397,-2.8263,-2.761,-2.6329,-2.5687,0.0,0.0,0.0,0.0,0.0,0.0,-2.704,0.0,0.0,0.0,0.0,0.0,0.0,0.0,0.0,0.0,0.0,0.0,0.0,0.0,-2.6846,0.0,0.0,-2.7752,-2.815,-2.7306,-2.6392,0.0,0.0,0.0,0.0,0.0,0.0,-2.4136,-2.4136,-2.4353,-2.454,-2.454,-2.4788,-2.5037,0.0,0.0,0.0,-2.8328,-2.9379,-2.9925,-2.968,-3.0402,-3.0113,-2.8445,-2.7579,-2.6868,-2.594,-2.3842,-2.2849,-2.3442,-2.2154,-2.1415,-2.1211,-2.1211,-2.1211,-2.1211,-2.1211,-2.1211,-2.1211,-2.1211,-2.1211,-2.1211,-2.1211,-2.1211,0.0,-2.1211,-2.1284,-2.1393,-2.1393,-2.1591,-2.1876,-2.1876,-2.2081,-2.2345,0.0,0.0,0.0,0.0,0.0,0.0,0.0,-3.0912,-3.0912,-3.0912,-3.0912,-3.0871,-3.0733,-3.0692,-3.0609,-3.0468,0.0,0.0,0.0,0.0,0.0,0.0,0.0,0.0,-2.7625,-2.7625,-2.7625,-2.7625,-2.8308,-2.8652,-2.8607,-2.8697,-2.8335,-2.765,-2.6449,-2.5508,-2.4932,-2.4912,-2.5262,-2.5876,-2.6399,-2.6974,0.0,0.0,0.0,0.0,0.0,0.0,0.0,0.0,0.0,0.0,0.0,0.0,0.0,0.0,0.0,0.0,0.0,0.0,0.0,0.0,0.0,0.0,0.0,0.0,0.0,0.0,0.0,0.0,0.0,-2.454,-2.454,-2.454,-2.4592,-2.4788,0.0,-2.6506,0.0,0.0,-3.0171,-3.0472,-3.0781,-3.081,-3.0898,-3.1179,-2.9496,-2.8489,-2.8902,-2.5923,-2.4866,-2.6396,-2.3207,-2.1469,-2.1354,-2.1218,-2.1211,-2.1211,-2.1211,-2.1211,-2.1211,-2.1211,-2.1211,-2.1211,-2.1211,-2.1218,-2.1247,-2.1247,-2.1437,-2.173,-2.173,-2.1928,-2.2213,-2.2213,-2.2403,-2.2659,0.0,0.0,0.0,0.0,0.0,0.0,0.0,0.0,0.0,0.0,-3.0992,-3.0871,-3.0871,-3.0651,-3.0384,0.0,0.0,0.0,0.0,0.0,0.0,0.0,0.0,0.0,-2.7625,-2.7625,-2.7625,-2.7625,-2.8771,-2.9086,-2.8622,-2.9594,-2.9233,-2.7679,-2.6889,-2.574,-2.4287,-2.4315,-2.4896,-2.5837,-2.5968,-2.6634,0.0,0.0,0.0,0.0,-2.7456,-2.7403,0.0,0.0,0.0,0.0,0.0,0.0,0.0,0.0,-2.6909,-2.6527,-2.5888,0.0,-2.5911,-2.4344,-2.4471,0.0,0.0,0.0,0.0,0.0,0.0,0.0,0.0,0.0,0.0,-2.454,-2.5109,-2.5606,-2.5709,0.0,0.0,-3.099,-3.1298,-3.1066,-3.0727,-3.0918,-3.111,-3.0986,-2.9389,-2.8498,-2.8902,-2.6737,-2.5668,-2.5994,-2.5015,-2.3951,-2.3027,-2.1773,-2.1211,-2.1211,-2.1211,-2.1211,-2.1211,-2.1211,-2.1211,-2.1211,-2.1211,-2.135,-2.1584,-2.1584,-2.1774,-2.2067,-2.2067,-2.2257,-2.252,-2.252,-2.2718,-2.2996,0.0,0.0,0.0,0.0,0.0,0.0,0.0,0.0,0.0,0.0,0.0,0.0,0.0,0.0,0.0,0.0,0.0,0.0,0.0,0.0,0.0,0.0,0.0,-2.7625,-2.7625,-2.7625,-2.7625,-2.7625,-2.8921,-2.94,-2.9071,-2.9752,-2.9375,-2.8083,-2.6862,-2.566,-2.4543,-2.5066,-2.5641,-2.6229,-2.6504,0.0,0.0,0.0,0.0,0.0,-2.7523,-2.7469,0.0,-2.7469,-2.7403,-2.7268,0.0,0.0,0.0,0.0,-2.693,-2.6559,-2.6073,-2.6009,-2.5698,-2.4133,-2.4207,-2.4735,0.0,0.0,0.0,0.0,0.0,0.0,0.0,0.0,0.0,0.0,-2.513,0.0,0.0,0.0,-2.9879,-3.1593,-3.1809,-3.1779,-3.1529,-3.1532,-3.1361,-3.1057,-2.9872,-2.9163,-2.92,-2.7604,-2.6902,-2.7596,-2.6075,-2.4666,-2.3366,-2.2559,-2.1992,-2.143,-2.143,-2.143,-2.143,-2.1276,-2.1291,-2.143,-2.143,-2.162,-2.192,-2.192,-2.2103,-2.2381,-2.2381,-2.2571,-2.2842,-2.2842,-2.2959,-2.3106,0.0,0.0,0.0,0.0,0.0,0.0,0.0,0.0,0.0,0.0,0.0,0.0,0.0,0.0,0.0,0.0,0.0,0.0,0.0,0.0,0.0,0.0,0.0,-2.7625,-2.7625,-2.7625,-2.7619,-2.7724,-2.8966,-2.957,-2.9565,-2.9608,-2.9199,-2.8344,-2.6489,-2.5419,-2.5088,-2.5994,-2.6517,-2.6713,-2.7196,0.0,0.0,0.0,0.0,0.0,0.0,0.0,0.0,-2.7523,-2.7523,-2.7523,-2.7523,0.0,0.0,0.0,0.0,0.0,-2.6513,-2.636,-2.5953,-2.4759,-2.4497,-2.4588,0.0,0.0,0.0,0.0,0.0,0.0,0.0,0.0,0.0,0.0,0.0,0.0,-2.8618,-2.9332,-3.0201,-3.1754,-3.2064,-3.224,-3.2375,-3.2001,-3.1506,-3.094,-3.0389,-2.9996,-2.959,-2.8465,-2.8324,-2.9473,-2.7055,-2.5034,-2.3617,-2.3584,-2.2968,-2.2111,-2.1884,-2.1745,-2.1686,-2.1459,-2.1481,-2.1701,-2.1752,-2.195,-2.225,-2.225,-2.2425,-2.2696,-2.2696,-2.2864,-2.3106,-2.3106,-2.3106,-2.3106,0.0,0.0,0.0,0.0,0.0,0.0,0.0,0.0,0.0,0.0,0.0,0.0,0.0,0.0,0.0,0.0,0.0,0.0,0.0,0.0,0.0,-2.7625,-2.7625,-2.7625,-2.7625,-2.7625,-2.7859,-2.8442,-2.9205,-2.9559,-2.9508,-3.0074,-2.9192,-2.7018,-2.5694,-2.5053,-2.5035,-2.5219,-2.5847,-2.6687,-2.6765,0.0,0.0,0.0,0.0,0.0,0.0,0.0,0.0,-2.7523,-2.7523,-2.7523,-2.7523,0.0,0.0,0.0,0.0,0.0,-2.6893,-2.6858,-2.6637,-2.536,-2.5,-2.4826,0.0,0.0,0.0,0.0,0.0,0.0,0.0,0.0,0.0,0.0,0.0,-2.8183,-3.0098,-3.077,-3.1164,-3.1443,-3.2157,-3.2231,-3.1287,-3.1452,-3.1268,-3.0266,-2.9788,-2.9599,-2.956,-2.8998,-2.8794,-2.9014,-2.8616,-2.776,-2.6587,-2.4497,-2.3541,-2.3709,-2.2684,-2.1964,-2.1708,-2.1935,-2.1913,-2.1715,-2.1986,-2.2279,-2.2557,-2.2557,-2.2747,-2.3032,-2.3032,-2.3062,-2.3106,-2.3106,-2.3106,-2.3106,0.0,0.0,0.0,0.0,0.0,0.0,0.0,0.0,0.0,0.0,0.0,0.0,0.0,0.0,0.0,0.0,0.0,0.0,0.0,0.0,0.0,-2.7625,-2.7625,-2.7625,-2.7625,-2.7934,-2.8278,-2.8607,-2.9594,-3.0056,-3.0041,-2.9966,-2.8795,-2.6734,-2.6182,-2.589,-2.589,-2.589,-2.6373,-2.7131,0.0,0.0,0.0,0.0,0.0,0.0,0.0,0.0,0.0,0.0,-2.7523,-2.7523,-2.7523,0.0,0.0,0.0,0.0,0.0,-2.7933,-2.7213,-2.637,-2.6451,-2.5902,-2.5236,0.0,0.0,0.0,0.0,0.0,0.0,0.0,0.0,0.0,-2.6568,0.0,-2.8773,-3.0118,-3.0284,-3.0626,-3.1619,-3.1671,-3.1632,-3.183,-3.1482,-3.1014,-3.0268,-2.9749,-2.9263,-2.8887,-2.8691,-2.8584,-2.8584,-2.8799,-2.8804,-2.848,-2.6857,-2.5545,-2.442,-2.372,-2.3059,-2.2198,-2.2184,-2.2191,-2.2206,-2.2352,-2.2593,-2.2886,-2.2886,-2.2974,-2.3106,-2.3106,-2.3106,-2.3106,-2.3106,-2.3106,-2.3106,0.0,0.0,0.0,0.0,0.0,0.0,0.0,0.0,0.0,0.0,0.0,0.0,0.0,0.0,0.0,0.0,0.0,0.0,0.0,0.0,-2.7625,-2.7625,-2.7775,-2.7814,-2.7814,-2.8323,-2.8742,-2.9041,-3.0028,-3.0398,-3.0262,-2.9402,-2.8207,-2.6674,-2.6674,-2.6674,-2.6674,-2.6674,-2.7,-2.7523,0.0,0.0,0.0,0.0,0.0,0.0,0.0,0.0,0.0,0.0,0.0,0.0,0.0,0.0,0.0,-2.7523,-2.7561,-2.7751,-2.8576,-2.7495,-2.6349,-2.7163,0.0,-2.5401,0.0,0.0,0.0,0.0,0.0,0.0,0.0,0.0,0.0,-2.8028,-2.8721,-2.9342,-3.0056,-2.9942,-3.0274,-3.1567,-3.1205,-3.1215,-3.2157,-3.1377,-3.0748,-3.0419,-2.9898,-2.9283,-2.8711,-2.8594,-2.8594,-2.8594,-2.8906,-2.9277,-2.9717,-2.9107,-2.766,-2.5613,-2.5261,-2.4385,-2.3095,-2.2946,-2.2719,-2.2623,-2.2703,-2.2879,-2.3106,-2.3106,-2.3106,-2.3106,-2.3106,-2.3106,-2.3106,-2.3106,-2.3106,-2.3106,0.0,0.0,0.0,0.0,0.0,0.0,0.0,0.0,0.0,0.0,0.0,0.0,0.0,0.0,0.0,0.0,0.0,0.0,0.0,0.0,-2.7675,-2.779,-2.824,-2.8532,-2.8532,-2.8577,-2.9175,-3.0357,-3.0462,-3.0206,-2.9558,-2.8247,-2.7288,-2.6674,-2.6674,-2.6674,-2.6674,-2.6674,-2.7,-2.7523,-2.7523,0.0,0.0,0.0,0.0,0.0,0.0,0.0,0.0,0.0,0.0,0.0,0.0,0.0,-2.7523,-2.7523,-2.7902,-2.8313,-2.8126,-2.759,-2.7093,-2.692,0.0,0.0,0.0,0.0,0.0,0.0,0.0,0.0,0.0,-2.6268,-2.7614,-2.898,-2.9953,-3.0563,-3.0626,-3.0977,-3.1122,-3.0822,-3.1102,-3.1195,-3.0864,-3.077,-3.0611,-3.0258,-2.9924,-2.9749,-2.9917,-2.9594,-2.9482,-2.9482,-2.9502,-2.9726,-3.0146,-3.0062,-2.9574,-2.8637,-2.7452,-2.594,-2.4435,-2.4735,-2.4109,-2.2637,-2.2945,-2.3091,-2.3106,-2.3106,-2.3106,-2.3106,-2.3106,-2.3106,-2.3106,-2.3106,-2.3106,-2.3106,0.0,0.0,0.0,0.0,0.0,0.0,0.0,0.0,0.0,0.0,0.0,0.0,0.0,0.0,0.0,0.0,0.0,0.0,0.0,-2.7925,-2.774,-2.779,-2.7931,-2.8353,-2.919,-2.9579,-3.0013,-3.0507,-3.0497,-2.9964,-2.8839,-2.8352,-2.7788,-2.7183,-2.6831,-2.687,-2.7183,-2.6831,-2.7,-2.7523,-2.7523,-2.7523,0.0,0.0,0.0,0.0,0.0,0.0,0.0,0.0,-2.7523,0.0,0.0,0.0,-2.7523,-2.7523,-2.7941,-2.8365,-2.8066,-2.7539,-2.6971,-2.6687,0.0,0.0,0.0,0.0,0.0,0.0,0.0,0.0,0.0,0.0,-2.8794,-2.9601,-3.0512,-3.1112,-3.1112,-3.077,-3.077,-3.1454,-3.0926,-3.0895,-3.1868,-3.0926,-3.0498,-3.0993,-3.0425,-2.9987,-3.0006,-2.9915,-2.9793,-2.957,-2.9824,-3.0039,-3.0195,-3.0488,-3.0471,-3.0147,-2.8811,-2.7408,-2.6086,-2.6219,-2.5968,-2.5351,-2.5489,-2.5554,-2.5431,-2.4702,-2.4332,-2.4216,-2.3479,-2.3106,-2.3106,-2.3106,-2.3106,-2.3106,0.0,0.0,0.0,0.0,0.0,0.0,0.0,0.0,0.0,0.0,0.0,0.0,0.0,0.0,0.0,0.0,0.0,0.0,-2.8103,-2.7955,-2.789,-2.794,-2.7986,-2.8531,-2.9619,-3.0193,-3.0612,-3.0836,-3.0411,-2.9704,-2.8776,-2.8417,-2.7908,-2.751,-2.7118,-2.7157,-2.751,-2.7105,-2.717,-2.7523,-2.7523,-2.7523,0.0,0.0,0.0,0.0,0.0,0.0,0.0,0.0,0.0,0.0,0.0,0.0,0.0,0.0,-2.8004,-2.8459,-2.8019,-2.7585,-2.7182,0.0,0.0,0.0,0.0,0.0,0.0,0.0,0.0,0.0,0.0,0.0,0.0,-2.9922,-3.0884,-3.1485,-3.1205,-3.0615,-3.0563,-3.1505,-3.0781,-3.076,-3.2168,-3.1164,-3.0766,-3.1605,-3.1103,-3.062,-3.0525,-3.0442,-3.0329,-2.999,-3.0264,-3.042,-3.042,-3.0732,-3.0889,-3.0889,-3.002,-2.8811,-2.7607,-2.7607,-2.7375,-2.7013,-2.7013,-2.7013,-2.6892,-2.6034,-2.5676,-2.5562,-2.4702,-2.4092,-2.372,-2.372,-2.3479,-2.3106,0.0,0.0,0.0,0.0,0.0,0.0,0.0,0.0,0.0,0.0,0.0,0.0,0.0,0.0,0.0,0.0,0.0,0.0,-2.8201,-2.8054,-2.8054,-2.8186,-2.8576,-2.9102,-2.981,-3.0263,-3.0851,-3.1467,-3.0133,-2.9504,-2.9442,-2.8143,-2.7523,-2.7523,-2.7523,-2.7523,-2.7523,-2.7523,-2.7523,-2.7523,-2.7523,-2.7523,-2.7523,0.0,0.0,0.0,0.0,0.0,0.0,0.0,0.0,0.0,0.0,0.0,0.0,0.0,-2.8235,-2.8774,-2.7875,-2.7851,0.0,0.0,0.0,0.0,0.0,0.0,0.0,0.0,0.0,-2.8224,-2.9145,-2.9321,-2.9477,-2.9932,-3.1153,-3.1723,-3.0822,-3.0698,-3.0698,-3.0698,-3.0698,-3.0874,-3.135,-3.1381,-3.1567,-3.2012,-3.1809,-3.1655,-3.1767,-3.1441,-3.1218,-3.0889,-3.0889,-3.0889,-3.0889,-3.0889,-3.0889,-3.0889,-3.0889,-3.0147,-2.892,-2.892,-2.8206,-2.7013,-2.7013,-2.7013,-2.7013,-2.6987,-2.6987,-2.7013,-2.7013,-2.6286,-2.5071,-2.5071,-2.4209,-2.3106,0.0,0.0,0.0,0.0,0.0,0.0,0.0,0.0,0.0,0.0,0.0,0.0,0.0,0.0,0.0,0.0,0.0,0.0,-2.9054,-2.8461,-2.8137,-2.8186,-2.8576,-2.9102,-2.981,-3.0288,-3.038,-3.0072,-2.9355,-2.8616,-2.8078,-2.7301,-2.7144,-2.7523,-2.7523,-2.7523,-2.7523,-2.7523,-2.7523,-2.7523,-2.7523,-2.7523,-2.7523,0.0,0.0,0.0,0.0,0.0,0.0,0.0,0.0,0.0,0.0,0.0,0.0,0.0,-2.8578,-2.9494,-2.8233,0.0,0.0,0.0,0.0,0.0,0.0,0.0,0.0,0.0,-2.9891,-2.9559,-3.016,-3.0543,-3.0801,-3.0946,-3.1567,-3.195,-3.1681,-3.1371,-3.1288,-3.1598,-3.136,-3.1474,-3.2261,-3.1754,-3.1692,-3.2468,-3.2107,-3.1892,-3.1767,-3.1672,-3.145,-3.0889,-3.0889,-3.0889,-3.0889,-3.0889,-3.0723,-3.04,-3.0732,-3.0645,-3.0274,-3.0274,-3.0157,-2.9795,-2.9795,-2.9795,-2.9677,-2.8683,-2.7847,-2.7013,-2.7013,-2.6771,-2.6407,-2.6407,-2.5676,-2.4463,0.0,0.0,0.0,0.0,0.0,0.0,0.0,0.0,0.0,0.0,0.0,0.0,0.0,0.0,0.0,0.0,0.0,0.0,0.0,-2.9066,-2.8633,-2.8583,-2.8779,-2.9275,-3.0048,-3.0367,-3.0147,-2.9504,-2.892,-2.8261,-2.7563,-2.7197,-2.7196,-2.7523,-2.7523,-2.7523,-2.7523,-2.7523,-2.7523,-2.7523,-2.7523,-2.7523,-2.7523,0.0,0.0,0.0,0.0,0.0,0.0,0.0,0.0,0.0,0.0,0.0,0.0,-2.7767,-2.8344,-2.8758,-2.7716,0.0,0.0,0.0,0.0,0.0,0.0,0.0,0.0,0.0,0.0,-3.0688,-3.1143,-3.1309,-3.1433,-3.1609,-3.2023,-3.225,-3.2064,-3.1805,-3.1743,-3.2012,-3.1805,-3.193,-3.2664,-3.224,-3.2137,-3.2685,-3.2354,-3.1891,-3.1516,-3.1411,-3.1112,-3.0371,-3.0371,-3.0371,-3.0371,-3.0371,-3.0225,-2.9951,-3.0234,-3.0371,-3.0381,-3.0732,-3.0889,-3.0889,-3.0889,-3.0889,-3.0889,-3.003,-2.9185,-2.8591,-2.8591,-2.8215,-2.7727,-2.7727,-2.7004,-2.5798,0.0,0.0,0.0,0.0,0.0,0.0,0.0,0.0,0.0,0.0,0.0,0.0,0.0,0.0,0.0,0.0,0.0,0.0,0.0,0.0,-2.9454,-2.9322,-2.9261,-2.9577,-3.0421,-3.0426,-3.0015,-2.9274,-2.8666,-2.8157,-2.7696,-2.7485,-2.7471,-2.7523,-2.7523,-2.7523,-2.7523,-2.7523,-2.7523,-2.7523,-2.7523,-2.7523,-2.7523,-2.7523,0.0,0.0,0.0,0.0,0.0,0.0,0.0,0.0,0.0,0.0,0.0,-2.7971,-2.7763,-2.7383,0.0,0.0,0.0,0.0,0.0,0.0,0.0,0.0,0.0,-3.252,0.0,-3.1629,-3.2033,-3.1774,-3.1629,-3.2033,-3.2457,-3.2582,-3.2157,-3.2106,-3.2106,-3.2106,-3.2106,-3.2271,-3.2685,-3.2727,-3.2716,-3.2664,-3.2426,-3.1879,-3.1083,-3.0734,-3.0329,-2.958,-2.957,-2.957,-2.957,-2.957,-2.9551,-2.9512,-2.9551,-2.9551,-2.9541,-3.043,-3.085,-3.0889,-3.0889,-3.0869,-3.083,-3.083,-3.083,-3.083,-3.083,-3.0119,-2.9048,-2.9048,-2.8325,-2.7134,0.0,0.0,0.0,0.0,0.0,0.0,0.0,0.0,0.0,0.0,0.0,0.0,0.0,0.0,0.0,0.0,0.0,0.0,0.0,0.0,-3.0145,-3.0145,-3.0403,-3.0403,-3.0041,-2.9817,-2.8965,-2.7399,-2.7721,-2.7776,-2.7525,-2.7079,-2.7105,-2.7523,-2.7523,-2.7523,-2.7523,-2.7523,-2.7523,-2.7523,-2.7523,-2.7523,-2.7523,-2.7523,-2.7523,0.0,0.0,0.0,0.0,0.0,0.0,0.0,0.0,-2.7837,-2.8137,-2.7743,-2.8402,0.0,0.0,0.0,0.0,0.0,0.0,0.0,0.0,0.0,0.0,-3.165,-3.2075,-3.2468,-3.2561,-3.2499,-3.2468,-3.2571,-3.2664,-3.2696,-3.2602,-3.2582,-3.2582,-3.2582,-3.2582,-3.2623,-3.2716,-3.2727,-3.2582,-3.2219,-3.1953,-3.1411,-3.0641,-3.0286,-3.0013,-2.957,-2.957,-2.957,-2.957,-2.957,-2.9404,-2.9062,-2.9404,-2.9394,-2.9092,-2.9951,-3.0547,-3.0889,-3.0889,-3.0684,-3.0342,-3.0342,-3.0342,-3.0342,-3.0342,-3.0441,-3.0518,-3.0518,-2.9658,-2.8444,0.0,0.0,0.0,0.0,0.0,0.0,0.0,0.0,0.0,0.0,0.0,0.0,0.0,0.0,0.0,0.0,0.0,0.0,0.0,0.0,-3.0837,-3.0693,-3.0813,-3.0672,-3.0207,-2.9718,-2.8886,-2.7596,-2.7618,-2.7405,-2.7118,-2.7092,-2.7249,-2.7523,-2.7523,-2.7523,-2.7523,-2.7523,-2.7523,-2.7523,-2.7523,-2.7523,-2.7523,-2.7523,-2.7523,-2.7523,-2.7523,0.0,0.0,0.0,0.0,0.0,0.0,0.0,-2.9209,-2.9054,-2.9481,-2.9668,0.0,0.0,0.0,0.0,0.0,0.0,0.0,0.0,-3.1164,-3.1609,-3.2075,-3.2468,-3.2685,-3.2727,-3.2727,-3.2727,-3.2727,-3.2727,-3.2727,-3.2727,-3.2727,-3.2727,-3.2727,-3.2727,-3.2727,-3.253,-3.2302,-3.2064,-3.138,-3.0843,-3.0178,-2.9709,-2.928,-2.8965,-2.8965,-2.8965,-2.8965,-2.8965,-2.8838,-2.8623,-2.8848,-2.8945,-2.8945,-2.96,-3.0029,-3.0264,-3.0264,-3.0117,-2.9893,-2.9893,-2.9893,-2.9912,-3.0117,-3.0342,-3.0586,-3.081,-3.0518,-2.9903,0.0,0.0,0.0,0.0,0.0,0.0,0.0,0.0,0.0,0.0,0.0,0.0,0.0,0.0,0.0,0.0,0.0,0.0,0.0,0.0,0.0,-3.1271,-3.1091,-3.0941,-3.0748,-2.995,-2.9268,-2.8661,-2.7908,-2.7288,-2.6831,-2.7301,-2.7523,-2.7523,-2.7523,-2.7523,-2.7523,-2.7523,-2.7523,-2.7536,-2.7628,-2.7615,-2.7536,-2.7641,-2.7615,-2.7536,-2.7641,-2.768,-2.7771,-2.8347,0.0,0.0,0.0,0.0,-3.0299,-3.0631,-3.0585,-3.0164,0.0,0.0,0.0,0.0,0.0,0.0,0.0,0.0,-3.0708,-3.1619,-3.1868,-3.2064,-3.252,-3.2551,-3.252,-3.2602,-3.2613,-3.2633,-3.2716,-3.2727,-3.2727,-3.2727,-3.2664,-3.2644,-3.2727,-3.224,-3.193,-3.193,-3.0943,-3.0158,-2.9705,-2.9144,-2.8652,-2.8301,-2.8291,-2.8291,-2.8291,-2.8291,-2.8291,-2.8291,-2.8291,-2.8476,-2.8818,-2.918,-2.9434,-2.957,-2.957,-2.9531,-2.9453,-2.9453,-2.9453,-2.9502,-2.9922,-3.0137,-3.0254,-3.0723,-3.0889,-3.0889,0.0,0.0,0.0,0.0,0.0,0.0,0.0,0.0,0.0,0.0,0.0,0.0,0.0,0.0,0.0,0.0,0.0,0.0,-3.2398,0.0,0.0,-3.2204,-3.2109,-3.1931,-3.1811,-3.0435,-2.9628,-2.9393,-2.8078,-2.7484,0.0,0.0,-2.7523,-2.7523,-2.7523,-2.7523,-2.7523,-2.7523,-2.7523,-2.7575,-2.8072,-2.7968,-2.7589,-2.8072,-2.7968,-2.7589,-2.8085,-2.8268,-2.836,-2.8961,-2.9483,0.0,0.0,0.0,-3.0882,-3.096,-3.1137,0.0,0.0,0.0,0.0,0.0,0.0,0.0,0.0,0.0,-2.9746,-3.0677,-3.1184,-3.1598,-3.2054,-3.1816,-3.1681,-3.2064,-3.2137,-3.2271,-3.2675,-3.2727,-3.2727,-3.2727,-3.2375,-3.2292,-3.2696,-3.1961,-3.1464,-3.1464,-3.0476,-2.9695,-2.9242,-2.869,-2.835,-2.8291,-2.8291,-2.8291,-2.8291,-2.8291,-2.8291,-2.8291,-2.8291,-2.832,-2.8379,-2.8437,-2.8867,-2.957,-2.957,-2.9355,-2.9004,-2.9004,-2.9004,-2.9053,-2.9482,-2.9873,-3.0254,-3.0723,-3.0889,-3.0889,0.0,0.0,0.0,0.0,0.0,0.0,0.0,0.0,0.0,0.0,0.0,0.0,0.0,0.0,0.0,-3.2367,-3.2398,-3.2398,-3.2398,-3.2398,-3.2342,-3.2287,-3.2135,-3.1724,-3.0881,-3.0072,-2.9268,-2.8519,-2.7842,0.0,0.0,-2.7523,-2.7523,0.0,-2.7523,-2.7523,-2.7523,-2.7523,-2.7719,-2.8033,-2.8281,-2.8229,-2.8072,-2.866,-2.8516,-2.8085,-2.8673,-2.9091,-2.9405,-2.9666,-3.0137,-3.0607,-3.0607,0.0,0.0,0.0,-3.228,0.0,0.0,0.0,0.0,0.0,0.0,0.0,0.0,0.0,-2.9497,-3.016,-3.046,-3.0822,-3.1536,-3.1505,-3.1443,-3.164,-3.1671,-3.1826,-3.2282,-3.2126,-3.2064,-3.2313,-3.194,-3.1743,-3.195,-3.1381,-3.0988,-3.0988,-3.0008,-2.9343,-2.9142,-2.8611,-2.8291,-2.8291,-2.8291,-2.8291,-2.8291,-2.8291,-2.8291,-2.8291,-2.8291,-2.8291,-2.8291,-2.8291,-2.8496,-2.8857,-2.8857,-2.874,-2.8564,-2.8564,-2.8564,-2.8613,-2.9043,-2.9463,-2.9873,-3.0078,-3.0469,-3.0859,0.0,0.0,0.0,0.0,0.0,0.0,0.0,0.0,0.0,0.0,0.0,0.0,0.0,0.0,0.0,0.0,-3.2398,-3.2398,-3.2398,-3.2398,-3.2342,-3.2247,-3.215,-3.1595,-3.0555,-2.995,-2.9205,-2.8274,0.0,0.0,-2.7523,-2.7523,-2.7602,0.0,-2.7745,-2.7745,0.0,0.0,0.0,-2.8608,-2.8608,-2.8608,-2.866,-2.9104,-2.9,-2.8686,-2.9274,-2.9771,-3.015,-3.0307,-3.0725,-3.1196,-3.1196,-3.1588,0.0,0.0,0.0,0.0,0.0,0.0,0.0,0.0,0.0,0.0,0.0,0.0,-2.9081,-2.9973,-3.0016,-3.0067,-3.0874,-3.1029,-3.106,-3.1184,-3.1205,-3.136,-3.1805,-3.1588,-3.1495,-3.1836,-3.1474,-3.1247,-3.136,-3.0853,-3.0563,-3.0677,-2.9819,-2.9237,-2.9132,-2.8611,-2.8408,-2.8408,-2.8291,-2.8291,-2.8408,-2.8193,-2.8076,-2.7969,-2.8065,-2.8065,-2.7978,-2.8192,-2.8241,-2.8135,-2.8252,-2.8291,-2.8408,-2.8291,-2.8291,-2.8447,-2.876,-2.9121,-2.9414,-2.9531,-3.0059,-3.0664,0.0,0.0,0.0,0.0,0.0,0.0,0.0,0.0,0.0,0.0,0.0,0.0,-3.2398,-3.2398,-3.2398,-3.2398,-3.2398,-3.2398,-3.2398,-3.2398,-3.2398,-3.2398,-3.2398,0.0,-3.2079,-3.0674,-2.9889,0.0,0.0,0.0,-2.7523,-2.7523,-2.7824,-2.8333,-2.8333,-2.8333,-2.8373,0.0,0.0,0.0,-2.9235,-2.9235,-2.9235,-2.9274,-2.9261,-2.9314,-2.9889,-3.0111,-3.0215,-3.0764,-3.1326,-3.1797,-3.1797,-3.2189,-3.2659,0.0,0.0,0.0,0.0,0.0,0.0,0.0,0.0,0.0,0.0,0.0,-2.8017,-3.0327,-3.0024,-2.9487,-2.9973,-3.0067,-3.0212,-3.0646,-3.0729,-3.0884,-3.135,-3.1391,-3.1381,-3.1412,-3.1008,-3.0895,-3.134,-3.0563,-3.0212,-3.0657,-3.0031,-2.9448,-2.9132,-2.8834,-2.8737,-2.8737,-2.8398,-2.8408,-2.8737,-2.8006,-2.749,-2.708,-2.7367,-2.7265,-2.709,-2.7717,-2.7904,-2.7725,-2.8125,-2.8408,-2.8621,-2.8408,-2.8408,-2.867,-2.8868,-2.8926,-2.9004,-2.9414,-2.9853,-3.0234,0.0,0.0,0.0,0.0,0.0,0.0,0.0,0.0,0.0,0.0,0.0,0.0,0.0,-3.2398,-3.2398,-3.2398,-3.2398,-3.2398,-3.2398,-3.2398,-3.2398,-3.2398,-3.2342,-3.2064,-3.158,-3.0435,-2.9642,0.0,0.0,-2.7523,-2.7523,-2.7523,-2.7641,-2.785,-2.8216,-2.8595,-2.8974,-2.9196,-2.9497,-2.9823,-2.9823,-2.9823,-2.9862,-3.0228,-3.015,-2.9902,-3.0477,-3.0921,-3.1209,-3.1039,-3.1365,-3.1771,-3.1405,-3.1431,-3.1679,-3.2045,-3.215,-3.2072,0.0,0.0,0.0,0.0,0.0,0.0,-2.8596,-2.888,-2.9124,-2.939,-2.9613,-2.97,-2.9174,-2.9591,-3.0056,-3.0212,-3.0243,-3.0398,-3.0864,-3.0677,-3.0594,-3.0895,-3.0522,-3.0315,-3.047,-3.0191,-3.0067,-3.0232,-2.9867,-2.9554,-2.9448,-2.887,-2.864,-2.892,-2.8162,-2.7668,-2.7584,-2.7521,-2.7456,-2.7307,-2.751,-2.7612,-2.752,-2.7568,-2.7693,-2.7875,-2.8127,-2.8354,-2.8727,-2.8621,-2.8727,-2.894,-2.8789,-2.8908,-2.9144,-2.8908,-2.9189,-2.9795,0.0,0.0,0.0,0.0,0.0,0.0,0.0,0.0,0.0,-3.2492,0.0,0.0,0.0,0.0,-3.2398,-3.2398,-3.2398,-3.2398,-3.2398,-3.2398,-3.2398,-3.2398,-3.2287,-3.2064,-3.1537,-3.0435,-2.9642,0.0,0.0,0.0,0.0,-2.802,-2.8216,-2.8425,-2.8804,-2.9078,0.0,-2.9693,-3.0072,-3.0398,-3.0215,-3.0255,-3.0438,-3.062,-3.0581,-3.0464,-3.0856,-3.1235,-3.1496,-3.1117,-3.1248,-3.1483,-3.1104,-3.0986,-3.1104,-3.1666,-3.1759,-3.1759,-3.1668,0.0,0.0,0.0,0.0,-2.8656,-2.9022,-2.9253,-2.9361,-2.9534,-2.9626,-2.9505,-2.9141,-2.9621,-2.9982,-2.9839,-2.9891,-3.0098,-3.0408,-3.0191,-3.0108,-3.0419,-3.018,-2.9994,-2.9994,-2.9994,-2.9994,-2.9994,-2.9735,-2.9434,-2.9339,-2.8857,-2.8619,-2.8795,-2.7981,-2.734,-2.6807,-2.709,-2.7102,-2.6963,-2.7371,-2.7481,-2.7381,-2.7573,-2.7692,-2.7749,-2.8038,-2.8416,-2.8834,-2.8834,-2.9036,-2.9237,-2.8834,-2.8916,-2.9134,-2.8506,-2.8828,-2.9551,0.0,0.0,0.0,0.0,0.0,0.0,0.0,0.0,-3.3662,-3.2578,0.0,0.0,0.0,0.0,0.0,-3.2398,-3.2398,-3.2398,-3.2398,-3.2413,-3.2428,-3.2428,-3.2444,-3.2404,-3.2252,-3.0851,-3.0007,0.0,0.0,0.0,0.0,0.0,-2.9575,-3.0111,-3.0124,-2.9823,-2.9379,-3.0503,-3.0986,-3.0934,-3.0385,-3.049,-3.0934,-3.0372,-3.0503,-3.0986,-3.0986,-3.0986,-3.0986,-3.0986,-3.0986,-3.0986,-3.0986,-3.0986,-3.1091,-3.1653,-3.1823,-3.1823,0.0,0.0,0.0,0.0,0.0,0.0,-2.9585,-2.888,-2.8818,-3.1013,-2.9977,-2.8914,-2.9958,-3.0144,-2.9914,-2.939,-2.9766,-3.0078,-3.0078,-3.0078,-2.9973,-2.9973,-2.9973,-2.9973,-2.9953,-2.9973,-2.9984,-2.9953,-2.9549,-2.9209,-2.8901,-2.8901,-2.8664,-2.8097,-2.7913,-2.7392,-2.6377,-2.6656,-2.6527,-2.6091,-2.6699,-2.6805,-2.6526,-2.7699,-2.7762,-2.719,-2.8065,-2.8689,-2.9092,-2.9102,-2.9333,-2.9554,-2.894,-2.8737,-2.8727,-2.8408,-2.8828,-2.9492,0.0,0.0,0.0,0.0,0.0,0.0,-3.4897,-3.4418,-3.3957,0.0,0.0,0.0,-3.2398,-3.2398,-3.2398,-3.2398,-3.2398,-3.2398,-3.2398,-3.2844,-3.3121,-3.3121,-3.3614,-3.3775,-3.3482,-3.2644,-3.1748,0.0,0.0,0.0,0.0,0.0,0.0,0.0,-2.9954,-3.0045,-2.9954,-3.0673,-3.0986,-3.0973,-3.0817,-3.0843,-3.096,-3.0803,-3.0843,-3.0986,-3.0986,-3.0986,-3.0986,-3.0986,-3.0986,-3.0986,-3.0986,-3.0986,-3.1013,-3.1169,-3.1222,-3.1222,-3.1222,0.0,0.0,0.0,0.0,0.0,-3.0891,-3.0532,-3.0331,-3.1052,-3.0688,-3.0194,-3.0193,-3.0416,-3.0604,-3.0454,-3.1116,-3.1473,-3.0669,-3.0669,-3.0365,-2.96,-2.9497,-2.9363,-2.9032,-2.9601,-2.9715,-2.9052,-2.9187,-2.9156,-2.8724,-2.8714,-2.8215,-2.7276,-2.7527,-2.7317,-2.6493,-2.6784,-2.682,-2.6699,-2.6986,-2.7167,-2.7081,-2.7242,-2.7272,-2.7367,-2.771,-2.8076,-2.8523,-2.8859,-2.9278,-2.9889,-2.9459,-2.9353,-2.9353,-2.9026,-2.9074,-2.9441,0.0,0.0,0.0,0.0,0.0,-3.6538,-3.5224,-3.4555,-3.3868,0.0,0.0,0.0,-3.2398,-3.2398,-3.2398,-3.2398,-3.2659,-3.2813,-3.2813,-3.346,-3.3844,-3.3844,-3.4245,-3.4342,-3.4089,-3.3363,-3.2523,0.0,0.0,0.0,0.0,0.0,0.0,0.0,0.0,0.0,-3.0516,-3.0843,-3.0986,-3.0986,-3.0986,-3.0986,-3.0986,-3.0986,-3.0986,-3.0986,-3.0986,-3.0986,-3.0986,-3.0986,-3.1143,-3.13,-3.1065,-3.1143,-3.13,-3.1052,-3.0986,-3.0986,-3.0986,-3.0986,-3.0986,-3.0986,0.0,0.0,-3.1009,-3.0855,-3.0719,-3.0844,-3.0422,-3.0071,-3.0062,-3.0489,-3.0828,-3.0828,-3.2085,-3.2547,-3.13,-3.0756,-3.0283,-2.9706,-2.9213,-2.8907,-2.8638,-2.9104,-2.9197,-2.8649,-2.868,-2.8607,-2.8338,-2.8152,-2.7796,-2.7176,-2.7237,-2.7049,-2.6496,-2.6805,-2.69,-2.69,-2.7177,-2.7262,-2.7262,-2.7266,-2.74,-2.7472,-2.7657,-2.7996,-2.8348,-2.8614,-2.9096,-2.9725,-2.9587,-2.9554,-2.9554,-2.9237,-2.921,-2.9372,0.0,0.0,-3.7973,-3.7708,-3.7253,-3.6515,-3.5305,-3.4484,-3.3722,0.0,-3.2552,-3.2505,-3.2505,-3.2567,-3.2659,-3.2736,-3.329,-3.366,-3.3737,-3.4414,-3.4783,-3.4706,-3.4768,-3.4708,-3.4422,-3.3711,-3.2855,0.0,0.0,0.0,0.0,0.0,0.0,0.0,0.0,0.0,0.0,-3.0986,-3.0986,-3.0986,-3.0986,-3.0986,-3.0986,-3.0986,-3.0986,-3.0986,-3.0986,-3.0986,-3.0986,-3.0986,-3.1326,-3.1653,-3.1143,-3.1339,-3.164,-3.113,-3.0986,-3.0999,-3.1065,-3.1078,-3.1091,-3.1156,-3.1169,0.0,-3.0791,-3.0676,-3.0663,-3.0918,-3.0138,-2.9651,-3.0206,-3.0748,-3.1098,-3.1098,-3.271,-3.3322,-3.1808,-3.0841,-3.0284,-3.0187,-2.9405,-2.8802,-2.8749,-2.8744,-2.8765,-2.8661,-2.8079,-2.7852,-2.7852,-2.7479,-2.7352,-2.7549,-2.7191,-2.6794,-2.6592,-2.6805,-2.69,-2.6996,-2.7177,-2.7262,-2.7272,-2.7665,-2.7634,-2.7282,-2.7676,-2.811,-2.8545,-2.8597,-2.8918,-2.9425,-2.961,-2.9659,-2.9659,-2.9343,-2.9317,-2.9441,0.0,0.0,-3.8299,-3.6636,-3.722,-3.7329,-3.5521,-3.4657,-3.4202,-3.4098,-3.3567,-3.3198,-3.3198,-3.3721,-3.4291,-3.4829,-3.4999,-3.5306,-3.5845,-3.6538,-3.6661,-3.6122,-3.6615,-3.652,-3.5657,-3.5501,-3.4897,0.0,0.0,0.0,0.0,0.0,0.0,0.0,0.0,0.0,0.0,-3.0986,-3.0986,-3.0986,-3.0986,-3.0986,-3.0986,-3.0986,-3.0986,-3.0986,-3.0986,-3.0986,-3.0986,-3.0986,-3.1065,-3.113,-3.1013,-3.1065,-3.113,-3.1013,-3.0986,-3.1091,-3.1548,-3.1666,-3.1784,-3.2241,-3.2359,0.0,-3.288,-3.2313,-3.2034,-3.2951,-3.2273,-3.1801,-3.2374,-3.2934,-3.3295,-3.3295,-3.3671,-3.3479,-3.2277,-3.1991,-3.1599,-3.0773,-3.0492,-3.024,-2.9951,-2.9803,-2.9462,-2.878,-2.7905,-2.7386,-2.7386,-2.7303,-2.7303,-2.7386,-2.7314,-2.7167,-2.7167,-2.7167,-2.7262,-2.7262,-2.7262,-2.7262,-2.7262,-2.7345,-2.7345,-2.7262,-2.7345,-2.7645,-2.809,-2.8462,-2.9104,-2.987,-2.9953,-2.9889,-2.9879,-2.9889,-2.9966,-2.9971,-3.7973,-3.8481,-3.8486,-3.6854,-3.767,-3.7864,-3.5705,-3.5291,-3.5086,-3.4589,-3.446,-3.4568,-3.4906,-3.5276,-3.5614,-3.5953,-3.5984,-3.6276,-3.6953,-3.7307,-3.7507,-3.7507,-3.7428,-3.7131,-3.6587,-3.6125,-3.5415,-3.4447,0.0,0.0,0.0,0.0,0.0,0.0,0.0,0.0,0.0,-3.0986,-3.1143,-3.1392,-3.1104,-3.0986,-3.0986,-3.0986,-3.0986,-3.0986,-3.0986,-3.0986,-3.0986,-3.0986,-3.1365,-3.1744,-3.1169,-3.1378,-3.1784,-3.1496,-3.1418,-3.1535,-3.211,-3.2267,-3.2333,-3.262,-3.2685,0.0,0.0,-3.282,-3.2735,-3.2746,-3.2777,-3.2723,-3.229,-3.2918,-3.3483,-3.3483,-3.3244,-3.3171,-3.3445,-3.2398,-3.1424,-3.089,-3.0328,-2.9953,-2.9802,-3.002,-2.9989,-2.9485,-2.8538,-2.7998,-2.7998,-2.7536,-2.7262,-2.7262,-2.7262,-2.7262,-2.7262,-2.7262,-2.7262,-2.7262,-2.7262,-2.7262,-2.7262,-2.7262,-2.7262,-2.7272,-2.7489,-2.7852,-2.8307,-2.8763,-2.9363,-2.9994,-2.9994,-2.9994,-2.9994,-2.9994,-2.9928,-2.987,-3.8278,-3.8684,-3.8638,-3.7519,-3.7953,-3.7866,-3.6055,-3.5951,-3.5792,-3.5007,-3.546,-3.6076,-3.663,-3.6799,-3.6984,-3.7246,-3.7153,-3.7353,-3.8046,-3.7969,-3.8077,-3.8492,-3.7717,-3.7345,-3.7403,-3.6425,-3.5609,-3.4986,0.0,0.0,0.0,0.0,0.0,0.0,0.0,0.0,0.0,-3.1271,-3.1418,-3.1797,-3.1339,-3.1209,-3.13,-3.1196,-3.1143,-3.1143,-3.1026,-3.0986,-3.0999,-3.1117,-3.1771,-3.2385,-3.1575,-3.1954,-3.2594,-3.215,-3.2006,-3.2136,-3.2712,-3.2868,-3.2894,-3.2999,-3.3025,-3.2945,0.0,0.0,0.0,-3.2306,-3.2848,-3.3035,-3.1958,-3.2554,-3.3206,-3.3093,-3.2855,-3.3131,-3.4387,-3.2684,-3.1331,-3.1537,-3.047,-2.9794,-3.0185,-3.0427,-3.0545,-3.017,-2.953,-2.909,-2.9002,-2.8269,-2.7904,-2.7904,-2.762,-2.7536,-2.7536,-2.7357,-2.7262,-2.7262,-2.7262,-2.7262,-2.7262,-2.7345,-2.7386,-2.7407,-2.7862,-2.8317,-2.8773,-2.9145,-2.958,-2.9994,-2.9994,-2.9994,-2.9994,-2.9994,-2.9879,-2.9659,-3.958,-3.9377,-3.8806,-3.8168,-3.7206,-3.6653,-3.7123,-3.6263,-3.5749,-3.6184,-3.6861,-3.7292,-3.7384,-3.7923,-3.8769,-3.9955,-3.9524,-3.9462,-4.0139,-3.9616,-3.9046,-3.8539,-3.7861,-3.772,-3.8121,-3.7299,-3.6738,-3.6496,-3.6342,0.0,0.0,0.0,0.0,0.0,-3.3211,0.0,0.0,-3.2249,-3.1707,-3.1759,-3.1694,-3.2045,-3.245,-3.194,-3.1744,-3.1679,-3.1169,-3.0986,-3.1065,-3.1575,-3.1836,-3.2006,-3.2385,-3.2581,-3.2685,-3.262,-3.2594,-3.2725,-3.3326,-3.3496,-3.36,-3.4084,-3.4201,-3.4201,-3.4201,0.0,-3.3875,-3.3546,0.0,-3.3275,-3.2991,0.0,0.0,-3.3156,-3.3847,-3.4336,-3.4035,-3.332,-3.3158,-3.4132,-3.2424,-3.1717,-3.3195,-3.2633,-3.1644,-3.0295,-3.0491,-3.0548,-3.0102,-2.9897,-2.9897,-2.9897,-2.8991,-2.8538,-2.8538,-2.7715,-2.7262,-2.7262,-2.7262,-2.7262,-2.7272,-2.7665,-2.7852,-2.7872,-2.8328,-2.8794,-2.9228,-2.929,-2.958,-2.9994,-2.9994,-2.9994,-2.9994,-2.9994,-2.9994,-2.9994,-3.8954,-3.892,-3.8723,-3.7797,-3.8133,-3.8286,-3.7574,-3.7002,-3.6892,-3.7569,-3.7908,-3.8231,-3.8631,-3.9277,-3.9908,-4.0478,-3.9554,-3.9385,-4.0462,-3.9524,-3.9154,-3.9662,-3.8831,-3.8284,-3.8111,-3.757,-3.7037,-3.658,-3.6903,0.0,0.0,0.0,0.0,0.0,-3.481,-3.3991,-3.3424,-3.2742,-3.2405,-3.2333,-3.2333,-3.2685,-3.3077,-3.1823,-3.1352,-3.1352,-3.1444,-3.1483,-3.1575,-3.2136,-3.2777,-3.3247,-3.2829,-3.3378,-3.4071,-3.3417,-3.343,-3.3809,-3.441,-3.4332,-3.4201,-3.4776,-3.4659,-3.4397,-3.4397,-3.4504,-3.4392,-3.379,0.0,0.0,0.0,0.0,0.0,0.0,-3.3671,-3.3909,-3.4324,-3.3332,-3.2867,-3.3671,-3.2641,-3.2277,-3.3319,-3.3332,-3.2916,-3.1937,-3.1812,-3.1612,-3.1015,-3.0531,-3.017,-3.017,-2.9806,-2.9268,-2.8724,-2.8269,-2.7809,-2.7262,-2.7262,-2.7396,-2.7655,-2.7841,-2.8069,-2.8349,-2.8814,-2.9125,-2.9321,-2.9591,-2.9818,-2.9994,-2.9994,-2.9994,-2.9994,-2.9994,-2.9994,-2.9994,-3.9428,0.0,-3.9379,-3.8689,-3.921,-3.9194,-3.77,-3.7661,-3.7954,-3.8446,-3.8508,-3.8769,-3.9447,-4.0293,-4.0893,-4.1078,-4.0201,-3.9878,-4.0493,-3.9431,-3.9062,-3.9677,-3.913,-3.8757,-3.8452,-3.8031,-3.7601,-3.7218,-3.7533,0.0,0.0,0.0,0.0,0.0,0.0,-3.5068,-3.4145,-3.3533,-3.3176,-3.3048,-3.2607,-3.2725,-3.2986,-3.1875,-3.1352,-3.13,-3.1862,-3.2071,-3.2163,-3.2738,-3.3496,-3.4058,-3.3378,-3.4031,-3.4881,-3.4058,-3.4084,-3.4528,-3.5142,-3.4972,-3.475,-3.5195,-3.4959,-3.4607,-3.4437,-3.4686,-3.4813,-3.4131,-3.4576,0.0,0.0,0.0,-3.4022,-3.3721,0.0,-3.3759,-3.4399,-3.3445,-3.2893,-3.3458,-3.3156,-3.3006,-3.3269,-3.3935,-3.3997,-3.3144,-3.3054,-3.2621,-3.1807,-3.1264,-3.0979,-3.0979,-3.0711,-3.026,-2.9543,-2.9002,-2.8351,-2.7726,-2.7841,-2.8084,-2.8399,-2.8945,-2.9144,-2.9305,-2.9779,-2.9785,-2.9518,-2.986,-2.9994,-2.9994,-2.9994,-2.9994,-2.9994,-2.9994,-2.9994,-2.9994,-4.2168,-4.1593,-4.1356,-4.2013,-4.0062,-3.8152,-3.7575,-3.8061,-3.8492,-3.8508,-3.8508,-3.8769,-3.9447,-4.0739,-4.1832,-4.2479,-4.2494,-4.1925,-4.0616,-3.9878,-3.8923,-3.7646,-3.82,-3.8831,-3.9477,-3.9101,-3.8948,-3.8903,-3.8557,0.0,0.0,0.0,0.0,0.0,-3.7168,-3.6562,-3.6953,-3.474,-3.3949,-3.3952,-3.2435,-3.1798,-3.1954,-3.245,-3.2293,-3.1888,-3.2463,-3.2659,-3.2751,-3.3365,-3.3587,-3.3705,-3.4188,-3.4384,-3.441,-3.4384,-3.4384,-3.4528,-3.5142,-3.5286,-3.5273,-3.5299,-3.5286,-3.5116,-3.4528,-3.4868,-3.5115,-3.4658,-3.5032,-3.5251,-3.4765,-3.4675,-3.4349,-3.3269,-3.3985,0.0,0.0,-3.3884,-3.4048,-3.46,-3.465,-3.4437,-3.3922,-3.4851,-3.4826,-3.3206,-3.4085,-3.3884,-3.2243,-3.2682,-3.2982,-3.2982,-3.2077,-3.1536,-3.1536,-2.9635,-2.8724,-2.8631,-2.9194,-2.9423,-2.9467,-3.1456,-3.1799,-3.0854,-3.1345,-3.097,-2.9973,-2.9984,-2.9994,-2.9994,-2.9994,-2.9994,-2.9994,-2.9994,-2.9994,-2.9994,0.0,-4.2844,-4.2412,-4.1744,-4.0533,-3.9614,-3.9524,-3.9323,-3.9508,-4.0432,-4.0139,-4.0616,-4.2648,-4.2894,-4.3356,-4.4479,-4.3371,-4.2586,-4.254,-4.1063,-4.0201,-4.0216,-3.9849,-3.955,-3.9184,-3.9773,-3.9647,-3.8602,-3.9361,0.0,0.0,0.0,0.0,0.0,0.0,-3.8105,-3.662,-3.6728,-3.6014,-3.4727,-3.4014,-3.356,-3.3135,-3.2843,-3.2568,-3.2476,-3.3077,-3.3287,-3.3378,-3.3927,-3.4384,-3.4685,-3.4463,-3.492,-3.5378,-3.462,-3.4672,-3.5038,-3.5247,-3.5012,-3.4881,-3.5639,-3.5561,-3.5338,-3.5495,-3.5605,-3.5587,-3.5236,-3.5137,-3.5085,-3.4726,-3.4726,-3.46,-3.4223,-3.4788,-3.4951,0.0,-3.3583,-3.3696,-3.4613,-3.4399,-3.4248,-3.4424,-3.4449,-3.4073,-3.3144,-3.3068,-3.2817,-3.224,-3.2403,-3.2679,-3.3068,-3.2797,-3.2264,-3.1625,-3.1309,-3.0836,-3.0213,-3.0804,-3.1213,-3.1553,-3.2185,-3.2517,-3.2352,-3.1814,-3.1381,-3.0981,-3.0287,-2.9994,-2.9994,-2.9994,-2.9994,-2.9994,-2.9994,-2.9994,-2.9994,-4.3826,-4.3606,-4.3086,-4.2178,-4.1296,-4.0603,-4.0232,-4.0153,-4.0442,-4.1093,-4.1247,-4.2109,-4.4326,-4.4402,-4.4741,-4.5849,-4.4772,-4.3895,-4.3587,-4.234,-4.1423,-4.1091,-4.0591,-3.9886,-3.8994,-3.9914,-3.9836,-3.8892,-4.0156,-4.0651,0.0,0.0,0.0,0.0,0.0,-3.94,-3.7107,-3.7886,-3.7359,-3.587,-3.5742,-3.5287,-3.4588,-3.3978,-3.3489,-3.3091,-3.3679,-3.3875,-3.3927,-3.428,-3.4659,-3.4907,-3.4515,-3.4894,-3.5351,-3.462,-3.4672,-3.5064,-3.5469,-3.5299,-3.5234,-3.6188,-3.6162,-3.6005,-3.6345,-3.6348,-3.6171,-3.5903,-3.5801,-3.5645,-3.5072,-3.513,-3.5177,-3.4879,-3.519,-3.5228,0.0,-3.3884,-3.3997,-3.4901,-3.4525,-3.4261,-3.4412,-3.4462,-3.3922,-3.2579,-3.2503,-3.234,-3.1938,-3.2102,-3.2478,-3.3056,-3.3081,-3.2897,-3.2457,-3.2394,-3.2194,-3.1844,-3.2359,-3.2781,-3.3121,-3.3598,-3.3859,-3.3697,-3.2588,-3.1982,-3.1472,-3.0391,-2.9994,-2.9994,-2.9994,-2.9994,-2.9994,-2.9994,-2.9994,-2.9994,-4.4519,-4.3927,-4.342,-4.342,-4.23,-4.0967,-3.9785,-4.0686,-4.1366,-4.087,-4.1986,-4.334,-4.4726,-4.5403,-4.6003,-4.668,-4.668,-4.5834,-4.3895,-4.3664,-4.2683,-4.0481,-4.0399,-4.0008,-3.9161,-3.9571,-3.9817,-3.9787,-4.086,-4.1728,0.0,0.0,0.0,0.0,-4.1444,-4.0352,-3.8482,-3.8414,-3.8104,-3.7485,-3.7301,-3.6802,-3.6197,-3.585,-3.4942,-3.3855,-3.4214,-3.4397,-3.4397,-3.4397,-3.4397,-3.4397,-3.4397,-3.4397,-3.4397,-3.4397,-3.4397,-3.4633,-3.573,-3.6018,-3.6175,-3.6802,-3.6959,-3.6972,-3.7037,-3.705,-3.6961,-3.6664,-3.6895,-3.6749,-3.5622,-3.5999,-3.6087,-3.5261,-3.5294,-3.5316,-3.4801,-3.4675,-3.4851,-3.5349,-3.5014,-3.45,-3.4022,-3.4851,-3.4311,-3.1637,-3.2378,-3.2503,-3.1449,-3.1913,-3.2478,-3.3056,-3.3081,-3.3345,-3.3884,-3.2959,-3.2774,-3.3433,-3.3965,-3.4207,-3.4231,-3.5717,-3.5858,-3.4787,-3.3697,-3.27,-3.1677,-3.0495,-2.9994,-3.0088,-2.9994,-2.9994,-2.9994,-2.9994,-2.9994,-2.9994,-4.3724,-4.3555,-4.342,-4.342,-4.2303,-4.1319,-4.1096,-4.179,-4.2989,-4.4787,-4.5357,-4.648,-4.8866,-4.8358,-4.8127,-4.8835,-4.7942,-4.7127,-4.6603,-4.5157,-4.4019,-4.3273,-4.2294,-4.1538,-4.1021,-4.1565,-4.1581,-4.095,-4.1775,-4.1953,-4.1639,0.0,0.0,0.0,0.0,-4.1459,-3.923,-4.0219,-3.995,-3.8844,-3.8179,-3.7792,-3.758,-3.6838,-3.6328,-3.5916,-3.4815,-3.4397,-3.4397,-3.4397,-3.4397,-3.4397,-3.4397,-3.4397,-3.4397,-3.4397,-3.4397,-3.4463,-3.4763,-3.4842,-3.5077,-3.6083,-3.6332,-3.6567,-3.7469,-3.7678,-3.7573,-3.7285,-3.6948,-3.6689,-3.637,-3.6214,-3.5991,-3.6024,-3.5378,-3.4889,-3.4738,-3.401,-3.3859,-3.4813,-3.4449,-3.4374,-3.5064,-3.4274,-3.3244,-3.2089,-3.1537,-3.1286,-3.1386,-3.1913,-3.2478,-3.3056,-3.3081,-3.3345,-3.3884,-3.4018,-3.44,-3.4947,-3.5494,-3.5849,-3.5849,-3.62,-3.6263,-3.587,-3.3993,-3.3499,-3.3773,-3.1094,-3.0495,-3.1084,-3.0297,-2.9994,-2.9994,-2.9994,-2.9994,-2.9994,-4.3995,-4.4198,-4.4333,-4.4022,-4.3575,-4.3202,-4.2926,-4.345,-4.4468,-4.6004,-4.6927,-4.8065,-4.962,-4.9358,-4.9251,-4.9651,-4.8681,-4.7912,-4.7635,-4.6542,-4.5556,-4.474,-4.3425,-4.2437,-4.1701,-4.1746,-4.1671,-4.1384,-4.2043,-4.2462,-4.2656,0.0,0.0,0.0,0.0,-4.2462,-4.0307,-4.0756,-4.0531,-3.974,-3.9003,-3.8738,0.0,-3.7782,-3.7462,-3.7232,-3.5588,-3.495,-3.4868,-3.4564,-3.4397,-3.4397,-3.4397,-3.4397,-3.4397,-3.4397,-3.458,-3.4842,-3.5077,-3.5338,-3.5757,-3.6658,-3.6894,-3.7129,-3.8044,-3.807,-3.79,-3.7716,-3.7131,-3.647,-3.6122,-3.5978,-3.602,-3.6377,-3.5642,-3.509,-3.509,-3.455,-3.4387,-3.5014,-3.5027,-3.5127,-3.5504,-3.4048,-3.2641,-3.1587,-3.1386,-3.1336,-3.1386,-3.2152,-3.2742,-3.3068,-3.3307,-3.3709,-3.4248,-3.4801,-3.5353,-3.5906,-3.6219,-3.6358,-3.6358,-3.6358,-3.6358,-3.6263,-3.4581,-3.4288,-3.4581,-3.1779,-3.1084,-3.1472,-3.0391,-2.9994,-2.9994,-2.9994,-2.9994,-2.9994,-4.4993,-4.5331,-4.5538,-4.495,-4.534,-4.553,-4.4976,-4.5357,-4.5762,-4.5958,-4.7681,-4.885,-4.8758,-4.9389,-4.9743,-4.9558,-4.8974,-4.8358,-4.7773,-4.7573,-4.6877,-4.5458,-4.4129,-4.2985,-4.2017,-4.1353,-4.1189,-4.1715,-4.2194,-4.2985,0.0,0.0,0.0,0.0,0.0,0.0,-4.1339,-4.0681,-4.0397,-4.0352,-3.9783,-3.9544,-3.9471,-3.8781,-3.8425,-3.8113,-3.661,-3.591,-3.5588,-3.4716,-3.4397,-3.4397,-3.4397,-3.445,-3.4515,-3.4515,-3.4933,-3.5508,-3.5979,-3.6488,-3.7037,-3.7639,-3.7782,-3.7926,-3.8475,-3.824,-3.79,-3.79,-3.7235,-3.6417,-3.5618,-3.566,-3.5881,-3.6163,-3.5755,-3.5416,-3.5341,-3.5391,-3.5466,-3.5449,-3.5906,0.0,-3.5579,-3.411,-3.2554,-3.1047,-3.1725,-3.2001,-3.1524,-3.2503,-3.3081,-3.3081,-3.3608,-3.4161,-3.4713,-3.5265,-3.5818,-3.6358,-3.6358,-3.6358,-3.6358,-3.6358,-3.6358,-3.6358,-3.5271,-3.4872,-3.4872,-3.2678,-3.1779,-3.1472,-3.0391,-2.9994,-2.9994,-2.9994,-2.9994,-2.9994,-4.643,-4.6024,-4.5673,-4.5537,-4.5604,-4.5757,-4.6158,-4.6372,-4.6839,-4.7927,-4.9389,-5.0112,-4.9558,-5.0112,-5.0051,-4.8897,-4.8681,-4.8558,-4.845,-4.7388,-4.6585,-4.6116,-4.4816,-4.3976,-4.3638,-4.2757,-4.2665,-4.3344,-4.2659,-4.2761,-4.3509,0.0,0.0,0.0,0.0,0.0,-4.1339,-4.0681,-4.0397,-4.0382,-4.0277,-4.0232,-4.0232,-4.007,-3.9653,-3.9031,-3.8113,-3.6858,-3.5588,-3.4716,-3.4397,-3.4397,-3.4397,-3.4737,-3.5142,-3.5142,-3.5534,-3.5979,-3.607,-3.6188,-3.641,-3.7011,-3.7168,-3.7312,-3.7913,-3.7978,-3.79,-3.79,-3.7416,-3.6843,-3.6456,-3.5852,-3.5353,-3.508,-3.512,-3.4893,-3.4248,-3.4575,-3.5039,-3.5491,-3.5228,-3.5152,-3.5516,-3.4462,-3.3445,-3.2704,-3.2378,-3.2177,-3.2077,-3.2704,-3.3081,-3.3081,-3.3608,-3.4161,-3.4713,-3.5265,-3.5818,-3.6358,-3.6358,-3.6358,-3.6358,-3.6358,-3.6358,-3.6358,-3.5271,-3.5271,-3.5953,-3.3784,-3.2387,-3.1472,-3.0391,-2.9994,-2.9994,-2.9994,-2.9994,-2.9994,-4.7784,-4.7361,-4.6814,-4.6832,-4.7062,-4.7253,-4.7122,-4.7428,-4.7758,-4.805,-4.8974,-4.9358,-4.8681,-4.9543,-4.9743,-4.8696,-4.862,-4.862,-4.862,-4.8004,-4.7246,-4.6475,-4.5815,-4.5063,-4.4158,-4.3062,-4.2895,-4.369,-4.2588,-4.2629,-4.3838,-4.3494,-4.3524,0.0,0.0,-4.2671,-4.2327,-4.1339,-4.0905,-4.0905,-4.0905,-4.0905,-4.0905,-4.0905,-4.0711,-4.0353,-3.9481,-3.8667,-3.7686,-3.571,-3.5232,-3.5402,-3.5023,-3.526,-3.5717,-3.5717,-3.6123,-3.6567,-3.6567,-3.6802,-3.7103,-3.7403,-3.7469,-3.7547,-3.7835,-3.79,-3.79,-3.79,-3.7429,-3.6817,-3.625,-3.6045,-3.5788,-3.5335,-3.5575,-3.5575,-3.4826,-3.5228,-3.5567,-3.5554,-3.5567,-3.568,-3.5943,-3.5228,-3.4286,-3.3156,-3.3081,-3.283,-3.224,-3.3043,-3.337,-3.3081,-3.3884,-3.4449,-3.4726,-3.5554,-3.6094,-3.6358,-3.6358,-3.6358,-3.6358,-3.6358,-3.6358,-3.6358,-3.5858,-3.5966,-3.625,-3.4091,-3.2588,-3.1472,-3.0391,-2.9994,-2.9994,-2.9994,-2.9994,-2.9994,-4.8968,-4.8646,-4.8128,-4.8058,-4.8489,-4.8515,-4.7722,-4.8189,-4.8419,-4.7896,-4.8419,-4.8573,-4.7896,-4.8943,-4.9389,-4.8681,-4.862,-4.862,-4.862,-4.8343,-4.7711,-4.665,-4.6326,-4.5587,-4.4374,-4.3104,-4.2788,-4.3542,-4.2575,-4.2541,-4.3479,-4.3524,-4.3673,-4.3853,-4.2821,-4.2566,-4.2851,-4.1818,-4.1459,-4.1594,-4.1594,-4.1594,-4.1594,-4.1594,-4.1504,-4.1293,-4.0621,-4.0373,-3.9979,-3.7466,-3.6674,-3.6574,-3.57,-3.5848,-3.6292,-3.6292,-3.6724,-3.7194,-3.7194,-3.7547,-3.79,-3.79,-3.79,-3.79,-3.79,-3.79,-3.79,-3.79,-3.7429,-3.6817,-3.6237,-3.6148,-3.6032,-3.6037,-3.6172,-3.6037,-3.5742,-3.6094,-3.6194,-3.5768,-3.6094,-3.6358,-3.6358,-3.5968,-3.5127,-3.3709,-3.3784,-3.3508,-3.2616,-3.342,-3.3709,-3.3269,-3.4324,-3.4901,-3.4901,-3.5868,-3.6358,-3.6358,-3.6358,-3.6358,-3.6358,-3.6358,-3.6358,-3.6358,-3.6358,-3.6358,-3.625,-3.4091,-3.2689,-3.1779,-3.0495,-2.9994,-2.9994,-2.9994,-3.0056,-3.0139,-4.983,-4.9407,-4.8882,-4.8773,-4.8812,-4.8515,-4.7722,-4.8189,-4.8589,-4.8527,-4.9143,-4.9312,-4.8604,-4.922,-4.9389,-4.8681,-4.862,-4.862,-4.862,-4.7465,-4.6726,-4.6603,-4.5418,-4.471,-4.4587,-4.3487,-4.2955,-4.3092,-4.3082,-4.2342,-4.0816,-4.3135,-4.3614,-4.2536,-4.2417,-4.2058,-4.1549,-4.1429,-4.1728,-4.2267,-4.2267,-4.2267,-4.2267,-4.2267,-4.1893,-4.1384,-4.1293,-4.1293,-4.1111,-4.0071,-3.8689,-3.7267,-3.6366,-3.6436,-3.692,-3.692,-3.7351,-3.7821,-3.7821,-3.7861,-3.79,-3.79,-3.79,-3.79,-3.79,-3.79,-3.79,-3.79,-3.7429,-3.7065,-3.7259,-3.6298,-3.5691,-3.6497,-3.6029,-3.5658,-3.6251,-3.632,-3.6345,-3.6282,-3.6332,-3.6358,-3.6358,-3.632,-3.6019,-3.5366,-3.4437,-3.3859,-3.3746,-3.3847,-3.3872,-3.3822,-3.4901,-3.5466,-3.5466,-3.6056,-3.6358,-3.6358,-3.6358,-3.6358,-3.6358,-3.6358,-3.6358,-3.6358,-3.6358,-3.6358,-3.625,-3.4091,-3.3101,-3.2801,-3.0795,-2.9994,-2.9994,-2.9994,-3.0263,-3.0626,-5.071,-5.0524,-5.0303,-5.0241,-5.0194,-4.9937,-4.9111,-4.9233,-4.9163,-4.8702,-4.8866,-4.8943,-4.8635,-4.8866,-4.8927,-4.8635,-4.862,-4.862,-4.862,-4.8112,-4.745,-4.6634,-4.608,-4.5403,-4.4603,-4.3775,-4.3487,-4.3808,-4.3364,-4.2876,-4.2346,-4.2929,-4.2865,-4.2342,-4.1953,-4.1848,-4.1968,-4.1968,-4.2117,-4.2387,-4.2776,-4.294,-4.294,-4.294,-4.2776,-4.2551,-4.2551,-4.2551,-4.2395,-4.1544,-4.0117,-3.8642,-3.7731,-3.7484,-3.7547,-3.7547,-3.7717,-3.79,-3.79,-3.79,-3.79,-3.79,-3.79,-3.79,-3.79,-3.79,-3.79,-3.79,-3.7717,-3.7508,-3.7286,-3.6897,-3.6483,-3.6018,-3.6106,-3.61,-3.5855,-3.6157,-3.6358,-3.6358,-3.6358,-3.6358,-3.6358,-3.6358,-3.6408,-3.6521,-3.5516,-3.4738,-3.4412,-3.4073,-3.4048,-3.4387,-3.4826,-3.5203,-3.5542,-3.6094,-3.6358,-3.6358,-3.6358,-3.6358,-3.6358,-3.6358,-3.6358,-3.6358,-3.6358,-3.6358,-3.625,-3.4091,-3.3201,-3.3001,-3.0795,-2.9994,-2.9994,-2.9994,-3.0294,-3.0729,-5.1488,-5.1539,-5.1496,-5.1486,-5.1251,-5.0839,-5.0025,-4.971,-4.9325,-4.8687,-4.862,-4.862,-4.862,-4.862,-4.862,-4.862,-4.862,-4.862,-4.862,-4.8235,-4.7681,-4.6927,-4.6326,-4.5649,-4.4895,-4.4218,-4.3852,-4.3991,-4.3685,-4.3257,-4.2801,-4.2361,-4.2177,-4.2327,-4.1669,-4.1639,-4.2058,-4.1878,-4.2013,-4.2402,-4.2865,-4.3165,-4.3329,-4.3329,-4.3329,-4.3329,-4.3329,-4.3329,-4.317,-4.2578,-4.1425,-4.0125,-3.8947,-3.8332,-3.79,-3.79,-3.79,-3.79,-3.79,-3.79,-3.79,-3.79,-3.79,-3.79,-3.79,-3.79,-3.79,-3.79,-3.79,-3.7782,-3.7351,-3.7274,-3.7104,-3.625,-3.6373,-3.6455,-3.6031,-3.6219,-3.642,-3.6584,-3.6609,-3.6609,-3.6609,-3.6609,-3.6697,-3.6923,-3.6219,-3.5617,-3.5228,-3.4675,-3.4562,-3.4951,-3.5127,-3.5391,-3.578,-3.6169,-3.6358,-3.6358,-3.6358,-3.6358,-3.6358,-3.6358,-3.6358,-3.6358,-3.6358,-3.6358,-3.6263,-3.4385,-3.3499,-3.3001,-3.1197,-3.0297,-2.9994,-2.9994,-3.0367,-3.0936,-5.2147,-5.2283,-5.232,-5.2316,-5.1606,-5.0827,-5.0026,-4.9163,-4.8604,-4.862,-4.862,-4.862,-4.862,-4.862,-4.862,-4.862,-4.862,-4.862,-4.862,-4.7357,-4.6911,-4.7573,-4.5664,-4.491,-4.5557,-4.4757,-4.3945,-4.3288,-4.4119,-4.3253,-4.0736,-4.1235,-4.1743,-4.2327,-4.1669,-4.1384,-4.1354,-4.0696,-4.1175,-4.2357,-4.2372,-4.2761,-4.3329,-4.3329,-4.3329,-4.3329,-4.3329,-4.3329,-4.3329,-4.325,-4.2659,-4.163,-3.9798,-3.8639,-3.79,-3.79,-3.79,-3.79,-3.79,-3.79,-3.79,-3.79,-3.79,-3.79,-3.79,-3.79,-3.79,-3.79,-3.79,-3.79,-3.79,-3.7416,-3.7196,-3.7749,-3.6993,-3.6488,-3.7107,-3.6697,-3.6571,-3.7111,-3.7174,-3.7174,-3.7174,-3.7174,-3.6948,-3.6408,-3.6358,-3.6358,-3.6345,-3.5818,-3.5437,-3.5449,-3.6056,-3.6345,-3.6358,-3.6358,-3.6358,-3.6358,-3.6358,-3.6358,-3.6358,-3.6358,-3.6358,-3.6358,-3.6358,-3.6358,-3.6358,-3.5271,-3.419,-3.3101,-3.1982,-3.0888,-2.9994,-2.9994,-3.0584,-3.1371,-5.3078,-5.3129,-5.2977,-5.2416,-5.2076,-5.1459,-5.0104,-4.963,-4.9244,-4.8687,-4.862,-4.862,-4.862,-4.862,-4.862,-4.862,-4.862,-4.862,-4.862,-4.7773,-4.7173,-4.6927,-4.5849,-4.5157,-4.491,-4.4619,-4.4403,-4.4188,-4.4156,-4.3391,-4.1881,-4.203,-4.2162,-4.2327,-4.1669,-4.1624,-4.2028,-4.1818,-4.1728,-4.1773,-4.2656,-4.288,-4.2716,-4.3165,-4.3329,-4.3329,-4.3329,-4.3329,-4.3329,-4.3329,-4.2739,-4.1908,-4.1296,-4.0432,-3.9577,-3.897,-3.8805,-3.8639,-3.807,-3.79,-3.79,-3.79,-3.79,-3.79,-3.79,-3.79,-3.79,-3.79,-3.79,-3.79,-3.79,-3.7743,-3.7508,-3.7103,-3.6932,-3.6734,-3.6324,-3.6326,-3.642,-3.6596,-3.6621,-3.6621,-3.6621,-3.6621,-3.6709,-3.691,-3.6571,-3.6358,-3.6358,-3.5843,-3.5717,-3.6094,-3.5906,-3.5981,-3.6358,-3.6358,-3.6358,-3.6358,-3.6358,-3.6358,-3.6358,-3.6358,-3.6358,-3.6358,-3.6358,-3.6358,-3.6358,-3.5271,-3.4581,-3.4091,-3.2275,-3.1381,-3.0981,-3.0297,-3.0584,-3.1371,-5.3501,-5.3501,-5.3348,-5.2834,-5.2537,-5.1931,-5.0935,-5.0554,-5.001,-4.9163,-4.9066,-4.8918,-4.8604,-4.862,-4.862,-4.862,-4.862,-4.862,-4.862,-4.7973,-4.7419,-4.6988,-4.608,-4.5387,-4.4972,-4.471,-4.4572,-4.4572,-4.4205,-4.3527,-4.2731,-4.2731,-4.2731,-4.2701,-4.2043,-4.1833,-4.1983,-4.1728,-4.1534,-4.1444,-4.2282,-4.2656,-4.2776,-4.318,-4.3329,-4.3329,-4.3329,-4.3329,-4.3329,-4.3329,-4.2915,-4.2496,-4.2496,-4.2058,-4.1365,-4.0073,-3.9461,-3.9033,-3.8562,-3.8148,-3.79,-3.79,-3.79,-3.79,-3.79,-3.807,-3.8148,-3.7952,-3.79,-3.79,-3.79,-3.79,-3.7691,-3.7131,-3.7167,-3.7086,-3.6437,-3.6413,-3.6622,-3.6837,-3.6767,-3.6671,-3.6671,-3.6671,-3.6722,-3.686,-3.637,-3.6144,-3.6358,-3.6031,-3.6006,-3.6358,-3.6031,-3.6019,-3.6358,-3.6358,-3.6358,-3.6358,-3.6358,-3.6358,-3.6358,-3.6358,-3.6358,-3.6358,-3.6358,-3.6358,-3.6358,-3.5667,-3.5174,-3.4678,-3.3377,-3.2275,-3.1472,-3.0888,-3.0989,-3.1371,-5.3501,-5.3501,-5.3501,-5.3433,-5.2834,-5.2307,-5.2236,-5.1606,-5.0843,-5.0104,-4.9915,-4.9519,-4.8769,-4.862,-4.862,-4.862,-4.862,-4.862,-4.862,-4.7942,-4.7527,-4.7527,-4.6249,-4.5511,-4.5511,-4.491,-4.4572,-4.4587,-4.4205,-4.3738,-4.3329,-4.3329,-4.3329,-4.3299,-4.2611,-4.1983,-4.1414,-4.0741,-4.0816,-4.1384,-4.1489,-4.2222,-4.3269,-4.3314,-4.3329,-4.3329,-4.3329,-4.3329,-4.3329,-4.3329,-4.3329,-4.3329,-4.3329,-4.3329,-4.2996,-4.1197,-4.0073,-3.9373,-3.9285,-3.8639,-3.7992,-3.7992,-3.7926,-3.7965,-3.7965,-3.8344,-3.8566,-3.807,-3.7926,-3.79,-3.79,-3.79,-3.7808,-3.7611,-3.7505,-3.7413,-3.7201,-3.6909,-3.6912,-3.747,-3.7329,-3.7123,-3.7123,-3.7123,-3.691,-3.6408,-3.5893,-3.583,-3.6332,-3.6358,-3.6358,-3.6358,-3.6358,-3.6358,-3.6358,-3.6358,-3.6358,-3.6358,-3.6358,-3.6358,-3.6358,-3.6358,-3.6358,-3.6358,-3.6358,-3.6358,-3.6358,-3.6358,-3.5763,-3.4872,-3.4884,-3.3575,-3.1688,-3.1618,-3.1518,-3.1381,-5.3501,-5.3501,-5.328,-5.2677,-5.2466,-5.2076,-5.1459,-5.122,-5.107,-5.0843,-5.0245,-4.9789,-4.963,-4.9015,-4.862,-4.862,-4.862,-4.862,-4.862,-4.7496,-4.6834,-4.6834,-4.5541,-4.4818,-4.4818,-4.4664,-4.4496,-4.4358,-4.4281,-4.3972,-4.3596,-4.3596,-4.3518,-4.3284,-4.2117,-4.1803,-4.2087,-4.1429,-4.1235,-4.1474,-4.2476,-4.2761,-4.2641,-4.3135,-4.3329,-4.3329,-4.3329,-4.3329,-4.3329,-4.3329,-4.3329,-4.3329,-4.3329,-4.3329,-4.309,-4.1976,-4.1463,-4.1212,-4.0418,-3.9563,-3.8881,-3.8881,-3.8713,-3.8514,-3.8514,-3.8619,-3.8671,-3.8553,-3.8187,-3.79,-3.79,-3.79,-3.79,-3.7808,-3.7611,-3.7505,-3.74,-3.7015,-3.676,-3.6912,-3.6736,-3.6558,-3.6558,-3.6558,-3.6508,-3.637,-3.6245,-3.6219,-3.6358,-3.6358,-3.6358,-3.6358,-3.6358,-3.6358,-3.6358,-3.6358,-3.6358,-3.6358,-3.6358,-3.6358,-3.6358,-3.6358,-3.6358,-3.6358,-3.6358,-3.6358,-3.6358,-3.6358,-3.6263,-3.5966,-3.5078,-3.3981,-3.2745,-3.2299,-3.1806,-3.1422,-5.3501,-5.3501,-5.3348,-5.2903,-5.2834,-5.2677,-5.2291,-5.2203,-5.2059,-5.1696,-5.1236,-5.0859,-5.0477,-5.001,-4.9614,-4.9244,-4.8852,-4.862,-4.862,-4.7927,-4.7388,-4.7065,-4.6065,-4.5357,-4.5049,-4.4741,-4.4496,-4.4281,-4.4281,-4.4127,-4.3847,-4.3769,-4.3596,-4.3488,-4.2596,-4.2312,-4.2419,-4.1983,-4.1833,-4.1893,-4.2596,-4.2865,-4.2851,-4.321,-4.3329,-4.3329,-4.3329,-4.3329,-4.3329,-4.3329,-4.3329,-4.3329,-4.3329,-4.3329,-4.317,-4.2739,-4.2319,-4.1908,-4.138,-4.0246,-3.9189,-3.9037,-3.9031,-3.9115,-3.9115,-3.9115,-3.9037,-3.8762,-3.8279,-3.79,-3.79,-3.79,-3.79,-3.79,-3.7808,-3.7703,-3.7703,-3.7214,-3.6909,-3.6909,-3.664,-3.6358,-3.6358,-3.6358,-3.6358,-3.6358,-3.6119,-3.6094,-3.6358,-3.6119,-3.6107,-3.6358,-3.6358,-3.6358,-3.6358,-3.6358,-3.6358,-3.6358,-3.6358,-3.6358,-3.6358,-3.6358,-3.6358,-3.6358,-3.6358,-3.6358,-3.6358,-3.6358,-3.6358,-3.6358,-3.5763,-3.4872,-3.393,-3.3588,-3.2805,-3.1816,-5.3501,-5.3501,-5.3501,-5.3501,-5.3501,-5.3501,-5.3501,-5.3501,-5.328,-5.2607,-5.2395,-5.2076,-5.1385,-5.1145,-5.0843,-5.0182,-4.9309,-4.8769,-4.862,-4.8527,-4.8158,-4.7481,-4.6803,-4.6126,-4.5449,-4.4864,-4.4511,-4.4358,-4.4358,-4.4205,-4.3988,-4.3847,-4.369,-4.3596,-4.3319,-4.294,-4.2506,-4.2402,-4.2417,-4.2506,-4.2506,-4.2836,-4.3329,-4.3329,-4.3329,-4.3329,-4.3329,-4.3329,-4.3329,-4.3329,-4.3329,-4.3329,-4.3329,-4.3329,-4.3359,-4.3449,-4.2902,-4.2368,-4.2184,-4.093,-3.9468,-3.9031,-3.9249,-3.9586,-3.9494,-3.9547,-3.9468,-3.8945,-3.841,-3.8031,-3.8031,-3.7952,-3.7926,-3.7912,-3.7965,-3.7939,-3.7925,-3.7464,-3.7108,-3.7108,-3.664,-3.6358,-3.6358,-3.6358,-3.6358,-3.6358,-3.5931,-3.5868,-3.6332,-3.5918,-3.5881,-3.6345,-3.6358,-3.6358,-3.6358,-3.6358,-3.6358,-3.6358,-3.6358,-3.6358,-3.6358,-3.6358,-3.6358,-3.6358,-3.6358,-3.6358,-3.6358,-3.6358,-3.6358,-3.6358,-3.6358,-3.5763,-3.4787,-3.4871,-3.3769,-3.2328,-5.3501,-5.3501,-5.3501,-5.3501,-5.3501,-5.3501,-5.3501,-5.3501,-5.3433,-5.3348,-5.2677,-5.2236,-5.2148,-5.1533,-5.107,-5.0919,-5.0167,-4.9405,-4.8604,-4.8081,-4.7465,-4.6788,-4.6095,-4.5418,-4.4756,-4.4633,-4.4572,-4.4572,-4.4572,-4.4358,-4.3988,-4.3988,-4.3738,-4.3314,-4.2761,-4.2761,-4.315,-4.2596,-4.2671,-4.318,-4.318,-4.324,-4.3329,-4.3329,-4.3329,-4.3329,-4.3329,-4.3329,-4.3329,-4.3329,-4.3329,-4.3329,-4.3329,-4.3329,-4.3449,-4.4003,-4.4071,-4.379,-4.3239,-4.2117,-4.0993,-4.0196,-3.9801,-3.9481,-3.8972,-3.9246,-3.9586,-3.9494,-3.8998,-3.8593,-3.8593,-3.8214,-3.7964,-3.8246,-3.8028,-3.7977,-3.8259,-3.7603,-3.7108,-3.7108,-3.664,-3.6358,-3.6358,-3.6358,-3.6358,-3.6358,-3.6282,-3.627,-3.6358,-3.6282,-3.627,-3.6358,-3.6358,-3.6358,-3.6358,-3.6358,-3.6358,-3.6358,-3.6358,-3.6358,-3.6358,-3.6358,-3.6358,-3.6358,-3.6358,-3.6358,-3.6358,-3.6358,-3.6358,-3.6358,-3.6358,-3.5763,-3.4835,-3.5292,-3.4081,-3.2427,-5.3501,-5.3501,-5.3501,-5.3501,-5.3501,-5.3501,-5.3501,-5.3501,-5.3501,-5.3501,-5.3195,-5.2989,-5.2989,-5.2607,-5.2219,-5.1769,-5.1385,-5.0859,-4.9994,-4.8771,-4.8004,-4.7696,-4.668,-4.5649,-4.4603,-4.4926,-4.4941,-4.4572,-4.4572,-4.4511,-4.4358,-4.4205,-4.3972,-4.3645,-4.3265,-4.3139,-4.3314,-4.3015,-4.306,-4.3329,-4.3329,-4.3329,-4.3329,-4.3329,-4.3329,-4.3329,-4.3329,-4.3329,-4.3329,-4.3329,-4.3329,-4.3329,-4.3329,-4.3329,-4.3464,-4.4122,-4.4571,-4.4684,-4.3847,-4.3195,-4.2533,-4.137,-4.0938,-4.0611,-3.9786,-3.9847,-3.9965,-3.9677,-3.939,-3.9102,-3.8776,-3.8501,-3.8238,-3.8106,-3.7977,-3.7899,-3.8067,-3.7474,-3.7224,-3.7531,-3.7083,-3.681,-3.681,-3.681,-3.6684,-3.6383,-3.6358,-3.6358,-3.6358,-3.6358,-3.6358,-3.6358,-3.6358,-3.6358,-3.6358,-3.6358,-3.6358,-3.6358,-3.6358,-3.6358,-3.6358,-3.6358,-3.6358,-3.6358,-3.6358,-3.6358,-3.6358,-3.6358,-3.6358,-3.6358,-3.6358,-3.6248,-3.6098,-3.5965,-3.5397,-3.4475,-5.3501,-5.3501,-5.3501,-5.3501,-5.3501,-5.3501,-5.3501,-5.3501,-5.3501,-5.3501,-5.3501,-5.3501,-5.3501,-5.3501,-5.328,-5.2607,-5.2395,-5.2076,-5.1459,-4.9852,-4.8856,-4.8686,-4.7161,-4.588,-4.4833,-4.5172,-4.5095,-4.4572,-4.4572,-4.4587,-4.4511,-4.4358,-4.4143,-4.391,-4.3769,-4.3518,-4.3329,-4.3329,-4.3329,-4.3329,-4.3329,-4.3329,-4.3329,-4.3329,-4.3329,-4.3329,-4.3329,-4.3329,-4.3329,-4.3329,-4.3329,-4.3329,-4.3329,-4.3449,-4.3688,-4.4347,-4.5125,-4.5585,-4.4932,-4.4456,-4.3833,-4.2602,-4.2085,-4.1598,-4.0434,-4.0331,-4.0292,-3.9873,-3.9795,-3.9651,-3.9194,-3.8893,-3.8619,-3.8251,-3.807,-3.7952,-3.7977,-3.749,-3.742,-3.7985,-3.7571,-3.7333,-3.7472,-3.7472,-3.7245,-3.6596,-3.6653,-3.6603,-3.637,-3.6483,-3.6558,-3.6558,-3.6433,-3.642,-3.6546,-3.6558,-3.6558,-3.6558,-3.6684,-3.6609,-3.637,-3.6621,-3.6609,-3.637,-3.6496,-3.6483,-3.6358,-3.6358,-3.6358,-3.637,-3.6508,-3.681,-3.7149,-3.686,-3.6567,-3.6213,-5.3501,-5.3501,-5.3501,-5.3501,-5.3501,-5.3501,-5.3501,-5.3501,-5.3501,-5.3501,-5.3501,-5.3501,-5.3501,-5.3501,-5.3501,-5.3433,-5.2747,-5.2307,-5.2236,-5.0707,-4.9489,-4.8811,-4.6812,-4.5618,-4.5511,-4.4941,-4.4633,-4.4572,-4.4572,-4.4496,-4.4358,-4.4281,-4.4065,-4.369,-4.369,-4.3518,-4.3329,-4.3329,-4.3329,-4.3329,-4.3329,-4.3329,-4.3329,-4.3329,-4.3329,-4.3329,-4.3329,-4.3329,-4.3329,-4.3329,-4.3329,-4.3329,-4.3329,-4.3748,-4.4377,-4.5035,-4.6142,-4.716,-4.7058,-4.5961,-4.4484,-4.3525,-4.262,-4.149,-3.9961,-4.0056,-4.0409,-4.0357,-4.0357,-4.0344,-4.0292,-3.9429,-3.8786,-3.909,-3.8392,-3.799,-3.823,-3.7842,-3.7712,-3.8282,-3.7871,-3.7787,-3.8307,-3.8358,-3.8019,-3.7161,-3.7329,-3.7197,-3.6477,-3.6847,-3.7123,-3.7123,-3.6621,-3.6609,-3.7123,-3.7123,-3.7123,-3.7123,-3.7638,-3.7349,-3.6395,-3.7425,-3.7324,-3.6383,-3.691,-3.6835,-3.6358,-3.6358,-3.6358,-3.6408,-3.6923,-3.7149,-3.7249,-3.7713,-3.7208,-3.6423,-5.3501,-5.3501,-5.3501,-5.3501,-5.3501,-5.3501,-5.3501,-5.3501,-5.3501,-5.3501,-5.3501,-5.3501,-5.3501,-5.3501,-5.3501,-5.3501,-5.3212,-5.3058,-5.3058,-5.2004,-5.0386,-4.8151,-4.7256,-4.6449,-4.5603,-4.5341,-4.5003,-4.4572,-4.4572,-4.4572,-4.4511,-4.4511,-4.4358,-4.4065,-4.391,-4.3754,-4.3518,-4.3344,-4.3329,-4.3329,-4.3329,-4.3329,-4.3329,-4.3329,-4.3329,-4.3329,-4.3329,-4.3329,-4.3329,-4.3329,-4.3329,-4.3404,-4.3808,-4.4107,-4.4526,-4.5618,-4.6591,-4.7309,-4.7309,-4.684,-4.6079,-4.5133,-4.4118,-4.2954,-4.1355,-4.1029,-4.0867,-4.0501,-4.071,-4.0853,-4.0488,-4.0056,-3.973,-3.9516,-3.9138,-3.9037,-3.9055,-3.8791,-3.8761,-3.933,-3.9115,-3.9009,-3.9226,-3.9239,-3.8898,-3.8214,-3.8092,-3.8003,-3.7691,-3.7686,-3.7701,-3.7701,-3.7487,-3.7312,-3.7186,-3.7525,-3.7701,-3.7701,-3.7902,-3.7789,-3.74,-3.7814,-3.76,-3.691,-3.745,-3.7186,-3.6408,-3.7098,-3.7186,-3.6923,-3.7475,-3.7914,-3.8216,-3.8065,-3.8241,-3.8292,-5.3501,-5.3501,-5.3501,-5.3501,-5.3501,-5.3501,-5.3501,-5.3501,-5.3501,-5.3501,-5.3501,-5.3501,-5.3501,-5.3501,-5.3501,-5.3501,-5.3501,-5.3501,-5.3501,-5.2764,-5.1099,-4.8397,-4.7882,-4.7152,-4.5926,-4.548,-4.5049,-4.4572,-4.4572,-4.4572,-4.4572,-4.4572,-4.4496,-4.4281,-4.4127,-4.391,-4.369,-4.3518,-4.3344,-4.3329,-4.3329,-4.3329,-4.3329,-4.3329,-4.3329,-4.3329,-4.3329,-4.3329,-4.3329,-4.3329,-4.3464,-4.3718,-4.4167,-4.4601,-4.517,-4.6292,-4.695,-4.7309,-4.7309,-4.7309,-4.7019,-4.6062,-4.5312,-4.4279,-4.2562,-4.1941,-4.1565,-4.0874,-4.1023,-4.1193,-4.0775,-4.054,-4.0292,-3.9926,-3.9716,-3.9612,-3.9612,-3.9407,-3.9505,-4.0076,-3.9943,-3.9835,-4.0102,-4.0127,-3.9783,-3.9107,-3.8971,-3.8885,-3.87,-3.8214,-3.809,-3.8278,-3.8278,-3.809,-3.7713,-3.809,-3.8278,-3.8278,-3.8454,-3.8354,-3.8015,-3.8379,-3.814,-3.7475,-3.8027,-3.7739,-3.6935,-3.7701,-3.7789,-3.75,-3.8052,-3.853,-3.8843,-3.8617,-3.9032,-3.9531,-5.3501,-5.3501,-5.3501,-5.3501,-5.3501,-5.3501,-5.3501,-5.3501,-5.3501,-5.3501,-5.3501,-5.3501,-5.3501,-5.3501,-5.3501,-5.3501,-5.3501,-5.3501,-5.3501,-5.2747,-5.1623,-5.0026,-4.8586,-4.7462,-4.6588,-4.5264,-4.4572,-4.4572,-4.4572,-4.4572,-4.4572,-4.4572,-4.4496,-4.4281,-4.4281,-4.4065,-4.369,-4.369,-4.3518,-4.3329,-4.3329,-4.3329,-4.3329,-4.3329,-4.3329,-4.3329,-4.3329,-4.3329,-4.3329,-4.3344,-4.3778,-4.4317,-4.4332,-4.5244,-4.6456,-4.7115,-4.7309,-4.7309,-4.7309,-4.7309,-4.7019,-4.6062,-4.5779,-4.5312,-4.3259,-4.2792,-4.2514,-4.1498,-4.1311,-4.1311,-4.1311,-4.0827,-4.0422,-4.0422,-3.9978,-3.9625,-3.9625,-3.9625,-3.9821,-4.0357,-4.014,-4.0275,-4.0831,-4.0883,-4.055,-3.9809,-3.9956,-3.9857,-3.9297,-3.8441,-3.8278,-3.8856,-3.8881,-3.8881,-3.8881,-3.8881,-3.8881,-3.8881,-3.9433,-3.9107,-3.8052,-3.9182,-3.9082,-3.8052,-3.863,-3.8542,-3.8002,-3.8015,-3.8015,-3.8065,-3.8655,-3.8881,-3.8944,-3.9484,-3.9697,-3.9697,-5.3501,-5.3501,-5.3501,-5.3501,-5.3501,-5.3501,-5.3501,-5.3501,-5.3501,-5.3501,-5.3501,-5.3501,-5.3501,-5.3501,-5.3501,-5.3501,-5.3501,-5.3501,-5.3501,-5.328,-5.2677,-5.1623,-4.916,-4.7675,-4.7462,-4.5556,-4.4572,-4.4572,-4.4572,-4.4572,-4.4572,-4.4572,-4.4572,-4.4496,-4.4358,-4.4205,-4.4127,-4.3832,-4.369,-4.3596,-4.3344,-4.3329,-4.3329,-4.3329,-4.3329,-4.3329,-4.3329,-4.3329,-4.3404,-4.3868,-4.4152,-4.4481,-4.5424,-4.6322,-4.7055,-4.7249,-4.7309,-4.7309,-4.7309,-4.7309,-4.7207,-4.6931,-4.6344,-4.5689,-4.5024,-4.4392,-4.3559,-4.2514,-4.2333,-4.215,-4.1411,-4.1167,-4.105,-4.105,-4.0919,-4.0801,-4.0801,-4.0801,-4.0867,-4.1023,-4.095,-4.1015,-4.1185,-4.1211,-4.1032,-4.0876,-4.055,-4.0159,-3.9663,-3.9283,-3.927,-3.9446,-3.9446,-3.9446,-3.9446,-3.9446,-3.9446,-3.9446,-3.9609,-3.9521,-3.9207,-3.9534,-3.9295,-3.8642,-3.9207,-3.8894,-3.8065,-3.8868,-3.8969,-3.8668,-3.9233,-3.9446,-3.9471,-3.9634,-3.9697,-3.9697,-5.3501,-5.3501,-5.3501,-5.3501,-5.3501,-5.3501,-5.3501,-5.3501,-5.3501,-5.3501,-5.3501,-5.3501,-5.3501,-5.3501,-5.3501,-5.3501,-5.3501,-5.3501,-5.3501,-5.3501,-5.328,-5.2834,-5.0478,-4.8827,-4.8259,-4.6453,-4.5332,-4.5083,-4.4708,-4.4572,-4.4572,-4.4572,-4.4572,-4.4572,-4.4511,-4.4358,-4.4281,-4.4065,-4.391,-4.3769,-4.3596,-4.3423,-4.3423,-4.3329,-4.3329,-4.3329,-4.3329,-4.3329,-4.3434,-4.4092,-4.4661,-4.5304,-4.6381,-4.698,-4.7309,-4.7309,-4.7309,-4.7309,-4.7309,-4.7309,-4.7309,-4.7309,-4.6829,-4.6255,-4.5869,-4.5326,-4.4577,-4.364,-4.3081,-4.2598,-4.1967,-4.1597,-4.1311,-4.1311,-4.1311,-4.1311,-4.1311,-4.1311,-4.1311,-4.1311,-4.1311,-4.1311,-4.1311,-4.1311,-4.1311,-4.1311,-4.0909,-4.0491,-3.9993,-3.989,-3.9788,-3.9697,-3.9697,-3.9697,-3.9697,-3.9697,-3.9697,-3.9697,-3.9697,-3.9697,-3.9697,-3.9697,-3.9509,-3.922,-3.9546,-3.9308,-3.873,-3.9421,-3.9496,-3.9233,-3.9559,-3.9697,-3.9697,-3.9697,-3.9697,-3.9697,-5.3501,-5.3501,-5.3501,-5.3501,-5.3501,-5.3501,-5.3501,-5.3501,-5.3501,-5.3501,-5.3501,-5.3501,-5.3501,-5.3501,-5.3501,-5.3501,-5.3501,-5.3501,-5.3501,-5.3501,-5.3501,-5.3501,-5.2148,-5.0657,-4.9148,-4.7645,-4.6523,-4.5697,-4.4993,-4.4648,-4.4572,-4.4572,-4.4572,-4.4572,-4.4572,-4.4511,-4.4358,-4.4281,-4.4205,-4.3988,-4.3769,-4.369,-4.369,-4.3423,-4.3329,-4.3329,-4.3329,-4.3329,-4.3449,-4.4152,-4.5259,-4.6441,-4.71,-4.7309,-4.7309,-4.7309,-4.7309,-4.7309,-4.7309,-4.7309,-4.7309,-4.7309,-4.7309,-4.7019,-4.6166,-4.5973,-4.5689,-4.4684,-4.364,-4.2889,-4.2792,-4.1967,-4.1311,-4.1311,-4.1311,-4.1311,-4.1311,-4.1311,-4.1311,-4.1311,-4.1311,-4.1311,-4.1311,-4.1311,-4.1311,-4.1311,-4.0997,-4.0795,-4.0504,-4.0287,-3.9981,-3.9685,-3.9697,-3.9697,-3.9697,-3.9697,-3.9697,-3.9697,-3.9697,-3.9697,-3.9697,-3.9697,-3.9697,-3.9697,-3.9697,-3.9697,-3.9697,-3.9697,-3.9697,-3.9697,-3.9697,-3.9697,-3.9697,-3.9697,-3.9697,-3.9697,-5.3501,-5.3501,-5.3501,-5.3501,-5.3501,-5.3501,-5.3501,-5.3501,-5.3501,-5.3501,-5.3501,-5.3501,-5.3501,-5.3501,-5.3501,-5.3501,-5.3501,-5.3501,-5.3501,-5.3501,-5.3501,-5.3501,-5.3197,-5.232,-5.0743,-4.8711,-4.7013,-4.5697,-4.5551,-4.5142,-4.4572,-4.4572,-4.4572,-4.4572,-4.4572,-4.4587,-4.4496,-4.4358,-4.4281,-4.4205,-4.3832,-4.369,-4.369,-4.3423,-4.3329,-4.3329,-4.3329,-4.3329,-4.3509,-4.4691,-4.5633,-4.6441,-4.71,-4.7309,-4.7309,-4.7309,-4.7309,-4.7309,-4.7309,-4.7309,-4.7309,-4.7309,-4.7309,-4.7207,-4.7019,-4.6931,-4.6726,-4.5689,-4.467,-4.3735,-4.2985,-4.1967,-4.1311,-4.1311,-4.1311,-4.1311,-4.1311,-4.1311,-4.1311,-4.1311,-4.1311,-4.1311,-4.1311,-4.1311,-4.1211,-4.0997,-4.0883,-4.0795,-4.0504,-4.0287,-4.0083,-3.9981,-3.9788,-3.9697,-3.9697,-3.9697,-3.9697,-3.9697,-3.9697,-3.9697,-3.9697,-3.9697,-3.9697,-3.9697,-3.9697,-3.9697,-3.9697,-3.9697,-3.9697,-3.9697,-3.9697,-3.9697,-3.9697,-3.9697,-3.9697,-3.9697,-5.3501,-5.3501,-5.3501,-5.3501,-5.3501,-5.3501,-5.3501,-5.3501,-5.3501,-5.3501,-5.3501,-5.3501,-5.3501,-5.3501,-5.3501,-5.3501,-5.3501,-5.3501,-5.3501,-5.3501,-5.3501,-5.3501,-5.3501,-5.2942,-5.1758,-5.0226,-4.8557,-4.6726,-4.604,-4.5494,-4.5142,-4.4783,-4.4572,-4.4572,-4.4572,-4.4572,-4.4572,-4.4511,-4.4435,-4.4435,-4.4127,-4.391,-4.3832,-4.3596,-4.3423,-4.3329,-4.3329,-4.3539,-4.3958,-4.496,-4.5753,-4.6441,-4.71,-4.7309,-4.7309,-4.7309,-4.7309,-4.7309,-4.7309,-4.7309,-4.7309,-4.7309,-4.7309,-4.7309,-4.7309,-4.7309,-4.7121,-4.6638,-4.5703,-4.4854,-4.4284,-4.3368,-4.2528,-4.2052,-4.2065,-4.1868,-4.1411,-4.1311,-4.1311,-4.1311,-4.1311,-4.1311,-4.1311,-4.1311,-4.1211,-4.1097,-4.1097,-4.0997,-4.0694,-4.0593,-4.0377,-4.0287,-3.9993,-3.989,-3.989,-3.9788,-3.9697,-3.9697,-3.9697,-3.9697,-3.9697,-3.9697,-3.9697,-3.9697,-3.9697,-3.9697,-3.9697,-3.9697,-3.9697,-3.9697,-3.9697,-3.9697,-3.9697,-3.9697,-3.9697,-3.9697,-5.3501,-5.3501,-5.3501,-5.3501,-5.3501,-5.3501,-5.3501,-5.3501,-5.3501,-5.3501,-5.3501,-5.3501,-5.3501,-5.3501,-5.3501,-5.3501,-5.3501,-5.3501,-5.3501,-5.3501,-5.3501,-5.3501,-5.3501,-5.3129,-5.2317,-5.1589,-5.0202,-4.8084,-4.6722,-4.5969,-4.5697,-4.5067,-4.4723,-4.4572,-4.4572,-4.4572,-4.4572,-4.4572,-4.4572,-4.4572,-4.4358,-4.4205,-4.4065,-4.3847,-4.3596,-4.3344,-4.3344,-4.3688,-4.4272,-4.5035,-4.5678,-4.6292,-4.7055,-4.7309,-4.7309,-4.7309,-4.7309,-4.7309,-4.7309,-4.7309,-4.7309,-4.7309,-4.7309,-4.7309,-4.7309,-4.7309,-4.7309,-4.7309,-4.6535,-4.5779,-4.5779,-4.4961,-4.3937,-4.2985,-4.2792,-4.2417,-4.1398,-4.1311,-4.1311,-4.1311,-4.1311,-4.1311,-4.1311,-4.1311,-4.1311,-4.1311,-4.1311,-4.1211,-4.0997,-4.0883,-4.0795,-4.0605,-4.0287,-4.0185,-4.007,-3.989,-3.9788,-3.9697,-3.9697,-3.9697,-3.9697,-3.9697,-3.9697,-3.9697,-3.9697,-3.9697,-3.9697,-3.9697,-3.9697,-3.9697,-3.9697,-3.9697,-3.9697,-3.9697,-3.9697,-3.9697,-5.3501,-5.3501,-5.3501,-5.3501,-5.3501,-5.3501,-5.3501,-5.3501,-5.3501,-5.3501,-5.3501,-5.3501,-5.3501,-5.3501,-5.3501,-5.3501,-5.3501,-5.3501,-5.3501,-5.3501,-5.3501,-5.3501,-5.3501,-5.3129,-5.2317,-5.1589,-5.0455,-4.8845,-4.7985,-4.6932,-4.5697,-4.5624,-4.5216,-4.4572,-4.4572,-4.4572,-4.4572,-4.4572,-4.4572,-4.4572,-4.4358,-4.4281,-4.4205,-4.4065,-4.3832,-4.369,-4.369,-4.3578,-4.3658,-4.4885,-4.5349,-4.5648,-4.692,-4.7309,-4.7309,-4.7309,-4.7309,-4.7309,-4.7309,-4.7309,-4.7309,-4.7309,-4.7309,-4.7309,-4.7309,-4.7309,-4.7309,-4.7309,-4.6535,-4.5779,-4.5779,-4.4961,-4.3937,-4.2985,-4.2792,-4.2417,-4.1398,-4.1311,-4.1311,-4.1311,-4.1311,-4.1311,-4.1311,-4.1311,-4.1311,-4.1311,-4.1311,-4.1311,-4.1211,-4.0997,-4.0883,-4.0883,-4.0605,-4.0287,-4.007,-4.0083,-3.9878,-3.9697,-3.9697,-3.9697,-3.9697,-3.9697,-3.9697,-3.9697,-3.9697,-3.9697,-3.9697,-3.9697,-3.9697,-3.9697,-3.9697,-3.9697,-3.9697,-3.9697,-3.9697,-3.9697,-5.3501,-5.3501,-5.3501,-5.3501,-5.3501,-5.3501,-5.3501,-5.3501,-5.3501,-5.3501,-5.3501,-5.3501,-5.3501,-5.3501,-5.3501,-5.3501,-5.3501,-5.3501,-5.3501,-5.3501,-5.3501,-5.3501,-5.3501,-5.3331,-5.2993,-5.1826,-5.0902,-5.024,-4.8645,-4.7539,-4.6932,-4.6534,-4.5913,-4.5216,-4.5216,-4.5008,-4.4572,-4.4572,-4.4572,-4.4572,-4.4496,-4.4435,-4.4281,-4.4205,-4.405,-4.3892,-4.4082,-4.4043,-4.4077,-4.5424,-4.5873,-4.6037,-4.701,-4.7309,-4.7309,-4.7309,-4.7309,-4.7309,-4.7309,-4.7309,-4.7309,-4.7309,-4.7309,-4.7309,-4.7309,-4.7309,-4.7309,-4.7309,-4.6931,-4.6638,-4.6638,-4.627,-4.5613,-4.4656,-4.4003,-4.3273,-4.2235,-4.1683,-4.1311,-4.1311,-4.1311,-4.1311,-4.1311,-4.1311,-4.1311,-4.1311,-4.1311,-4.1311,-4.1311,-4.1211,-4.1097,-4.1097,-4.0896,-4.0694,-4.058,-4.0275,-4.0083,-3.9878,-3.9788,-3.9697,-3.9697,-3.9697,-3.9697,-3.9697,-3.9697,-3.9697,-3.9697,-3.9697,-3.9697,-3.9697,-3.9697,-3.9697,-3.9697,-3.9697,-3.9697,-3.9697]},{"header":{"parameterUnit":"m.s-1","parameterCategory":1,"la1":30.6,"la2":28.766,"lo1":-90.7593,"lo2":-88.6598,"dy":0.0162,"dx":0.0183,"nx":116,"ny":114,"refTime":"2023-06-13T06:00:00:Z","depth":0,"parameterNumber":3,"parameterNumberName":"V-component_of_WINDS"},"data":[0.0,0.0,0.0,0.0,0.0,0.0,0.0,0.0,0.0,0.0,0.0,0.0,0.0,0.0,0.0,0.0,0.0,0.0,0.0,0.0,0.0,0.0,0.0,0.0,0.0,0.0,0.0,0.0,0.0,0.0,0.0,0.0,0.0,0.0,0.0,0.0,0.0,0.0,0.0,0.0,0.0,0.0,0.0,0.0,0.0,0.0,0.0,0.0,0.0,0.0,0.0,0.0,0.0,0.0,0.0,0.0,0.0,0.0,0.0,0.0,0.0,0.0,0.0,0.0,0.0,0.0,0.0,0.0,0.0,0.0,0.0,0.0,0.0,0.0,0.0,0.0,0.0,0.0,0.0,0.0,0.0,0.0,0.0,0.0,0.0,0.0,0.0,0.0,0.0,0.0,0.0,0.0,0.0,0.0,0.0,0.0,0.0,0.0,0.0,0.0,0.0,0.0,0.0,0.0,0.0,0.0,0.0,0.0,0.0,0.0,0.0,0.0,0.0,0.0,0.0,0.0,0.0,0.0,0.0,0.0,0.0,0.0,0.0,0.0,0.0,0.0,0.0,0.0,0.0,0.0,0.0,0.0,0.0,0.0,0.0,0.0,0.0,0.0,0.0,0.0,0.0,0.0,0.0,0.0,0.0,0.0,0.0,0.0,0.0,0.0,0.0,0.0,0.0,0.0,0.0,0.0,0.0,0.0,0.0,0.0,0.0,0.0,0.0,0.0,0.0,0.0,0.0,0.0,0.0,0.0,0.0,0.0,0.0,0.0,0.0,0.0,0.0,0.0,0.0,0.0,0.0,0.0,0.0,0.0,0.0,0.0,0.0,0.0,0.0,0.0,0.0,0.0,0.0,0.0,0.0,0.0,0.0,0.0,0.0,0.0,0.0,0.0,0.0,0.0,0.0,0.0,0.0,0.0,0.0,0.0,0.0,0.0,0.0,0.0,0.0,0.0,0.0,0.0,0.0,0.0,0.0,0.0,0.0,0.0,0.0,0.0,0.0,0.0,0.0,0.0,0.0,0.0,0.0,0.0,0.0,0.0,0.0,0.0,0.0,0.0,0.0,0.0,0.0,0.0,0.0,0.0,0.0,0.0,0.0,0.0,0.0,0.0,0.0,0.0,0.0,0.0,0.0,0.0,0.0,0.0,0.0,0.0,0.0,0.0,0.0,0.0,0.0,0.0,0.0,0.0,0.0,0.0,0.0,0.0,0.0,0.0,0.0,0.0,0.0,0.0,0.0,0.0,0.0,0.0,0.0,0.0,0.0,0.0,0.0,0.0,0.0,0.0,0.0,0.0,0.0,0.0,0.0,0.0,0.0,0.0,0.0,0.0,0.0,0.0,0.0,0.0,0.0,0.0,0.0,0.0,0.0,0.0,0.0,0.0,0.0,0.0,0.0,0.0,0.0,0.0,0.0,0.0,0.0,0.0,0.0,0.0,0.0,0.0,0.0,0.0,0.0,0.0,0.0,0.0,0.0,0.0,0.0,0.0,0.0,0.0,0.0,0.0,0.0,0.0,0.0,0.0,0.0,0.0,0.0,0.0,0.0,0.0,0.0,0.0,0.0,0.0,0.0,0.0,0.0,0.0,0.0,0.0,0.0,0.0,0.0,0.0,0.0,0.0,0.0,0.0,0.0,0.0,0.0,0.0,0.0,0.0,0.0,0.0,0.0,0.0,0.0,0.0,0.0,0.0,0.0,0.0,0.0,0.0,0.0,0.0,0.0,0.0,0.0,0.0,0.0,0.0,0.0,0.0,0.0,0.0,0.0,0.0,0.0,0.0,0.0,0.0,0.0,0.0,0.0,0.0,0.0,0.0,0.0,0.0,0.0,0.0,0.0,0.0,0.0,0.0,0.0,0.0,0.0,0.0,0.0,0.0,0.0,0.0,0.0,0.0,0.0,0.0,0.0,0.0,0.0,0.0,0.0,0.0,0.0,0.0,0.0,0.0,0.0,0.0,0.0,0.0,0.0,0.0,0.0,0.0,0.0,0.0,0.0,0.0,0.0,0.0,0.0,0.0,0.0,0.0,0.0,0.0,0.0,0.0,0.0,0.0,0.0,0.0,0.0,0.0,0.0,0.0,0.0,0.0,0.0,0.0,0.0,0.0,0.0,0.0,0.0,0.0,0.0,0.0,0.0,0.0,0.0,0.0,0.0,0.0,0.0,0.0,0.0,0.0,0.0,0.0,0.0,0.0,0.0,0.0,0.0,0.0,0.0,0.0,0.0,0.0,0.0,0.0,0.0,0.0,0.0,0.0,0.0,0.0,0.0,0.0,0.0,0.0,0.0,0.0,0.0,0.0,0.0,0.0,0.0,0.0,0.0,0.0,0.0,0.0,0.0,0.0,0.0,0.0,0.0,0.0,0.0,0.0,0.0,0.0,0.0,0.0,0.0,0.0,0.0,0.0,0.0,0.0,0.0,0.0,0.0,0.0,0.0,0.0,0.0,0.0,0.0,0.0,0.0,0.0,0.0,0.0,0.0,0.0,0.0,0.0,0.0,0.0,0.0,0.0,0.0,0.0,0.0,0.0,0.0,0.0,0.0,0.0,0.0,0.0,0.0,0.0,0.0,0.0,0.0,0.0,0.0,0.0,0.0,0.0,0.0,0.0,0.0,0.0,0.0,0.0,0.0,0.0,0.0,0.0,0.0,0.0,0.0,0.0,0.0,0.0,0.0,0.0,0.0,0.0,0.0,0.0,0.0,0.0,0.0,0.0,0.0,0.0,0.0,0.0,0.0,0.0,0.0,0.0,0.0,0.0,0.0,0.0,0.0,0.0,0.0,0.0,0.0,0.0,0.0,0.0,0.0,0.0,0.0,0.0,0.0,0.0,0.0,0.0,0.0,0.0,0.0,0.0,0.0,0.0,0.0,0.0,0.0,0.0,0.0,0.0,0.0,0.0,0.0,0.0,0.0,0.0,0.0,0.0,0.0,0.0,0.0,0.0,0.0,0.0,0.0,0.0,0.0,0.0,0.0,0.0,0.0,0.0,0.0,0.0,0.0,0.0,0.0,0.0,0.0,0.0,0.0,0.0,0.0,0.0,0.0,0.0,0.0,0.0,0.0,0.0,0.0,0.0,0.0,0.0,0.0,0.0,0.0,0.0,0.0,0.0,0.0,0.0,0.0,0.0,0.0,0.0,0.0,0.0,0.0,0.0,0.0,0.0,0.0,0.0,0.0,0.0,0.0,0.0,0.0,0.0,0.0,0.0,0.0,0.0,0.0,0.0,0.0,0.0,0.0,0.0,0.0,0.0,0.0,0.0,0.0,0.0,0.0,0.0,0.0,0.0,0.0,0.0,0.0,0.0,0.0,0.0,0.0,0.0,0.0,0.0,0.0,0.0,0.0,0.0,0.0,0.0,0.0,0.0,0.0,0.0,0.0,0.0,0.0,0.0,0.0,0.0,0.0,0.0,0.0,0.0,0.0,0.0,0.0,0.0,0.0,0.0,0.0,0.0,0.0,0.0,0.0,0.0,0.0,0.0,0.0,0.0,0.0,0.0,0.0,0.0,0.0,0.0,0.0,0.0,0.0,0.0,0.0,0.0,0.0,0.0,0.0,0.0,0.0,0.0,0.0,0.0,0.0,0.0,0.0,0.0,0.0,0.0,0.0,0.0,0.0,0.0,0.0,0.0,0.0,0.0,0.0,0.0,0.0,0.0,0.0,0.0,0.0,0.0,0.0,0.0,0.0,0.0,0.0,0.0,0.0,0.0,0.0,0.0,0.0,0.0,0.0,0.0,0.0,0.0,0.0,0.0,0.0,0.0,0.0,0.0,0.0,0.0,0.0,0.0,0.0,0.0,0.0,0.0,0.0,0.0,0.0,0.0,0.0,0.0,0.0,0.0,0.0,0.0,0.0,0.0,0.0,0.0,0.0,0.0,0.0,0.0,0.0,0.0,0.0,0.0,0.0,0.0,0.0,0.0,0.0,0.0,0.0,0.0,0.0,0.0,0.0,0.0,0.0,0.0,0.0,0.0,0.0,0.0,0.0,0.0,0.0,0.0,0.0,0.0,0.0,0.0,0.0,0.0,0.0,0.0,0.0,0.0,0.0,0.0,0.0,0.0,0.0,0.0,0.0,0.0,0.0,0.0,0.0,0.0,0.0,0.0,0.0,0.0,0.0,0.0,0.0,0.0,0.0,0.0,0.0,0.0,0.0,0.0,0.0,0.0,0.0,0.0,0.0,0.0,0.0,0.0,0.0,0.0,0.0,0.0,0.0,0.0,0.0,0.0,0.0,0.0,0.0,0.0,0.0,0.0,0.0,0.0,0.0,0.0,0.0,0.0,0.0,0.0,0.0,0.0,0.0,0.0,0.0,0.0,0.0,0.0,0.0,0.0,0.0,0.0,0.0,0.0,0.0,0.0,0.0,0.0,0.0,0.0,0.0,0.0,0.0,0.0,0.0,0.0,0.0,0.0,0.0,0.0,0.0,0.0,0.0,0.0,0.0,0.0,0.0,0.0,0.0,0.0,0.0,0.0,0.0,0.0,0.0,0.0,0.0,0.0,0.0,0.0,0.0,0.0,0.0,0.0,0.0,0.0,0.0,0.0,0.0,0.0,0.0,0.0,0.0,0.0,0.0,0.0,0.0,0.0,0.0,0.0,0.0,0.0,0.0,0.0,0.0,0.0,0.0,0.0,0.0,0.0,0.0,0.0,0.0,0.0,0.0,0.0,0.0,0.0,0.0,0.0,0.0,0.0,0.0,0.0,0.0,0.0,0.0,0.0,0.0,0.0,0.0,0.0,0.0,0.0,0.0,0.0,0.0,0.0,0.0,0.0,0.0,0.0,0.0,0.0,0.0,0.0,0.0,0.0,0.0,0.0,0.0,0.0,0.0,0.0,0.0,0.0,0.0,0.0,0.0,0.0,0.0,0.0,0.0,0.0,0.0,0.0,0.0,0.0,0.0,0.0,0.0,0.0,0.0,0.0,0.0,0.0,0.0,0.0,0.0,0.0,0.0,0.0,0.0,0.0,0.0,0.0,0.0,0.0,0.0,0.0,0.0,0.0,0.0,0.0,0.0,0.0,0.0,0.0,0.0,0.0,0.0,0.0,0.0,0.0,0.0,0.0,0.0,0.0,0.0,0.0,0.0,0.0,0.0,0.0,0.0,0.0,0.0,0.0,0.0,0.0,0.0,0.0,0.0,0.0,0.0,0.0,0.0,0.0,0.0,0.0,0.0,0.0,0.0,0.0,0.0,0.0,0.0,0.0,0.0,0.0,0.0,0.0,0.0,0.0,0.0,0.0,0.0,0.0,0.0,0.0,0.0,0.0,0.0,0.0,0.0,0.0,0.0,0.0,0.0,0.0,0.0,0.0,0.0,0.0,0.0,0.0,0.0,0.0,0.0,0.0,0.0,0.0,0.0,0.0,0.0,0.0,0.0,0.0,0.0,0.0,0.0,0.0,0.0,0.0,0.0,0.0,0.0,0.0,0.0,0.0,0.0,0.0,0.0,0.0,0.0,0.0,0.0,0.0,0.0,0.0,0.0,0.0,0.0,0.0,0.0,0.0,0.0,0.0,0.0,0.0,0.0,0.0,0.0,0.0,0.0,0.0,0.0,0.0,0.0,0.0,0.0,0.0,0.0,0.0,0.0,0.0,0.0,0.0,0.0,0.0,0.0,0.0,0.0,0.0,0.0,0.0,0.0,0.0,0.0,0.0,0.0,0.0,0.0,0.0,0.0,0.0,0.0,0.0,0.0,0.0,0.0,0.0,0.0,0.0,0.0,0.0,0.0,0.0,0.0,0.0,0.0,0.0,0.0,0.0,0.0,0.0,0.0,0.0,0.0,0.0,0.0,0.0,0.0,0.0,0.0,0.0,0.0,0.0,0.0,0.0,0.0,0.0,0.0,0.0,0.0,0.0,0.0,0.0,0.0,0.0,0.0,0.0,0.0,0.0,0.0,0.0,0.0,0.0,0.0,0.0,0.0,0.0,0.0,0.0,0.0,0.0,0.0,0.0,0.0,0.0,0.0,0.0,0.0,0.0,0.0,0.0,0.0,0.0,0.0,0.0,0.0,0.0,0.0,0.0,0.0,0.0,0.0,0.0,0.0,0.0,0.0,0.0,0.0,0.0,0.0,0.0,-3.1872,-3.2411,0.0,0.0,0.0,0.0,0.0,0.0,0.0,0.0,0.0,0.0,0.0,0.0,0.0,0.0,0.0,0.0,0.0,0.0,0.0,0.0,0.0,0.0,0.0,0.0,0.0,0.0,0.0,0.0,0.0,0.0,0.0,0.0,0.0,0.0,0.0,0.0,0.0,0.0,0.0,0.0,0.0,0.0,0.0,0.0,0.0,0.0,0.0,0.0,0.0,0.0,0.0,0.0,0.0,0.0,0.0,0.0,0.0,0.0,0.0,0.0,0.0,0.0,0.0,0.0,0.0,0.0,0.0,0.0,0.0,0.0,0.0,0.0,0.0,0.0,0.0,0.0,0.0,0.0,0.0,0.0,0.0,0.0,0.0,0.0,0.0,0.0,0.0,0.0,0.0,0.0,0.0,0.0,0.0,0.0,0.0,0.0,0.0,0.0,0.0,0.0,0.0,0.0,0.0,0.0,0.0,0.0,0.0,0.0,0.0,0.0,0.0,0.0,0.0,0.0,-3.3447,-3.3081,0.0,0.0,0.0,0.0,0.0,0.0,0.0,0.0,0.0,0.0,0.0,0.0,0.0,0.0,0.0,0.0,0.0,0.0,0.0,0.0,0.0,0.0,0.0,0.0,0.0,0.0,0.0,0.0,0.0,0.0,0.0,0.0,0.0,0.0,0.0,0.0,0.0,0.0,0.0,0.0,0.0,0.0,0.0,0.0,0.0,0.0,0.0,0.0,0.0,0.0,0.0,0.0,0.0,0.0,0.0,0.0,0.0,0.0,0.0,0.0,0.0,0.0,0.0,0.0,0.0,0.0,0.0,0.0,0.0,0.0,0.0,0.0,0.0,0.0,0.0,0.0,0.0,0.0,0.0,0.0,0.0,0.0,0.0,0.0,0.0,0.0,0.0,0.0,0.0,0.0,0.0,0.0,0.0,0.0,0.0,0.0,0.0,0.0,0.0,0.0,0.0,0.0,0.0,0.0,0.0,0.0,0.0,0.0,-3.6236,-3.6906,-3.8192,-3.8192,-3.8192,-3.8047,-3.5416,-3.4111,-3.3828,-3.3828,0.0,0.0,0.0,0.0,0.0,0.0,0.0,0.0,0.0,0.0,0.0,0.0,0.0,0.0,0.0,0.0,0.0,0.0,0.0,0.0,0.0,0.0,0.0,0.0,0.0,0.0,0.0,0.0,0.0,0.0,0.0,0.0,0.0,0.0,0.0,0.0,0.0,0.0,0.0,0.0,0.0,0.0,0.0,0.0,0.0,0.0,0.0,0.0,0.0,0.0,0.0,0.0,0.0,0.0,0.0,0.0,0.0,0.0,0.0,0.0,0.0,0.0,0.0,0.0,0.0,0.0,0.0,0.0,0.0,0.0,0.0,0.0,0.0,0.0,0.0,0.0,0.0,0.0,0.0,0.0,0.0,0.0,0.0,0.0,0.0,0.0,-3.1823,-3.186,0.0,0.0,0.0,0.0,0.0,0.0,0.0,0.0,0.0,0.0,0.0,0.0,0.0,-3.6164,-3.754,-3.7558,-3.7667,-3.7866,-3.7866,-3.7975,-3.8192,-3.8192,-3.8192,-3.8156,-3.7802,0.0,-3.5494,-3.5556,0.0,0.0,0.0,0.0,0.0,0.0,0.0,0.0,0.0,0.0,0.0,0.0,0.0,0.0,0.0,0.0,0.0,0.0,0.0,0.0,0.0,0.0,0.0,0.0,0.0,0.0,0.0,0.0,0.0,0.0,0.0,0.0,0.0,0.0,0.0,0.0,0.0,0.0,0.0,0.0,0.0,0.0,0.0,0.0,0.0,0.0,0.0,0.0,0.0,0.0,0.0,0.0,0.0,0.0,0.0,0.0,0.0,0.0,0.0,0.0,0.0,0.0,0.0,0.0,0.0,0.0,0.0,0.0,0.0,0.0,0.0,0.0,0.0,0.0,0.0,0.0,0.0,0.0,0.0,0.0,0.0,0.0,0.0,0.0,0.0,-3.2167,-3.2651,-3.2232,-3.2755,-3.3046,0.0,0.0,0.0,0.0,0.0,0.0,0.0,0.0,0.0,-3.7105,-3.7558,-3.7902,-3.8192,-3.9061,-3.9731,-4.0166,-4.0619,-4.1307,-4.2176,-4.2176,-4.2176,-4.2194,-4.2287,-4.1433,-3.9726,-3.7521,-3.6369,-3.5911,0.0,0.0,0.0,0.0,-3.6578,-3.6653,0.0,0.0,0.0,0.0,0.0,0.0,0.0,0.0,0.0,0.0,0.0,0.0,0.0,0.0,0.0,0.0,0.0,0.0,0.0,0.0,0.0,0.0,0.0,0.0,0.0,0.0,0.0,0.0,0.0,0.0,0.0,0.0,0.0,0.0,0.0,0.0,0.0,0.0,0.0,0.0,0.0,0.0,0.0,0.0,0.0,0.0,0.0,0.0,0.0,0.0,0.0,0.0,0.0,0.0,0.0,0.0,0.0,0.0,0.0,0.0,0.0,0.0,0.0,0.0,0.0,0.0,0.0,0.0,0.0,0.0,0.0,0.0,0.0,0.0,0.0,0.0,0.0,-3.2947,-3.3651,-3.2677,-3.3705,-3.4049,0.0,0.0,0.0,0.0,0.0,0.0,-3.6689,-3.7087,-3.7938,-3.9351,-3.9749,-3.9948,-4.0003,-4.1361,-4.2248,-4.2647,-4.3444,-4.4331,-4.5291,-4.5349,-4.5349,-4.5349,-4.5524,-4.4889,-4.3524,-3.9966,-3.8365,-3.8124,-3.7359,-3.719,-3.7492,-3.8037,-3.826,-3.8353,0.0,0.0,0.0,0.0,0.0,0.0,0.0,0.0,0.0,0.0,0.0,0.0,0.0,0.0,0.0,0.0,0.0,0.0,0.0,0.0,0.0,0.0,0.0,0.0,0.0,0.0,0.0,0.0,0.0,0.0,0.0,0.0,0.0,0.0,0.0,0.0,0.0,0.0,0.0,0.0,0.0,0.0,0.0,0.0,0.0,0.0,0.0,0.0,0.0,0.0,0.0,0.0,0.0,0.0,0.0,0.0,0.0,0.0,0.0,0.0,0.0,0.0,0.0,0.0,0.0,0.0,0.0,0.0,0.0,0.0,0.0,0.0,0.0,0.0,0.0,0.0,0.0,0.0,0.0,-3.3515,-3.4757,0.0,0.0,0.0,0.0,-3.5693,-3.7123,-3.8355,-3.917,-3.8518,-3.9514,-4.2556,-4.1959,-4.2665,-4.4928,-4.578,-4.5852,-4.5128,-4.5943,-4.5961,-4.5291,-4.5446,-4.5485,-4.5485,-4.5716,-4.5754,-4.548,-4.2992,-4.113,-3.9804,-3.905,-3.8897,-3.9061,-3.8906,-3.8868,-3.8857,0.0,0.0,0.0,0.0,0.0,0.0,0.0,0.0,0.0,0.0,0.0,0.0,0.0,0.0,0.0,0.0,0.0,0.0,0.0,0.0,0.0,0.0,0.0,0.0,0.0,0.0,0.0,0.0,0.0,0.0,0.0,0.0,0.0,0.0,0.0,0.0,0.0,0.0,0.0,0.0,0.0,0.0,0.0,0.0,0.0,0.0,0.0,0.0,0.0,0.0,0.0,0.0,0.0,0.0,0.0,0.0,0.0,0.0,0.0,0.0,0.0,0.0,0.0,0.0,0.0,0.0,0.0,0.0,0.0,0.0,0.0,0.0,0.0,0.0,0.0,0.0,0.0,0.0,0.0,-3.649,-3.7449,0.0,-3.7993,-3.8065,-3.8119,-3.8119,-3.9568,-4.08,-4.1596,-4.2357,-4.3751,-4.5924,-4.6214,-4.6504,-4.6848,-4.8254,-4.8254,-4.6866,-4.832,-4.8579,-4.777,-4.8384,-4.8644,-4.8626,-4.8254,-4.8114,-4.7968,-4.614,-4.4433,-4.2941,-4.2165,-4.1899,-4.2036,-4.2474,-4.2625,-4.2699,0.0,0.0,0.0,0.0,0.0,0.0,0.0,0.0,0.0,0.0,0.0,0.0,0.0,0.0,0.0,0.0,0.0,0.0,0.0,0.0,0.0,0.0,0.0,0.0,0.0,0.0,0.0,0.0,0.0,0.0,0.0,0.0,0.0,0.0,0.0,0.0,0.0,0.0,0.0,0.0,0.0,0.0,-3.0507,0.0,0.0,0.0,0.0,0.0,0.0,0.0,0.0,0.0,0.0,0.0,0.0,0.0,0.0,0.0,0.0,0.0,0.0,0.0,0.0,0.0,0.0,0.0,0.0,0.0,0.0,0.0,0.0,0.0,0.0,0.0,0.0,0.0,0.0,-3.6841,-3.8542,-3.8934,-4.0166,-4.0963,-4.0926,-4.1198,-4.1379,-4.1379,-4.2846,-4.4095,-4.4874,-4.5689,-4.6848,-4.846,-4.8768,-4.8786,-4.8514,-4.9923,-4.9923,-4.8575,-5.0071,-5.0314,-4.9567,-5.0162,-5.0336,-5.0081,-4.9925,-4.971,-4.938,-4.8359,-4.7315,-4.6214,-4.4837,-4.4305,-4.436,-4.4911,-4.5112,-4.5186,0.0,0.0,0.0,0.0,0.0,0.0,0.0,0.0,0.0,0.0,0.0,0.0,0.0,0.0,0.0,0.0,0.0,0.0,0.0,0.0,0.0,0.0,0.0,0.0,0.0,0.0,0.0,0.0,0.0,0.0,0.0,0.0,0.0,0.0,0.0,0.0,0.0,0.0,0.0,0.0,0.0,0.0,-3.2273,0.0,0.0,0.0,0.0,0.0,0.0,0.0,0.0,0.0,0.0,0.0,0.0,0.0,0.0,0.0,0.0,0.0,0.0,0.0,0.0,0.0,0.0,0.0,0.0,0.0,0.0,0.0,0.0,0.0,0.0,0.0,0.0,0.0,-3.647,-3.9426,-4.1395,-4.0745,-4.2755,-4.3588,-4.2122,-4.4059,-4.5417,-4.5417,-4.6866,-4.8098,-4.8894,-4.8206,-4.8496,-5.0071,-4.9383,-4.9347,-5.009,-5.0886,-5.0976,-5.0301,-5.1137,-5.1169,-5.0459,-5.0597,-5.0255,-4.9578,-5.0468,-5.0398,-4.9646,-4.9627,-4.9627,-4.9389,-4.6948,-4.5993,-4.5975,-4.6012,-4.5993,-4.5975,0.0,0.0,0.0,0.0,0.0,0.0,0.0,0.0,0.0,0.0,0.0,0.0,0.0,0.0,0.0,0.0,0.0,0.0,0.0,0.0,0.0,0.0,0.0,0.0,0.0,0.0,0.0,0.0,0.0,0.0,0.0,0.0,0.0,0.0,0.0,0.0,0.0,0.0,0.0,0.0,0.0,0.0,-3.1749,0.0,0.0,0.0,0.0,0.0,0.0,0.0,0.0,0.0,0.0,0.0,0.0,0.0,0.0,0.0,0.0,0.0,0.0,0.0,0.0,0.0,0.0,0.0,0.0,0.0,0.0,0.0,0.0,0.0,0.0,0.0,-3.8079,-4.0131,-3.9463,-4.1197,-4.3098,-4.4675,-4.5436,-4.6359,-4.7663,-4.7862,-4.7916,-4.7916,-4.8333,-4.8931,-4.9727,-4.9546,-4.9908,-5.0923,-5.076,-5.0496,-5.0185,-5.1071,-5.1133,-5.0411,-5.1987,-5.2267,-5.142,-5.2168,-5.2375,-5.2155,-5.183,-5.1536,-5.1279,-5.071,-5.0472,-5.0343,-4.9077,-4.8196,-4.7719,-4.8343,-4.8177,-4.7572,0.0,0.0,0.0,0.0,0.0,0.0,0.0,0.0,0.0,0.0,0.0,0.0,0.0,0.0,0.0,0.0,0.0,0.0,0.0,0.0,0.0,0.0,0.0,0.0,0.0,0.0,0.0,0.0,0.0,0.0,0.0,0.0,0.0,0.0,0.0,0.0,0.0,0.0,0.0,0.0,0.0,0.0,-3.3514,-3.2677,-3.2048,-3.1539,-3.0881,-3.0357,-2.9963,-2.9788,0.0,0.0,0.0,0.0,0.0,0.0,0.0,0.0,0.0,0.0,0.0,0.0,0.0,0.0,0.0,0.0,0.0,0.0,0.0,0.0,0.0,0.0,0.0,0.0,-4.06,-4.2918,-4.3444,-4.4331,-4.5671,-4.7753,-4.8315,-4.9057,-5.0452,-5.0488,-5.0416,-5.0416,-5.0416,-5.0615,-5.1067,-5.1104,-5.1303,-5.1774,-5.1466,-5.1257,-5.1209,-5.1417,-5.1522,-5.1524,-5.2602,-5.2865,-5.2407,-5.2944,-5.3023,-5.2692,-5.2564,-5.2307,-5.1958,-5.1499,-5.1298,-5.1224,0.0,0.0,0.0,0.0,-4.926,-4.8728,0.0,0.0,0.0,0.0,0.0,0.0,0.0,0.0,0.0,0.0,0.0,0.0,0.0,0.0,0.0,0.0,0.0,0.0,0.0,0.0,0.0,0.0,0.0,0.0,0.0,0.0,0.0,0.0,0.0,0.0,0.0,0.0,0.0,0.0,0.0,0.0,0.0,0.0,0.0,0.0,0.0,0.0,-3.6267,-3.4337,-3.3918,-3.4277,-3.3619,-3.2287,-3.0878,-3.1411,0.0,0.0,0.0,0.0,0.0,0.0,0.0,0.0,0.0,0.0,0.0,0.0,0.0,0.0,0.0,0.0,0.0,0.0,0.0,0.0,0.0,0.0,0.0,0.0,-4.3335,-4.5309,-4.7645,-4.8061,-4.8641,-5.0053,-5.085,-5.1321,-5.1411,-5.2082,-5.2498,-5.2498,-5.2408,-5.2389,-5.2498,-5.2408,0.0,0.0,0.0,-5.1602,-5.2318,-5.1773,-5.1978,-5.2871,-5.2962,-5.306,-5.3206,-5.3206,-5.2821,-5.2179,-5.2894,-5.2803,-5.2142,-5.2142,-5.2142,-5.205,-5.1151,-5.0857,-5.0839,-5.0013,-4.9719,-4.9591,0.0,0.0,0.0,0.0,0.0,0.0,0.0,0.0,0.0,0.0,0.0,0.0,0.0,0.0,0.0,0.0,0.0,0.0,0.0,0.0,0.0,0.0,0.0,0.0,0.0,0.0,0.0,0.0,0.0,0.0,0.0,0.0,0.0,0.0,0.0,0.0,0.0,0.0,0.0,0.0,0.0,0.0,-3.6327,-3.4846,-3.4038,-3.3604,-3.2946,-3.2796,-3.2946,-3.3043,-3.3147,-3.3222,-3.3147,0.0,0.0,0.0,0.0,0.0,0.0,0.0,0.0,0.0,0.0,0.0,0.0,0.0,0.0,0.0,0.0,0.0,0.0,0.0,0.0,-4.2354,-4.511,-4.7627,-4.9383,-5.018,-5.0705,-5.1013,-5.1194,-5.1538,-5.219,-5.2408,-5.2498,-5.2498,-5.19,-5.181,-5.2462,-5.1864,-5.152,-5.152,-5.1375,-5.1076,-5.0682,-5.1227,-5.1704,-5.2047,-5.2688,0.0,-5.3206,-5.3206,-5.3133,-5.2986,-5.3133,-5.3115,-5.2968,-5.2968,-5.2968,-5.2821,-5.1371,-5.1206,-5.1665,-5.0857,-5.0563,-5.0453,0.0,0.0,0.0,0.0,0.0,0.0,0.0,0.0,0.0,0.0,0.0,0.0,0.0,0.0,0.0,0.0,0.0,0.0,0.0,0.0,0.0,0.0,0.0,0.0,0.0,0.0,0.0,0.0,0.0,0.0,0.0,0.0,0.0,0.0,0.0,0.0,0.0,0.0,0.0,0.0,0.0,0.0,-3.7838,-3.6821,-3.6028,-3.537,-3.4726,-3.4512,-3.444,-3.4353,-3.4337,-3.4345,-3.4462,-3.4005,-3.3297,0.0,0.0,0.0,0.0,0.0,0.0,0.0,0.0,0.0,0.0,0.0,0.0,0.0,0.0,-3.7277,0.0,0.0,-4.33,-4.554,-4.7591,-4.9311,-5.0524,-5.1375,-5.19,-5.19,-5.19,-5.2063,-5.2462,-5.2498,-5.2498,-5.2498,-5.2118,-5.2063,-5.248,-5.2118,-5.19,-5.19,-5.1502,-5.1312,-5.1409,-5.1871,-5.2441,-5.3017,-5.3866,-5.4338,-5.4399,-5.4399,-5.4399,-5.4399,-5.4399,-5.4179,-5.3775,-5.339,-5.3206,-5.3133,-5.2325,-5.2252,-5.2509,-5.1701,-5.1389,-5.1279,0.0,0.0,0.0,0.0,0.0,0.0,0.0,0.0,0.0,0.0,0.0,0.0,0.0,0.0,0.0,0.0,0.0,0.0,0.0,0.0,0.0,0.0,0.0,0.0,0.0,0.0,0.0,0.0,0.0,0.0,0.0,0.0,0.0,0.0,0.0,0.0,0.0,0.0,0.0,0.0,0.0,0.0,-3.9529,-3.8856,-3.8093,-3.7345,-3.6851,-3.6046,-3.5197,-3.5504,-3.516,-3.4657,-3.5333,-3.5446,-3.5015,-3.3375,-3.2796,0.0,0.0,0.0,0.0,0.0,0.0,0.0,0.0,0.0,-3.478,-3.6138,-3.8105,-4.0335,-4.2606,-4.4151,-4.5924,-4.8695,-4.98,-5.0597,-5.1411,-5.2082,-5.2498,-5.2498,-5.2498,-5.2498,-5.2498,-5.2498,-5.2498,-5.2498,-5.2498,-5.2498,-5.2498,-5.2498,-5.257,-5.2733,-5.21,-5.2182,-5.3035,-5.3172,-5.3634,-5.4399,-5.5192,-5.5574,-5.5592,-5.5592,-5.5592,-5.5592,-5.5592,-5.5133,-5.4344,-5.3702,-5.3353,-5.3206,-5.3206,-5.3206,-5.3133,-5.2472,-5.2234,-5.2123,0.0,0.0,0.0,0.0,0.0,0.0,0.0,0.0,0.0,0.0,0.0,0.0,0.0,0.0,0.0,0.0,0.0,0.0,0.0,0.0,0.0,0.0,0.0,0.0,0.0,0.0,0.0,0.0,0.0,0.0,0.0,0.0,0.0,0.0,0.0,0.0,0.0,0.0,0.0,0.0,0.0,0.0,-4.0217,-3.9559,-3.8512,-3.7404,-3.733,-3.5993,-3.4601,-3.6503,-3.6614,-3.6097,-3.7409,-3.7384,-3.6439,-3.4286,0.0,-3.2514,-3.1719,-3.2054,-3.2984,-3.4437,-3.4404,-3.4935,0.0,0.0,-3.8125,-4.1206,-4.2615,-4.3873,-4.5683,-4.7295,-4.8713,-4.9782,-5.0633,-5.1448,-5.2245,-5.2444,-5.2498,-5.2498,-5.2498,-5.2498,-5.2498,-5.2498,-5.2498,-5.2498,-5.2498,-5.2498,-5.2498,-5.2498,-5.2824,-5.3548,-5.3476,-5.382,-5.4617,-5.4724,-5.4883,-5.5067,-5.5313,-5.5485,-5.5592,-5.5592,-5.5592,-5.5592,-5.5592,-5.5133,-5.4399,-5.4308,-5.3849,-5.3206,-5.3206,-5.3206,-5.3206,-5.3115,-5.3078,-5.2968,0.0,0.0,0.0,0.0,0.0,0.0,0.0,0.0,0.0,0.0,0.0,0.0,0.0,0.0,0.0,0.0,0.0,0.0,0.0,0.0,0.0,0.0,0.0,0.0,0.0,0.0,0.0,0.0,0.0,0.0,0.0,0.0,0.0,0.0,0.0,0.0,0.0,0.0,0.0,0.0,0.0,0.0,-3.9753,-3.908,-3.7778,-3.6297,-3.6297,-3.5679,0.0,0.0,-3.5614,-3.5877,-3.7164,-3.6771,-3.5545,-3.4187,-3.3276,0.0,-3.2523,-3.3378,-3.4488,0.0,-3.6152,-3.7444,-3.9514,-4.0068,-4.0851,-4.3483,-4.5258,-4.6746,-4.8294,-4.9528,-5.056,-5.1357,-5.1774,-5.2118,-5.2444,-5.2498,-5.2498,-5.2498,-5.2498,-5.2498,-5.2498,-5.2498,-5.2498,-5.2498,-5.2498,-5.2498,-5.2498,-5.2933,-5.3349,-5.3693,-5.4146,-5.4562,-5.4907,-5.545,-5.5745,-5.5793,-5.6473,-5.685,-5.6896,-5.6942,-5.6987,-5.6969,-5.6492,-5.6106,-5.5757,-5.528,-5.462,-5.394,-5.4418,-5.4014,-5.3206,-5.3206,-5.3206,-5.317,0.0,0.0,0.0,0.0,0.0,0.0,0.0,0.0,0.0,0.0,0.0,0.0,0.0,0.0,0.0,0.0,0.0,0.0,0.0,0.0,0.0,0.0,0.0,0.0,0.0,0.0,0.0,0.0,0.0,0.0,0.0,0.0,0.0,0.0,0.0,0.0,0.0,0.0,0.0,0.0,0.0,0.0,-3.9305,-3.8257,-3.6761,-3.522,-3.522,-3.4713,0.0,0.0,-3.4218,-3.4748,-3.6334,-3.6141,-3.5086,-3.4322,-3.3425,-3.2774,-3.3228,-3.4454,0.0,-3.6771,-3.8385,-4.0087,-4.1251,-4.2226,-4.3494,-4.5593,-4.7315,-4.8847,-5.0271,-5.1122,-5.181,-5.2408,-5.2498,-5.2498,-5.2498,-5.2498,-5.2498,-5.2498,-5.2498,-5.2498,-5.2498,-5.2498,-5.2498,-5.2498,-5.2498,-5.2589,-5.2824,-5.3385,-5.3892,-5.4309,-5.4907,-5.5305,-5.554,-5.6213,-5.6515,-5.6534,-5.7405,-5.7792,-5.7792,-5.795,-5.7997,-5.796,-5.7373,-5.7024,-5.6767,-5.6161,-5.5464,-5.4785,-5.5354,-5.4876,-5.3849,-5.361,-5.339,-5.3206,0.0,0.0,0.0,0.0,0.0,0.0,0.0,0.0,0.0,0.0,0.0,0.0,0.0,0.0,0.0,0.0,0.0,0.0,0.0,0.0,0.0,0.0,0.0,0.0,0.0,0.0,0.0,0.0,0.0,0.0,0.0,0.0,0.0,0.0,0.0,0.0,0.0,0.0,0.0,0.0,0.0,0.0,-3.9215,-3.727,-3.5699,-3.4502,-3.4502,0.0,0.0,0.0,-3.2998,-3.272,-3.5372,-3.6178,0.0,-3.5119,-3.3822,-3.289,0.0,0.0,-3.7081,-4.0103,-4.1504,-4.2777,-4.5026,-4.5551,-4.6146,-4.8282,-4.9183,-4.9942,-5.1286,-5.206,-5.2462,-5.2498,-5.2498,-5.2498,-5.2498,-5.2498,-5.2498,-5.2498,-5.2498,-5.2498,-5.2498,-5.2498,-5.2498,-5.2498,-5.2498,-5.2842,-5.3621,-5.3693,-5.4381,-5.5866,-5.5939,-5.6337,-5.7116,-5.7302,-5.7351,-5.737,-5.7631,-5.7792,-5.7792,-5.795,-5.7997,-5.7997,-5.796,-5.7519,-5.6804,-5.6785,-5.629,-5.5556,-5.5574,-5.5556,-5.5427,-5.4638,-5.3867,-5.3206,0.0,0.0,0.0,0.0,0.0,0.0,0.0,0.0,0.0,0.0,0.0,0.0,0.0,0.0,0.0,0.0,0.0,0.0,0.0,0.0,0.0,0.0,0.0,0.0,0.0,0.0,0.0,0.0,0.0,0.0,0.0,0.0,0.0,0.0,0.0,0.0,0.0,0.0,0.0,0.0,0.0,0.0,-3.8422,-3.5579,-3.3948,-3.3006,0.0,0.0,0.0,0.0,-3.0882,-3.1362,-3.3464,0.0,0.0,-3.3419,-3.3425,-3.3935,-3.6287,0.0,-3.9914,-4.256,-4.3883,-4.501,-4.6769,-4.7175,-4.7607,-4.9206,-4.8834,-4.8556,-4.9378,-5.0018,-5.0437,-5.0437,-5.1589,-5.2498,-5.2498,-5.2498,-5.2498,-5.2498,-5.2498,-5.2498,-5.2498,-5.2498,-5.2498,-5.2498,-5.2987,-5.3403,-5.3693,-5.4671,-5.545,-5.5975,-5.6518,-5.6935,-5.7188,-5.7239,-5.7257,-5.7289,-5.7553,-5.7697,-5.7792,-5.795,-5.7997,-5.7997,-5.7997,-5.785,-5.7593,-5.7593,-5.7116,-5.6455,-5.6969,-5.6528,-5.5629,-5.5904,-5.5152,-5.3922,0.0,0.0,0.0,0.0,0.0,0.0,0.0,0.0,0.0,0.0,0.0,0.0,0.0,0.0,0.0,0.0,0.0,0.0,0.0,0.0,0.0,0.0,0.0,0.0,0.0,0.0,0.0,0.0,0.0,0.0,0.0,0.0,0.0,0.0,0.0,0.0,0.0,0.0,0.0,0.0,0.0,0.0,-3.6327,-3.3499,-3.2033,0.0,0.0,0.0,0.0,0.0,0.0,0.0,-3.1937,-3.2433,-3.2463,-3.3255,-3.4187,-3.566,-3.8803,-4.0578,-4.221,-4.494,-4.6068,-4.6819,-4.8037,-4.8308,-4.8395,-4.8709,-4.7894,-4.717,-4.7335,-4.7793,-4.8197,-4.8483,-5.0054,-5.1303,-5.1593,-5.1882,-5.2172,-5.2462,-5.2498,-5.2498,-5.2498,-5.2498,-5.2625,-5.2915,-5.3132,-5.353,-5.411,-5.507,-5.5721,-5.5975,-5.65,-5.6772,-5.6772,-5.6772,-5.6967,-5.7289,-5.7455,-5.7601,-5.7745,-5.7792,-5.7886,-5.795,-5.795,-5.795,-5.7997,-5.7997,-5.7703,-5.7281,-5.7795,-5.7354,-5.6492,-5.673,-5.6161,-5.5097,0.0,0.0,0.0,0.0,0.0,0.0,0.0,0.0,0.0,0.0,0.0,0.0,0.0,0.0,0.0,0.0,0.0,0.0,0.0,0.0,0.0,0.0,0.0,0.0,0.0,0.0,0.0,0.0,0.0,0.0,0.0,0.0,0.0,0.0,0.0,0.0,0.0,0.0,0.0,0.0,0.0,0.0,-3.3275,-3.1225,0.0,0.0,0.0,0.0,0.0,0.0,0.0,0.0,0.0,-3.2317,-3.355,-3.469,-3.6141,-3.8015,-4.1247,-4.2641,-4.397,-4.7173,-4.7943,-4.8156,-4.8849,-4.8951,-4.8494,-4.709,-4.6425,-4.592,0.0,0.0,-4.5971,-4.6847,-4.8137,-4.9365,-5.0108,-5.0868,-5.1629,0.0,0.0,0.0,0.0,-5.2498,-5.2824,-5.3639,-5.2987,-5.3222,-5.4762,-5.4888,-5.5214,-5.5921,-5.5939,-5.5957,-5.5993,-5.6029,-5.6477,-5.7333,-5.7388,-5.7455,-5.7601,-5.7601,-5.7649,-5.7792,-5.7792,-5.7886,-5.7997,-5.7997,-5.7997,-5.7997,-5.7997,-5.7997,-5.7905,-5.7152,-5.684,-5.6583,0.0,0.0,0.0,0.0,0.0,0.0,0.0,0.0,0.0,0.0,0.0,0.0,0.0,0.0,0.0,0.0,0.0,0.0,0.0,0.0,0.0,0.0,0.0,0.0,0.0,0.0,0.0,0.0,0.0,0.0,0.0,0.0,0.0,0.0,0.0,0.0,0.0,0.0,0.0,0.0,0.0,0.0,-3.323,0.0,0.0,0.0,0.0,0.0,0.0,0.0,0.0,0.0,0.0,-3.4217,-3.6257,-3.7101,-3.8775,-4.0961,-4.3996,-4.548,-4.6619,-4.8647,-4.8904,-4.8675,-4.8968,-4.8156,-4.7242,-4.687,-4.484,-4.3172,0.0,0.0,0.0,-4.6454,-4.9321,0.0,-5.1864,-5.2063,0.0,-5.248,0.0,-5.2498,-5.2498,-5.2498,-5.2824,-5.3639,-5.3512,-5.3566,-5.3983,-5.4581,-5.4997,-5.5178,-5.5178,-5.5432,-5.5975,-5.6591,-5.6681,-5.635,-5.7066,-5.7406,-5.7437,-5.7534,-5.7601,-5.7649,-5.7745,-5.7792,-5.7839,-5.795,-5.7997,-5.7997,-5.7997,-5.7997,-5.7978,-5.7776,-5.7317,-5.6748,0.0,0.0,0.0,0.0,0.0,0.0,0.0,0.0,0.0,0.0,0.0,0.0,0.0,0.0,0.0,0.0,0.0,0.0,0.0,0.0,0.0,0.0,0.0,0.0,0.0,0.0,0.0,0.0,0.0,0.0,0.0,0.0,0.0,0.0,0.0,0.0,0.0,0.0,0.0,0.0,0.0,0.0,0.0,0.0,0.0,0.0,0.0,0.0,0.0,0.0,0.0,-3.2946,-3.4097,-3.5932,-3.8031,-3.9632,0.0,-4.3843,-4.6192,-4.7714,-4.8775,-4.9406,-4.9351,-4.8841,-4.7591,-4.6709,-4.5732,-4.4417,-4.2454,0.0,-4.1112,-4.2517,-4.3875,0.0,0.0,0.0,-5.0915,-5.1358,-5.1831,0.0,-5.2498,0.0,-5.2498,-5.2498,-5.2679,-5.3132,-5.3168,-5.3476,-5.42,-5.4327,-5.4689,-5.5359,-5.4725,-5.4562,-5.4979,-5.5794,-5.5957,-5.5522,-5.6762,-5.7107,-5.6781,-5.7242,-5.7455,-5.7504,-5.7601,-5.7697,-5.781,-5.7904,-5.795,-5.7997,-5.7997,-5.7997,-5.7997,-5.7997,-5.7703,-5.7336,0.0,0.0,0.0,0.0,0.0,0.0,0.0,0.0,0.0,0.0,0.0,0.0,0.0,0.0,0.0,0.0,0.0,0.0,0.0,0.0,0.0,0.0,0.0,0.0,0.0,0.0,0.0,0.0,0.0,0.0,0.0,0.0,0.0,0.0,0.0,0.0,0.0,0.0,0.0,0.0,0.0,0.0,0.0,0.0,0.0,0.0,0.0,0.0,0.0,0.0,-3.3768,-3.4308,-3.6226,-3.8068,-3.996,-4.2385,-4.4589,-4.6623,-4.8213,-4.946,-5.0276,-4.9841,-4.9521,-4.8584,-4.5805,-4.4926,-4.3887,-4.1204,0.0,-3.9423,-3.9527,-4.0189,-4.1235,-4.2826,0.0,-4.7058,-4.9239,-5.004,-5.0932,-5.225,-5.2387,-5.2387,-5.2387,-5.2434,-5.2498,-5.2498,-5.2498,-5.3114,-5.4508,-5.3929,-5.4146,-5.5486,-5.4345,-5.3657,-5.3548,-5.4454,-5.4852,-5.4762,-5.6192,-5.6573,-5.6011,-5.6717,-5.7148,-5.7388,-5.7388,-5.7534,-5.7792,-5.7792,-5.7904,-5.7997,-5.7997,-5.7997,-5.7997,-5.7886,-5.7831,-5.7831,0.0,0.0,0.0,0.0,0.0,0.0,0.0,0.0,0.0,0.0,-1.9075,-1.9075,0.0,0.0,0.0,0.0,0.0,0.0,0.0,0.0,0.0,0.0,0.0,0.0,0.0,0.0,0.0,0.0,0.0,0.0,0.0,0.0,0.0,0.0,0.0,0.0,0.0,0.0,0.0,0.0,0.0,0.0,0.0,0.0,0.0,0.0,0.0,0.0,0.0,0.0,-3.6252,-3.7838,-3.9232,-4.1906,-4.4714,-4.5847,-4.7272,-4.8845,-5.0372,-5.0521,-5.0222,-5.0259,-4.8942,-4.7158,-4.557,-4.3333,0.0,0.0,-3.9172,-3.862,-3.879,-4.068,-4.2792,-4.4508,0.0,0.0,0.0,0.0,-5.0928,0.0,-5.1786,-5.1786,-5.1786,-5.2228,-5.2498,-5.2498,-5.2498,-5.2625,-5.2896,-5.277,-5.2824,-5.3096,-5.3494,-5.3385,-5.2715,-5.4164,-5.4581,-5.3929,-5.4852,-5.554,-5.5993,-5.6138,-5.6554,-5.7239,-5.7338,-5.7504,-5.7649,-5.7745,-5.7904,-5.7997,-5.7997,-5.7997,-5.7923,-5.7262,-5.7024,-5.7024,0.0,0.0,0.0,0.0,0.0,0.0,0.0,-1.9282,-1.9427,-1.9427,-1.9427,-1.9344,-1.9162,-1.9075,0.0,0.0,0.0,0.0,0.0,0.0,0.0,0.0,0.0,0.0,0.0,0.0,0.0,-2.3078,0.0,0.0,0.0,0.0,0.0,0.0,0.0,0.0,0.0,0.0,0.0,0.0,0.0,0.0,0.0,0.0,0.0,0.0,0.0,0.0,0.0,0.0,-3.6494,-3.943,-4.189,-4.434,-4.6576,-4.7719,-4.9094,-5.0386,-5.1082,-5.1578,-5.1595,-5.0521,-4.8962,-4.6819,-4.3898,0.0,0.0,0.0,-3.8018,-3.795,-3.8818,0.0,0.0,0.0,0.0,0.0,0.0,0.0,0.0,0.0,-5.1601,-5.1601,-5.1601,-5.2162,-5.2387,-5.2066,-5.2719,-5.3114,-5.3114,-5.353,-5.3748,-5.3748,-5.3729,-5.3512,-5.3132,-5.3892,-5.3874,-5.3096,-5.4327,-5.487,-5.4816,-5.5233,-5.5631,-5.6011,-5.606,-5.614,-5.6248,-5.6314,-5.6692,-5.7226,-5.6804,-5.696,-5.7281,-5.6473,-5.618,-5.6235,0.0,0.0,0.0,0.0,0.0,0.0,0.0,-1.9536,-1.9827,-1.9827,-1.9827,-1.9692,-1.9261,-1.9127,-1.9075,0.0,0.0,0.0,0.0,0.0,0.0,0.0,0.0,0.0,0.0,0.0,0.0,-2.3078,-2.3078,0.0,0.0,0.0,0.0,0.0,-2.3078,0.0,0.0,0.0,0.0,0.0,0.0,0.0,0.0,0.0,0.0,0.0,0.0,0.0,0.0,0.0,-3.5764,-3.9053,-4.2376,-4.4999,-4.7106,-4.81,-4.9872,-5.1479,-5.1313,-5.2324,-5.2854,-5.0551,-4.8746,-4.6411,-4.217,-3.9951,0.0,0.0,-3.6887,-3.745,-3.8609,0.0,-4.0617,0.0,0.0,0.0,0.0,0.0,0.0,0.0,-5.1333,0.0,-5.1474,-5.1992,-5.2114,-5.1619,-5.2738,-5.3512,-5.3693,-5.4146,-5.4399,-5.4399,-5.3766,-5.344,-5.344,-5.344,-5.3132,-5.2516,-5.3784,-5.4146,-5.3729,-5.4345,-5.4744,-5.4907,-5.4907,-5.4919,-5.5007,-5.5007,-5.5621,-5.6493,-5.5661,-5.5889,-5.6585,-5.5658,-5.5291,-5.5383,0.0,0.0,0.0,0.0,0.0,0.0,0.0,-1.9536,-1.9827,-1.9827,-1.9827,-1.9806,-1.9775,-1.9391,-1.9075,0.0,0.0,0.0,0.0,0.0,0.0,0.0,0.0,0.0,0.0,0.0,0.0,-2.3078,-2.3078,0.0,0.0,0.0,0.0,0.0,0.0,-2.3125,-2.3305,0.0,0.0,0.0,0.0,0.0,0.0,0.0,0.0,0.0,0.0,0.0,0.0,0.0,0.0,-3.5618,-3.8352,-4.2785,-4.6792,-4.6245,0.0,0.0,-5.1462,-5.2324,-5.2738,-4.9906,-4.7587,-4.5019,-4.1309,0.0,0.0,-3.5413,-3.6174,-3.7152,-3.7284,-3.8444,-3.9943,0.0,0.0,-4.3127,0.0,0.0,0.0,0.0,0.0,0.0,-5.0973,-5.1441,-5.1669,-5.1601,-5.2234,-5.2933,-5.3657,-5.3078,-5.2715,-5.2715,-5.2643,-5.2607,-5.2607,-5.2607,-5.257,-5.2498,-5.2643,-5.3059,-5.3693,-5.3784,-5.4218,-5.4907,-5.4907,-5.4919,-5.5007,-5.5007,-5.5574,-5.6353,-5.5504,-5.5733,-5.6262,-5.4838,-5.4316,-5.4378,0.0,0.0,0.0,0.0,0.0,0.0,-1.9075,-1.9536,-1.9827,-1.9827,-1.9827,-1.9827,-1.9827,-1.9344,-1.9075,-1.9075,0.0,0.0,0.0,0.0,0.0,0.0,0.0,0.0,0.0,0.0,-2.3078,-2.3078,-2.3078,0.0,0.0,0.0,0.0,0.0,0.0,-2.3721,-2.3793,0.0,0.0,0.0,0.0,0.0,0.0,0.0,0.0,0.0,0.0,0.0,0.0,0.0,0.0,0.0,-3.4722,-3.7828,0.0,0.0,-4.7391,-4.9972,-5.0999,-5.2324,-5.2821,-5.0386,-4.7769,-4.4953,-4.174,0.0,0.0,-3.5777,-3.639,-3.7251,-3.7698,-3.8593,-3.9524,-4.0159,0.0,0.0,0.0,0.0,0.0,0.0,-4.9361,0.0,-5.09,-5.2197,-5.3131,-5.3554,-5.2988,-5.296,-5.3675,-5.3403,-5.344,-5.3929,-5.3476,-5.3222,-5.3222,-5.2733,-5.2498,-5.2498,-5.2498,-5.2661,-5.2987,-5.2987,-5.315,-5.3458,-5.3458,-5.3487,-5.3515,-5.3515,-5.4034,-5.481,-5.3973,-5.4182,-5.4811,-5.3744,-5.3342,-5.346,0.0,0.0,0.0,0.0,0.0,-1.9008,-1.9075,-1.9536,-1.9827,-1.9827,-1.9827,-1.9827,-1.9827,-1.9344,-1.9075,-1.9075,-1.9075,0.0,0.0,0.0,0.0,0.0,0.0,0.0,0.0,0.0,-2.3078,-2.3078,-2.3078,-2.3078,0.0,0.0,-2.3078,-2.3138,0.0,0.0,0.0,0.0,0.0,0.0,0.0,0.0,0.0,0.0,0.0,0.0,0.0,0.0,0.0,0.0,0.0,0.0,0.0,0.0,0.0,0.0,-4.4852,-4.7754,-4.9074,-5.1041,-5.2258,-5.0104,-4.7504,-4.4705,0.0,0.0,0.0,-3.6208,-3.6771,-3.7599,-3.8112,-3.8791,-3.9272,-3.9272,0.0,-3.9947,-4.1466,0.0,0.0,0.0,0.0,-4.9052,-5.0258,-5.1979,-5.3371,-5.4251,-5.3327,-5.3039,-5.3742,-5.3707,-5.3856,-5.4182,-5.3639,-5.3349,-5.3349,-5.277,-5.2498,-5.2498,-5.2498,-5.2498,-5.2498,-5.2498,-5.2498,-5.2498,-5.2498,-5.2498,-5.2498,-5.2498,-5.3015,-5.3761,-5.2908,-5.3117,-5.3827,-5.3008,-5.2907,-5.3198,0.0,0.0,0.0,0.0,0.0,0.0,-1.9075,-1.9536,-1.9827,-1.9827,-1.9827,-1.9827,-1.9827,-1.9344,-1.9075,-1.9075,-1.9075,0.0,0.0,0.0,0.0,0.0,0.0,0.0,0.0,0.0,-2.3078,-2.3078,-2.3078,-2.3078,-2.3078,-2.3078,-2.3078,-2.3138,0.0,0.0,0.0,0.0,0.0,0.0,0.0,0.0,0.0,0.0,0.0,0.0,0.0,0.0,0.0,0.0,0.0,0.0,0.0,0.0,0.0,0.0,-4.111,-4.5961,-4.5261,-4.8097,-5.0767,-4.858,-4.6344,-4.3943,0.0,0.0,-3.7781,-3.6307,-3.7168,-3.8195,-3.8212,-3.8791,-3.9272,-3.9272,-3.9272,0.0,-4.1466,0.0,0.0,0.0,-4.6334,-4.6954,-4.8652,-5.0137,-5.1575,-5.2941,-5.2821,-5.3048,-5.3832,-5.3783,-5.3331,-5.2552,-5.2516,-5.2516,-5.2516,-5.2498,-5.2498,-5.2498,-5.2498,-5.2498,-5.2498,-5.2498,-5.2498,-5.2498,-5.2498,-5.2498,-5.2498,-5.2498,-5.2969,-5.3621,-5.2824,-5.2987,-5.3585,-5.2872,-5.3099,-5.379,0.0,0.0,0.0,0.0,0.0,0.0,0.0,-1.8795,-1.8887,-1.8887,-1.9022,-1.909,-1.909,-1.9091,-1.9075,-1.9075,-1.9075,0.0,0.0,0.0,0.0,0.0,0.0,0.0,0.0,0.0,-2.3078,-2.3078,-2.3527,-2.3527,-2.3078,-2.354,-2.3514,-2.3138,-2.4221,-2.4738,0.0,0.0,0.0,0.0,0.0,0.0,-2.9972,0.0,0.0,0.0,0.0,0.0,0.0,0.0,0.0,0.0,0.0,0.0,0.0,0.0,0.0,0.0,-4.232,-4.4477,-4.6028,-4.5177,-4.4108,-4.2717,-4.0812,0.0,0.0,-3.6953,-3.7533,-3.8212,-3.8212,-3.8791,-3.9272,-3.9272,-3.9702,0.0,0.0,0.0,0.0,-4.5334,-4.7826,-5.0325,-5.2404,-5.2686,-5.3021,-5.376,-5.3743,-5.3757,-5.3904,-5.3783,-5.3585,-5.3331,-5.3313,-5.3059,-5.2498,-5.2498,-5.2498,-5.2498,-5.2498,-5.2498,-5.2498,-5.2498,-5.2498,-5.2498,-5.2498,-5.2498,-5.2498,-5.2498,-5.2643,-5.2842,-5.2589,-5.2987,-5.3657,-5.345,-5.3849,-5.4538,0.0,0.0,0.0,0.0,0.0,0.0,0.0,-1.8482,-1.8482,-1.8482,-1.8617,-1.8751,-1.8808,-1.8942,-1.9008,-1.9065,-1.933,0.0,0.0,0.0,0.0,0.0,0.0,0.0,0.0,-2.3078,-2.3078,-2.3078,-2.3715,-2.3816,-2.3477,-2.3828,-2.3927,-2.379,-2.466,-2.5133,0.0,0.0,0.0,0.0,0.0,0.0,-3.0031,0.0,0.0,0.0,0.0,0.0,0.0,0.0,0.0,0.0,0.0,0.0,0.0,0.0,-3.345,0.0,0.0,-4.1144,-4.2733,-4.3069,-4.2237,0.0,0.0,0.0,0.0,0.0,0.0,-3.8626,-3.8626,-3.8974,-3.9272,-3.9272,-3.9669,-4.0067,0.0,0.0,0.0,-4.6001,-4.8654,-5.1056,-5.2728,-5.2924,-5.3224,-5.378,-5.3835,-5.3888,-5.4081,-5.3866,-5.3828,-5.3913,-5.3484,-5.3005,-5.2498,-5.2498,-5.2498,-5.2498,-5.2498,-5.2498,-5.2498,-5.2498,-5.2498,-5.2498,-5.2498,-5.2498,0.0,-5.2498,-5.2679,-5.2951,-5.2951,-5.344,-5.4146,-5.4146,-5.4653,-5.5305,0.0,0.0,0.0,0.0,0.0,0.0,0.0,-1.8482,-1.8482,-1.8482,-1.8482,-1.8549,-1.8741,-1.8808,-1.8942,-1.9131,0.0,0.0,0.0,0.0,0.0,0.0,0.0,0.0,-2.3078,-2.3078,-2.3078,-2.3078,-2.3753,-2.4042,-2.4004,-2.4079,-2.4415,-2.4896,-2.4989,-2.5397,-2.6045,-2.7187,-2.8057,-2.8739,-2.9319,-2.9958,0.0,0.0,0.0,0.0,0.0,0.0,0.0,0.0,0.0,0.0,0.0,0.0,0.0,0.0,0.0,0.0,0.0,0.0,0.0,0.0,0.0,0.0,0.0,0.0,0.0,0.0,0.0,0.0,0.0,-3.9272,-3.9272,-3.9272,-3.9355,-3.9669,0.0,-4.2419,0.0,0.0,-4.8994,-4.9726,-5.0476,-5.1531,-5.2455,-5.3196,-5.3212,-5.358,-5.4356,-5.4046,-5.3939,-5.4121,-5.3056,-5.2477,-5.2524,-5.2516,-5.2498,-5.2498,-5.2498,-5.2498,-5.2498,-5.2498,-5.2498,-5.2498,-5.2498,-5.2516,-5.2589,-5.2589,-5.3059,-5.3784,-5.3784,-5.4273,-5.4979,-5.4979,-5.545,-5.6084,0.0,0.0,0.0,0.0,0.0,0.0,0.0,0.0,0.0,0.0,-1.8347,-1.8549,-1.8549,-1.8875,-1.9264,0.0,0.0,0.0,0.0,0.0,0.0,0.0,0.0,0.0,-2.3078,-2.3078,-2.3078,-2.3078,-2.4142,-2.4406,-2.4017,-2.4833,-2.5078,-2.4922,-2.5405,-2.5966,-2.6621,-2.6886,-2.765,-2.8695,-2.884,-2.9581,0.0,0.0,0.0,0.0,-3.0628,-3.0702,0.0,0.0,0.0,0.0,0.0,0.0,0.0,0.0,-3.1367,-3.1614,-3.2839,0.0,-3.5663,-3.7847,-3.8044,0.0,0.0,0.0,0.0,0.0,0.0,0.0,0.0,0.0,0.0,-3.9272,-4.0183,-4.0978,-4.1143,0.0,0.0,-5.0325,-5.0824,-5.1194,-5.1648,-5.2489,-5.3078,-5.3399,-5.3293,-5.3598,-5.4356,-5.3626,-5.3215,-5.3296,-5.2445,-5.2253,-5.2645,-5.2564,-5.2498,-5.2498,-5.2498,-5.2498,-5.2498,-5.2498,-5.2498,-5.2498,-5.2498,-5.2842,-5.3422,-5.3422,-5.3892,-5.4617,-5.4617,-5.5088,-5.574,-5.574,-5.6228,-5.6917,0.0,0.0,0.0,0.0,0.0,0.0,0.0,0.0,0.0,0.0,0.0,0.0,0.0,0.0,0.0,0.0,0.0,0.0,0.0,0.0,0.0,0.0,0.0,-2.3078,-2.3078,-2.3078,-2.3078,-2.3078,-2.4268,-2.4669,-2.4393,-2.5523,-2.6103,-2.6188,-2.6862,-2.7158,-2.7258,-2.7839,-2.8477,-2.9131,-2.9435,0.0,0.0,0.0,0.0,0.0,-3.0568,-3.0642,0.0,-3.0642,-3.0702,-3.0821,0.0,0.0,0.0,0.0,-3.1117,-3.1511,-3.2342,-3.2992,-3.3948,-3.6117,-3.6747,-3.7194,0.0,0.0,0.0,0.0,0.0,0.0,0.0,0.0,0.0,0.0,-4.0216,0.0,0.0,0.0,-4.8049,-5.1054,-5.1403,-5.1605,-5.2215,-5.2738,-5.2976,-5.2724,-5.2799,-5.2882,-5.2951,-5.2745,-5.2514,-5.2175,-5.2014,-5.2005,-5.2175,-5.2507,-5.2768,-5.3041,-5.3041,-5.3041,-5.3041,-5.2661,-5.2697,-5.3041,-5.3041,-5.3512,-5.4255,-5.4255,-5.4707,-5.5395,-5.5395,-5.5866,-5.6536,-5.6536,-5.6826,-5.7188,0.0,0.0,0.0,0.0,0.0,0.0,0.0,0.0,0.0,0.0,0.0,0.0,0.0,0.0,0.0,0.0,0.0,0.0,0.0,0.0,0.0,0.0,0.0,-2.3078,-2.3078,-2.3078,-2.3175,-2.3263,-2.4305,-2.4922,-2.514,-2.6311,-2.711,-2.7612,-2.8282,-2.8231,-2.7741,-2.8869,-2.945,-2.9668,-3.0205,0.0,0.0,0.0,0.0,0.0,0.0,0.0,0.0,-3.0568,-3.0568,-3.0568,-3.0568,0.0,0.0,0.0,0.0,0.0,-3.274,-3.3288,-3.3976,-3.5857,-3.6319,-3.6799,0.0,0.0,0.0,0.0,0.0,0.0,0.0,0.0,0.0,0.0,0.0,0.0,-4.5798,-4.6941,-4.8332,-5.0817,-5.1313,-5.1595,-5.2063,-5.2477,-5.2434,-5.1749,-5.1848,-5.1693,-5.1251,-5.1617,-5.1627,-5.1048,-5.1423,-5.1612,-5.1525,-5.2355,-5.3139,-5.3713,-5.3827,-5.382,-5.3675,-5.3114,-5.3168,-5.3711,-5.3838,-5.4327,-5.507,-5.507,-5.5504,-5.6174,-5.6174,-5.6591,-5.7188,-5.7188,-5.7188,-5.7188,0.0,0.0,0.0,0.0,0.0,0.0,0.0,0.0,0.0,0.0,0.0,0.0,0.0,0.0,0.0,0.0,0.0,0.0,0.0,0.0,0.0,-2.3078,-2.3078,-2.3078,-2.3078,-2.3078,-2.3376,-2.3866,-2.4506,-2.5357,-2.6453,-2.7079,-2.7461,-2.7614,-2.7795,-2.7824,-2.7683,-2.7885,-2.8581,-2.9639,-2.9726,0.0,0.0,0.0,0.0,0.0,0.0,0.0,0.0,-3.0568,-3.0568,-3.0568,-3.0568,0.0,0.0,0.0,0.0,0.0,-3.2479,-3.3465,-3.4558,-3.6557,-3.7064,-3.7508,0.0,0.0,0.0,0.0,0.0,0.0,0.0,0.0,0.0,0.0,0.0,-4.5102,-4.8166,-4.9243,-4.9872,-5.032,-5.1462,-5.1831,-5.0807,-5.1325,-5.1528,-5.1127,-5.057,-5.05,-5.12,-5.0735,-5.0379,-5.0253,-5.0323,-5.06,-5.1072,-5.2236,-5.3187,-5.3882,-5.4427,-5.4363,-5.3729,-5.4291,-5.4237,-5.3748,-5.4418,-5.5142,-5.583,-5.583,-5.6301,-5.7007,-5.7007,-5.708,-5.7188,-5.7188,-5.7188,-5.7188,0.0,0.0,0.0,0.0,0.0,0.0,0.0,0.0,0.0,0.0,0.0,0.0,0.0,0.0,0.0,0.0,0.0,0.0,0.0,0.0,0.0,-2.3078,-2.3078,-2.3078,-2.3078,-2.3439,-2.3728,-2.4004,-2.4833,-2.5557,-2.6114,-2.7459,-2.8296,-2.8668,-2.8699,-2.8753,-2.8753,-2.8753,-2.929,-3.0132,0.0,0.0,0.0,0.0,0.0,0.0,0.0,0.0,0.0,0.0,-3.0568,-3.0568,-3.0568,0.0,0.0,0.0,0.0,0.0,-3.2418,-3.3756,-3.5154,-3.6743,-3.7512,-3.8127,0.0,0.0,0.0,0.0,0.0,0.0,0.0,0.0,0.0,-4.2518,0.0,-4.6046,-4.8199,-4.8465,-4.9011,-5.0601,-5.0684,-5.0869,-5.1436,-5.1123,-5.086,-5.0876,-5.0253,-4.9927,-5.0033,-4.9695,-4.9509,-4.9509,-4.9881,-5.0396,-5.1117,-5.2427,-5.3556,-5.4528,-5.4878,-5.499,-5.4943,-5.4907,-5.4925,-5.4961,-5.5323,-5.5921,-5.6645,-5.6645,-5.6862,-5.7188,-5.7188,-5.7188,-5.7188,-5.7188,-5.7188,-5.7188,0.0,0.0,0.0,0.0,0.0,0.0,0.0,0.0,0.0,0.0,0.0,0.0,0.0,0.0,0.0,0.0,0.0,0.0,0.0,0.0,-2.3078,-2.3078,-2.3203,-2.3339,-2.3339,-2.3766,-2.4117,-2.4368,-2.5197,-2.5848,-2.6306,-2.8147,-2.9209,-2.9624,-2.9624,-2.9624,-2.9624,-2.9624,-2.9987,-3.0568,0.0,0.0,0.0,0.0,0.0,0.0,0.0,0.0,0.0,0.0,0.0,0.0,0.0,0.0,0.0,-3.0568,-3.0744,-3.1229,-3.2585,-3.4106,-3.5608,-3.6877,0.0,-3.8743,0.0,0.0,0.0,0.0,0.0,0.0,0.0,0.0,0.0,-4.4854,-4.5963,-4.6957,-4.81,-4.7918,-4.8448,-5.0518,-4.9939,-4.9955,-5.1462,-5.0705,-5.0176,-5.0376,-5.0005,-4.9712,-4.948,-4.9526,-4.9526,-4.9526,-5.0067,-5.071,-5.1471,-5.2511,-5.3706,-5.4927,-5.5111,-5.5419,-5.5757,-5.5397,-5.5532,-5.5993,-5.6192,-5.6627,-5.7188,-5.7188,-5.7188,-5.7188,-5.7188,-5.7188,-5.7188,-5.7188,-5.7188,-5.7188,0.0,0.0,0.0,0.0,0.0,0.0,0.0,0.0,0.0,0.0,0.0,0.0,0.0,0.0,0.0,0.0,0.0,0.0,0.0,0.0,-2.3017,-2.2909,-2.3591,-2.3941,-2.3941,-2.3979,-2.4481,-2.5473,-2.5561,-2.649,-2.8295,-2.9766,-3.0174,-2.9624,-2.9624,-2.9624,-2.9624,-2.9624,-2.9987,-3.0568,-3.0568,0.0,0.0,0.0,0.0,0.0,0.0,0.0,0.0,0.0,0.0,0.0,0.0,0.0,-3.0568,-3.0568,-3.0988,-3.1722,-3.3077,-3.453,-3.5954,-3.7223,0.0,0.0,0.0,0.0,0.0,0.0,0.0,0.0,0.0,-4.2038,-4.4191,-4.6378,-4.7934,-4.8912,-4.9011,-4.9574,-4.9806,-4.9326,-4.9773,-4.9922,-4.9392,-4.9243,-4.9227,-4.9376,-4.9557,-5.0003,-5.0789,-5.1,-5.1065,-5.1065,-5.1099,-5.1488,-5.2215,-5.2332,-5.3079,-5.443,-5.5059,-5.5313,-5.5205,-5.5884,-5.6114,-5.6029,-5.679,-5.7152,-5.7188,-5.7188,-5.7188,-5.7188,-5.7188,-5.7188,-5.7188,-5.7188,-5.7188,-5.7188,0.0,0.0,0.0,0.0,0.0,0.0,0.0,0.0,0.0,0.0,0.0,0.0,0.0,0.0,0.0,0.0,0.0,0.0,0.0,-2.2714,-2.2969,-2.2909,-2.323,-2.3791,-2.4494,-2.482,-2.5184,-2.5598,-2.6394,-2.7577,-2.9219,-2.9747,-3.0061,-3.019,-2.9798,-2.9842,-3.019,-2.9798,-2.9987,-3.0568,-3.0568,-3.0568,0.0,0.0,0.0,0.0,0.0,0.0,0.0,0.0,-3.0568,0.0,0.0,0.0,-3.0568,-3.0568,-3.1032,-3.178,-3.3153,-3.4621,-3.6119,-3.7414,0.0,0.0,0.0,0.0,0.0,0.0,0.0,0.0,0.0,0.0,-4.6079,-4.7371,-4.8829,-4.979,-4.979,-4.9243,-4.9243,-5.0336,-4.9491,-4.9442,-5.0999,-4.9491,-4.9045,-5.0575,-4.9893,-4.9906,-5.094,-5.1039,-5.1088,-5.1217,-5.1657,-5.2029,-5.23,-5.2807,-5.3313,-5.3832,-5.4471,-5.4972,-5.5309,-5.5592,-5.5688,-5.5628,-5.5931,-5.6073,-5.6128,-5.6474,-5.6635,-5.6706,-5.7036,-5.7188,-5.7188,-5.7188,-5.7188,-5.7188,0.0,0.0,0.0,0.0,0.0,0.0,0.0,0.0,0.0,0.0,0.0,0.0,0.0,0.0,0.0,0.0,0.0,0.0,-2.2555,-2.2739,-2.2787,-2.2726,-2.307,-2.3729,-2.4743,-2.5335,-2.5686,-2.5875,-2.7142,-2.8312,-2.9282,-2.9685,-3.019,-3.0553,-3.0118,-3.0161,-3.0553,-3.0103,-3.0176,-3.0568,-3.0568,-3.0568,0.0,0.0,0.0,0.0,0.0,0.0,0.0,0.0,0.0,0.0,0.0,0.0,0.0,0.0,-3.1238,-3.2167,-3.3244,-3.4834,-3.6401,0.0,0.0,0.0,0.0,0.0,0.0,0.0,0.0,0.0,0.0,0.0,0.0,-4.7885,-4.9425,-5.0386,-4.9939,-4.8995,-4.8912,-5.0419,-4.926,-4.9226,-5.1479,-4.9872,-4.9476,-5.1323,-5.0508,-5.046,-5.1564,-5.1681,-5.1747,-5.1944,-5.2418,-5.2689,-5.2689,-5.323,-5.3501,-5.3501,-5.3881,-5.4471,-5.5069,-5.5069,-5.5207,-5.5385,-5.5385,-5.5385,-5.5443,-5.583,-5.6017,-5.609,-5.6474,-5.6758,-5.6915,-5.6915,-5.7036,-5.7188,0.0,0.0,0.0,0.0,0.0,0.0,0.0,0.0,0.0,0.0,0.0,0.0,0.0,0.0,0.0,0.0,0.0,0.0,-2.2432,-2.2616,-2.2616,-2.242,-2.3244,-2.399,-2.4573,-2.5281,-2.5887,-2.6521,-2.7855,-2.8492,-2.8556,-2.9917,-3.0568,-3.0568,-3.0568,-3.0568,-3.0568,-3.0568,-3.0568,-3.0568,-3.0568,-3.0568,-3.0568,0.0,0.0,0.0,0.0,0.0,0.0,0.0,0.0,0.0,0.0,0.0,0.0,0.0,-3.1635,-3.2956,-3.3517,-3.5171,0.0,0.0,0.0,0.0,0.0,0.0,0.0,0.0,0.0,-4.5168,-4.6643,-4.6924,-4.7173,-4.7901,-4.9856,-5.0767,-4.9326,-4.9127,-4.9127,-4.9127,-4.9127,-4.9409,-5.0171,-5.022,-5.0518,-5.1231,-5.1403,-5.191,-5.287,-5.311,-5.3264,-5.3501,-5.3501,-5.3501,-5.3501,-5.3501,-5.3501,-5.3501,-5.3501,-5.3832,-5.4391,-5.4391,-5.4765,-5.5385,-5.5385,-5.5385,-5.5385,-5.5332,-5.5332,-5.5385,-5.5385,-5.5733,-5.6311,-5.6311,-5.6688,-5.7188,0.0,0.0,0.0,0.0,0.0,0.0,0.0,0.0,0.0,0.0,0.0,0.0,0.0,0.0,0.0,0.0,0.0,0.0,-2.2802,-2.2639,-2.2482,-2.242,-2.3244,-2.399,-2.4573,-2.6098,-2.7235,-2.792,-2.7857,-2.8616,-2.9979,-2.9925,-3.0147,-3.0568,-3.0568,-3.0568,-3.0568,-3.0568,-3.0568,-3.0568,-3.0568,-3.0568,-3.0568,0.0,0.0,0.0,0.0,0.0,0.0,0.0,0.0,0.0,0.0,0.0,0.0,0.0,-3.1878,-3.3337,-3.3498,0.0,0.0,0.0,0.0,0.0,0.0,0.0,0.0,0.0,-4.7835,-4.7305,-4.8266,-4.8879,-4.9293,-4.9525,-5.0518,-5.1131,-5.0701,-5.0204,-5.0071,-5.0568,-5.0187,-5.0369,-5.1628,-5.0817,-5.0717,-5.1959,-5.1632,-5.1788,-5.287,-5.2972,-5.3127,-5.3501,-5.3501,-5.3501,-5.3501,-5.3501,-5.3213,-5.2655,-5.323,-5.3618,-5.3783,-5.3783,-5.3849,-5.4028,-5.4028,-5.4028,-5.4093,-5.4516,-5.4948,-5.5385,-5.5385,-5.5502,-5.5676,-5.5676,-5.6017,-5.6599,0.0,0.0,0.0,0.0,0.0,0.0,0.0,0.0,0.0,0.0,0.0,0.0,0.0,0.0,0.0,0.0,0.0,0.0,0.0,-2.2914,-2.2674,-2.2736,-2.3304,-2.4025,-2.4991,-2.6631,-2.7868,-2.8492,-2.842,-2.8884,-2.9817,-2.9941,-3.0205,-3.0568,-3.0568,-3.0568,-3.0568,-3.0568,-3.0568,-3.0568,-3.0568,-3.0568,-3.0568,0.0,0.0,0.0,0.0,0.0,0.0,0.0,0.0,0.0,0.0,0.0,0.0,-3.111,-3.232,-3.3821,-3.4379,0.0,0.0,0.0,0.0,0.0,0.0,0.0,0.0,0.0,0.0,-4.911,-4.9839,-5.0104,-5.0303,-5.0585,-5.1247,-5.1612,-5.1313,-5.0899,-5.08,-5.1231,-5.0899,-5.1098,-5.2274,-5.1595,-5.1429,-5.2307,-5.203,-5.2041,-5.2451,-5.2537,-5.2555,-5.2604,-5.2604,-5.2604,-5.2604,-5.2604,-5.235,-5.1877,-5.2367,-5.2604,-5.2621,-5.323,-5.3501,-5.3501,-5.3501,-5.3501,-5.3501,-5.3898,-5.4316,-5.4631,-5.4631,-5.4782,-5.5009,-5.5009,-5.5367,-5.5961,0.0,0.0,0.0,0.0,0.0,0.0,0.0,0.0,0.0,0.0,0.0,0.0,0.0,0.0,0.0,0.0,0.0,0.0,0.0,0.0,-2.3115,-2.322,-2.3484,-2.4273,-2.564,-2.6919,-2.7867,-2.8393,-2.9171,-2.9285,-2.8806,-2.9995,-3.051,-3.0568,-3.0568,-3.0568,-3.0568,-3.0568,-3.0568,-3.0568,-3.0568,-3.0568,-3.0568,-3.0568,0.0,0.0,0.0,0.0,0.0,0.0,0.0,0.0,0.0,0.0,0.0,-3.1477,-3.2795,-3.4271,0.0,0.0,0.0,0.0,0.0,0.0,0.0,0.0,0.0,-5.2042,0.0,-5.0618,-5.1264,-5.085,-5.0618,-5.1264,-5.1943,-5.2142,-5.1462,-5.138,-5.138,-5.138,-5.138,-5.1645,-5.2307,-5.2373,-5.2357,-5.2274,-5.24,-5.2277,-5.1731,-5.1917,-5.1747,-5.1234,-5.1217,-5.1217,-5.1217,-5.1217,-5.1183,-5.1116,-5.1183,-5.1183,-5.1166,-5.2706,-5.3433,-5.3501,-5.3501,-5.3467,-5.3399,-5.3399,-5.3399,-5.3399,-5.3399,-5.3781,-5.4345,-5.4345,-5.4703,-5.5325,0.0,0.0,0.0,0.0,0.0,0.0,0.0,0.0,0.0,0.0,0.0,0.0,0.0,0.0,0.0,0.0,0.0,0.0,0.0,0.0,-2.3658,-2.3658,-2.4401,-2.5174,-2.6114,-2.7563,-2.8094,-2.776,-2.8456,-2.927,-3.017,-2.9942,-3.0103,-3.0568,-3.0568,-3.0568,-3.0568,-3.0568,-3.0568,-3.0568,-3.0568,-3.0568,-3.0568,-3.0568,-3.0568,0.0,0.0,0.0,0.0,0.0,0.0,0.0,0.0,-3.0916,-3.125,-3.0947,-3.2244,0.0,0.0,0.0,0.0,0.0,0.0,0.0,0.0,0.0,0.0,-5.0651,-5.133,-5.1959,-5.2108,-5.2009,-5.1959,-5.2125,-5.2274,-5.2324,-5.2175,-5.2142,-5.2142,-5.2142,-5.2142,-5.2208,-5.2357,-5.2373,-5.2142,-5.1562,-5.1636,-5.151,-5.0995,-5.116,-5.1208,-5.1217,-5.1217,-5.1217,-5.1217,-5.1217,-5.093,-5.0338,-5.093,-5.0913,-5.0388,-5.1877,-5.2909,-5.3501,-5.3501,-5.3145,-5.2553,-5.2553,-5.2553,-5.2553,-5.2553,-5.2992,-5.3668,-5.3668,-5.4059,-5.4641,0.0,0.0,0.0,0.0,0.0,0.0,0.0,0.0,0.0,0.0,0.0,0.0,0.0,0.0,0.0,0.0,0.0,0.0,0.0,0.0,-2.4201,-2.4414,-2.4952,-2.5737,-2.6842,-2.7956,-2.851,-2.8577,-2.9231,-2.9777,-3.0118,-3.0089,-3.0263,-3.0568,-3.0568,-3.0568,-3.0568,-3.0568,-3.0568,-3.0568,-3.0568,-3.0568,-3.0568,-3.0568,-3.0568,-3.0568,-3.0568,0.0,0.0,0.0,0.0,0.0,0.0,0.0,-3.244,-3.2553,-3.3765,-3.52,0.0,0.0,0.0,0.0,0.0,0.0,0.0,0.0,-4.9872,-5.0585,-5.133,-5.1959,-5.2307,-5.2373,-5.2373,-5.2373,-5.2373,-5.2373,-5.2373,-5.2373,-5.2373,-5.2373,-5.2373,-5.2373,-5.2373,-5.2059,-5.1694,-5.1313,-5.1208,-5.0827,-5.0225,-5.0435,-5.046,-5.0168,-5.0168,-5.0168,-5.0168,-5.0168,-4.9949,-4.9576,-4.9965,-5.0135,-5.0135,-5.1268,-5.2012,-5.2418,-5.2418,-5.2164,-5.1775,-5.1775,-5.1775,-5.1809,-5.2164,-5.2553,-5.2976,-5.3365,-5.3668,-5.3946,0.0,0.0,0.0,0.0,0.0,0.0,0.0,0.0,0.0,0.0,0.0,0.0,0.0,0.0,0.0,0.0,0.0,0.0,0.0,0.0,0.0,-2.5098,-2.529,-2.5963,-2.7204,-2.8051,-2.8762,-2.9421,-3.019,-3.0306,-2.9798,-3.0321,-3.0568,-3.0568,-3.0568,-3.0568,-3.0568,-3.0568,-3.0568,-3.0582,-3.0684,-3.0669,-3.0582,-3.0698,-3.0669,-3.0582,-3.0698,-3.0742,-3.0843,-3.1482,0.0,0.0,0.0,0.0,-3.3798,-3.447,-3.5496,-3.6592,0.0,0.0,0.0,0.0,0.0,0.0,0.0,0.0,-4.9144,-5.0601,-5.0999,-5.1313,-5.2042,-5.2092,-5.2042,-5.2175,-5.2191,-5.2224,-5.2357,-5.2373,-5.2373,-5.2373,-5.2274,-5.2241,-5.2373,-5.1595,-5.1098,-5.1098,-5.0743,-5.0191,-4.9438,-4.9725,-4.9627,-4.9018,-4.9001,-4.9001,-4.9001,-4.9001,-4.9001,-4.9001,-4.9001,-4.9323,-4.9915,-5.0541,-5.098,-5.1217,-5.1217,-5.115,-5.1014,-5.1014,-5.1014,-5.1099,-5.1826,-5.2198,-5.2401,-5.3213,-5.3501,-5.3501,0.0,0.0,0.0,0.0,0.0,0.0,0.0,0.0,0.0,0.0,0.0,0.0,0.0,0.0,0.0,0.0,0.0,0.0,-2.5312,0.0,0.0,-2.5274,-2.5426,-2.5742,-2.6107,-2.7524,-2.8363,-2.8634,-2.9979,-3.0524,0.0,0.0,-3.0568,-3.0568,-3.0568,-3.0568,-3.0568,-3.0568,-3.0568,-3.0626,-3.1177,-3.1061,-3.064,-3.1177,-3.1061,-3.064,-3.1192,-3.1395,-3.1496,-3.2164,-3.2745,0.0,0.0,0.0,-3.4298,-3.4385,-3.5039,0.0,0.0,0.0,0.0,0.0,0.0,0.0,0.0,0.0,-4.7603,-4.9094,-4.9906,-5.0568,-5.1297,-5.0916,-5.0701,-5.1313,-5.1429,-5.1645,-5.2291,-5.2373,-5.2373,-5.2373,-5.181,-5.1678,-5.2324,-5.1148,-5.0353,-5.0353,-4.9976,-4.9421,-4.8668,-4.895,-4.9103,-4.9001,-4.9001,-4.9001,-4.9001,-4.9001,-4.9001,-4.9001,-4.9001,-4.9052,-4.9154,-4.9255,-4.9999,-5.1217,-5.1217,-5.0845,-5.0236,-5.0236,-5.0236,-5.0321,-5.1065,-5.1742,-5.2401,-5.3213,-5.3501,-5.3501,0.0,0.0,0.0,0.0,0.0,0.0,0.0,0.0,0.0,0.0,0.0,0.0,0.0,0.0,0.0,-2.5288,-2.5312,-2.5312,-2.5312,-2.5312,-2.5382,-2.5453,-2.5676,-2.6151,-2.7082,-2.792,-2.8762,-2.9532,-3.0251,0.0,0.0,-3.0568,-3.0568,0.0,-3.0568,-3.0568,-3.0568,-3.0568,-3.0785,-3.1134,-3.1409,-3.1351,-3.1177,-3.183,-3.1671,-3.1192,-3.1845,-3.2309,-3.2658,-3.2948,-3.347,-3.3993,-3.3993,0.0,0.0,0.0,-3.6008,0.0,0.0,0.0,0.0,0.0,0.0,0.0,0.0,0.0,-4.7206,-4.8266,-4.8746,-4.9326,-5.0469,-5.0419,-5.032,-5.0634,-5.0684,-5.0932,-5.1661,-5.1413,-5.1313,-5.1711,-5.1115,-5.08,-5.1131,-5.022,-4.9591,-4.9591,-4.9209,-4.8835,-4.85,-4.8815,-4.9001,-4.9001,-4.9001,-4.9001,-4.9001,-4.9001,-4.9001,-4.9001,-4.9001,-4.9001,-4.9001,-4.9001,-4.9357,-4.9982,-4.9982,-4.9779,-4.9475,-4.9475,-4.9475,-4.956,-5.0304,-5.1031,-5.1742,-5.2097,-5.2773,-5.345,0.0,0.0,0.0,0.0,0.0,0.0,0.0,0.0,0.0,0.0,0.0,0.0,0.0,0.0,0.0,0.0,-2.5312,-2.5312,-2.5312,-2.5312,-2.5382,-2.5535,-2.5688,-2.6277,-2.7391,-2.8051,-2.8826,-2.9794,0.0,0.0,-3.0568,-3.0568,-3.0655,0.0,-3.0814,-3.0814,0.0,0.0,0.0,-3.1772,-3.1772,-3.1772,-3.183,-3.2324,-3.2208,-3.1859,-3.2513,-3.3064,-3.3485,-3.3659,-3.4124,-3.4646,-3.4646,-3.5082,0.0,0.0,0.0,0.0,0.0,0.0,0.0,0.0,0.0,0.0,0.0,0.0,-4.6314,-4.7276,-4.7572,-4.8117,-4.9409,-4.9657,-4.9707,-4.9906,-4.9939,-5.0187,-5.0899,-5.0551,-5.0402,-5.0949,-5.0369,-5.0005,-5.0187,-4.9375,-4.8912,-4.9094,-4.866,-4.842,-4.8483,-4.8815,-4.8956,-4.8956,-4.9001,-4.9001,-4.8956,-4.8832,-4.8629,-4.8443,-4.8365,-4.8365,-4.846,-4.8585,-4.8669,-4.8731,-4.8934,-4.9001,-4.8956,-4.9001,-4.9001,-4.9024,-4.9813,-5.0439,-5.0947,-5.115,-5.2063,-5.3112,0.0,0.0,0.0,0.0,0.0,0.0,0.0,0.0,0.0,0.0,0.0,0.0,-2.5312,-2.5312,-2.5312,-2.5312,-2.5312,-2.5312,-2.5312,-2.5312,-2.5312,-2.5312,-2.5312,0.0,-2.5746,-2.7258,-2.8117,0.0,0.0,0.0,-3.0568,-3.0568,-3.0901,-3.1467,-3.1467,-3.1467,-3.1511,0.0,0.0,0.0,-3.2469,-3.2469,-3.2469,-3.2513,-3.2498,-3.2556,-3.3195,-3.3441,-3.3558,-3.4167,-3.4791,-3.5314,-3.5314,-3.5749,-3.6272,0.0,0.0,0.0,0.0,0.0,0.0,0.0,0.0,0.0,0.0,0.0,-4.4191,-4.5602,-4.6454,-4.7189,-4.7968,-4.8117,-4.8349,-4.9044,-4.9177,-4.9425,-5.0171,-5.0237,-5.022,-5.027,-4.9624,-4.9442,-5.0154,-4.8912,-4.8349,-4.9061,-4.853,-4.8292,-4.8483,-4.8707,-4.8786,-4.8786,-4.894,-4.8956,-4.8786,-4.8264,-4.7614,-4.6904,-4.6692,-4.6752,-4.6921,-4.7528,-4.7848,-4.802,-4.8714,-4.8956,-4.8832,-4.8956,-4.8956,-4.8916,-4.975,-5.0101,-5.0236,-5.0947,-5.1708,-5.2367,0.0,0.0,0.0,0.0,0.0,0.0,0.0,0.0,0.0,0.0,0.0,0.0,0.0,-2.5312,-2.5312,-2.5312,-2.5312,-2.5312,-2.5312,-2.5312,-2.5312,-2.5312,-2.5382,-2.5734,-2.6264,-2.7524,-2.8376,0.0,0.0,-3.0568,-3.0568,-3.0568,-3.0698,-3.093,-3.1337,-3.1758,-3.2179,-3.2425,-3.2759,-3.3122,-3.3122,-3.3122,-3.3166,-3.3572,-3.3485,-3.3209,-3.3848,-3.4341,-3.4661,-3.4472,-3.4835,-3.5285,-3.4878,-3.4907,-3.5183,-3.559,-3.5706,-3.5776,0.0,0.0,0.0,0.0,0.0,0.0,-4.0275,-4.1437,-4.2574,-4.3573,-4.474,-4.5734,-4.6463,-4.7355,-4.81,-4.8349,-4.8398,-4.8647,-4.9392,-4.9094,-4.8961,-4.9442,-4.8845,-4.8514,-4.8763,-4.8315,-4.8117,-4.8382,-4.8264,-4.8227,-4.8292,-4.8048,-4.814,-4.861,-4.781,-4.7443,-4.7537,-4.719,-4.6844,-4.6591,-4.6471,-4.6411,-4.6488,-4.68,-4.7248,-4.7798,-4.7989,-4.8377,-4.8769,-4.8832,-4.8769,-4.8644,-4.9118,-4.9569,-4.9974,-4.9818,-5.0557,-5.1606,0.0,0.0,0.0,0.0,0.0,0.0,0.0,0.0,0.0,-2.5158,0.0,0.0,0.0,0.0,-2.5312,-2.5312,-2.5312,-2.5312,-2.5312,-2.5312,-2.5312,-2.5312,-2.5453,-2.5734,-2.6346,-2.7524,-2.8376,0.0,0.0,0.0,0.0,-3.1119,-3.1337,-3.1569,-3.199,-3.2295,0.0,-3.2977,-3.3398,-3.3761,-3.3558,-3.3601,-3.3804,-3.4008,-3.3964,-3.3833,-3.4269,-3.469,-3.498,-3.4559,-3.4704,-3.4965,-3.4545,-3.4414,-3.4545,-3.5169,-3.5427,-3.5427,-3.5481,0.0,0.0,0.0,0.0,-3.7514,-3.834,-3.9533,-4.0785,-4.1789,-4.3106,-4.4366,-4.5304,-4.6272,-4.7062,-4.7522,-4.7835,-4.8166,-4.8663,-4.8315,-4.8183,-4.868,-4.8299,-4.8001,-4.8001,-4.8001,-4.8001,-4.8001,-4.7817,-4.7797,-4.7878,-4.7554,-4.763,-4.8161,-4.7032,-4.6413,-4.643,-4.622,-4.601,-4.5774,-4.5554,-4.5511,-4.557,-4.6116,-4.6545,-4.6875,-4.7362,-4.8001,-4.8707,-4.8707,-4.8564,-4.842,-4.8707,-4.9089,-4.9459,-4.9125,-4.9932,-5.1183,0.0,0.0,0.0,0.0,0.0,0.0,0.0,0.0,-2.357,-2.5111,0.0,0.0,0.0,0.0,0.0,-2.5312,-2.5312,-2.5312,-2.5312,-2.5324,-2.5336,-2.5336,-2.5348,-2.5431,-2.5654,-2.7175,-2.8105,0.0,0.0,0.0,0.0,0.0,-3.2846,-3.3441,-3.3456,-3.3122,-3.2629,-3.3877,-3.4414,-3.4356,-3.3746,-3.3862,-3.4356,-3.3732,-3.3877,-3.4414,-3.4414,-3.4414,-3.4414,-3.4414,-3.4414,-3.4414,-3.4414,-3.4414,-3.453,-3.5154,-3.5343,-3.5343,0.0,0.0,0.0,0.0,0.0,0.0,-3.6862,-3.7638,-3.8592,-4.0235,-4.1641,-4.3069,-4.4415,-4.469,-4.5196,-4.6581,-4.7406,-4.7902,-4.7902,-4.7902,-4.7968,-4.7968,-4.7968,-4.7968,-4.7934,-4.7968,-4.7984,-4.7934,-4.7289,-4.6971,-4.7162,-4.7162,-4.7237,-4.7463,-4.6686,-4.6042,-4.5686,-4.5479,-4.5033,-4.4293,-4.3998,-4.3956,-4.4147,-4.5424,-4.5751,-4.5252,-4.6709,-4.7747,-4.8416,-4.8433,-4.8339,-4.8227,-4.8644,-4.8786,-4.8769,-4.8956,-4.9932,-5.1082,0.0,0.0,0.0,0.0,0.0,0.0,-2.3427,-2.3988,-2.4671,0.0,0.0,0.0,-2.5312,-2.5312,-2.5312,-2.5312,-2.5312,-2.5312,-2.5312,-2.5661,-2.5877,-2.5877,-2.6262,-2.6626,-2.6993,-2.7881,-2.8838,0.0,0.0,0.0,0.0,0.0,0.0,0.0,-3.3267,-3.3369,-3.3267,-3.4066,-3.4414,-3.4399,-3.4225,-3.4254,-3.4385,-3.4211,-3.4254,-3.4414,-3.4414,-3.4414,-3.4414,-3.4414,-3.4414,-3.4414,-3.4414,-3.4414,-3.4443,-3.4617,-3.4675,-3.4675,-3.4675,0.0,0.0,0.0,0.0,0.0,-3.5851,-3.6387,-3.7288,-3.9213,-3.9993,-4.0805,-4.2135,-4.2839,-4.3304,-4.3696,-4.4853,-4.5794,-4.6336,-4.6336,-4.6536,-4.7141,-4.7206,-4.699,-4.646,-4.7371,-4.7554,-4.6493,-4.6709,-4.6659,-4.6192,-4.6175,-4.5818,-4.495,-4.514,-4.5016,-4.4531,-4.4357,-4.4198,-4.3998,-4.3822,-4.3687,-4.3763,-4.4238,-4.4723,-4.51,-4.544,-4.6041,-4.6774,-4.7325,-4.7778,-4.8066,-4.8308,-4.8373,-4.8373,-4.8547,-4.9358,-5.0231,0.0,0.0,0.0,0.0,0.0,-2.2611,-2.3536,-2.386,-2.4494,0.0,0.0,0.0,-2.5312,-2.5312,-2.5312,-2.5312,-2.5516,-2.5636,-2.5636,-2.6142,-2.6442,-2.6442,-2.6755,-2.7073,-2.736,-2.8119,-2.9028,0.0,0.0,0.0,0.0,0.0,0.0,0.0,0.0,0.0,-3.3891,-3.4254,-3.4414,-3.4414,-3.4414,-3.4414,-3.4414,-3.4414,-3.4414,-3.4414,-3.4414,-3.4414,-3.4414,-3.4414,-3.4588,-3.4762,-3.4501,-3.4588,-3.4762,-3.4486,-3.4414,-3.4414,-3.4414,-3.4414,-3.4414,-3.4414,0.0,0.0,-3.5204,-3.5495,-3.6127,-3.7752,-3.8417,-3.9013,-4.0075,-4.0829,-4.1283,-4.1283,-4.2194,-4.3388,-4.4701,-4.5172,-4.5537,-4.5962,-4.63,-4.6262,-4.5831,-4.6576,-4.6725,-4.5847,-4.5897,-4.5781,-4.5351,-4.5052,-4.4699,-4.4347,-4.4447,-4.4356,-4.4097,-4.3956,-4.3898,-4.3898,-4.3704,-4.3628,-4.3628,-4.4062,-4.4278,-4.4394,-4.4693,-4.5241,-4.6034,-4.6466,-4.7018,-4.757,-4.8046,-4.8227,-4.8227,-4.842,-4.9097,-4.9863,0.0,0.0,-2.1924,-2.1991,-2.1725,-2.2049,-2.359,-2.3479,-2.3722,0.0,-2.5432,-2.5396,-2.5396,-2.5444,-2.5516,-2.5576,-2.6009,-2.6298,-2.6358,-2.6887,-2.7176,-2.7115,-2.7164,-2.7239,-2.7381,-2.8161,-2.9067,0.0,0.0,0.0,0.0,0.0,0.0,0.0,0.0,0.0,0.0,-3.4414,-3.4414,-3.4414,-3.4414,-3.4414,-3.4414,-3.4414,-3.4414,-3.4414,-3.4414,-3.4414,-3.4414,-3.4414,-3.4791,-3.5154,-3.4588,-3.4806,-3.514,-3.4574,-3.4414,-3.4428,-3.4501,-3.4516,-3.453,-3.4603,-3.4617,0.0,-3.511,-3.5133,-3.5429,-3.6522,-3.7218,-3.7781,-3.8488,-3.918,-3.9625,-3.9625,-4.0035,-4.1149,-4.3183,-4.4045,-4.4478,-4.4543,-4.5064,-4.5428,-4.5346,-4.5557,-4.559,-4.5425,-4.4937,-4.4572,-4.4572,-4.3976,-4.3986,-4.4737,-4.4155,-4.3939,-4.4039,-4.3956,-4.3898,-4.3839,-4.3704,-4.3628,-4.3645,-4.4274,-4.4224,-4.3661,-4.4291,-4.4986,-4.5682,-4.5765,-4.6278,-4.709,-4.7849,-4.8163,-4.8163,-4.8356,-4.9033,-4.9732,0.0,0.0,-2.2335,-2.2341,-2.2808,-2.3667,-2.5104,-2.4835,-2.4964,-2.6402,-2.6226,-2.5937,-2.5937,-2.6346,-2.6791,-2.7212,-2.7344,-2.7584,-2.8005,-2.8546,-2.8643,-2.8222,-2.8607,-2.879,-2.8746,-2.8876,-2.9542,0.0,0.0,0.0,0.0,0.0,0.0,0.0,0.0,0.0,0.0,-3.4414,-3.4414,-3.4414,-3.4414,-3.4414,-3.4414,-3.4414,-3.4414,-3.4414,-3.4414,-3.4414,-3.4414,-3.4414,-3.4501,-3.4574,-3.4443,-3.4501,-3.4574,-3.4443,-3.4414,-3.453,-3.5038,-3.5169,-3.5299,-3.5807,-3.5938,0.0,-3.6677,-3.6684,-3.6851,-3.8073,-3.8292,-3.8406,-3.9098,-3.9775,-4.0212,-4.0212,-4.0306,-4.0794,-4.1875,-4.207,-4.2316,-4.2944,-4.3145,-4.2988,-4.2379,-4.3978,-4.4512,-4.3276,-4.3591,-4.3827,-4.3827,-4.3694,-4.3694,-4.3827,-4.3711,-4.3687,-4.3687,-4.3687,-4.3628,-4.3628,-4.3628,-4.3628,-4.3628,-4.3761,-4.3761,-4.3628,-4.3761,-4.4241,-4.4953,-4.5549,-4.6576,-4.7802,-4.7934,-4.8066,-4.8049,-4.8066,-4.8662,-4.9391,-2.1924,-2.2217,-2.2557,-2.2695,-2.2971,-2.366,-2.5351,-2.5057,-2.5142,-2.6661,-2.6923,-2.7007,-2.7272,-2.756,-2.7825,-2.8089,-2.8114,-2.8342,-2.8871,-2.9148,-2.9304,-2.9304,-2.9374,-2.9403,-2.9365,-2.9253,-2.9716,-3.0745,0.0,0.0,0.0,0.0,0.0,0.0,0.0,0.0,0.0,-3.4414,-3.4588,-3.4864,-3.4545,-3.4414,-3.4414,-3.4414,-3.4414,-3.4414,-3.4414,-3.4414,-3.4414,-3.4414,-3.4835,-3.5256,-3.4617,-3.4849,-3.5299,-3.498,-3.4893,-3.5024,-3.5662,-3.5836,-3.5909,-3.6228,-3.6301,0.0,0.0,-3.7097,-3.7328,-3.7836,-3.8377,-3.8653,-3.8482,-3.923,-3.9903,-3.9903,-3.9619,-3.9884,-4.1301,-4.0913,-4.0585,-4.0992,-4.1362,-4.1417,-4.102,-4.2282,-4.2829,-4.2109,-4.271,-4.3113,-4.3113,-4.3432,-4.3628,-4.3628,-4.3628,-4.3628,-4.3628,-4.3628,-4.3628,-4.3628,-4.3628,-4.3628,-4.3628,-4.3628,-4.3628,-4.3645,-4.3992,-4.4572,-4.5301,-4.603,-4.699,-4.8001,-4.8001,-4.8001,-4.8001,-4.8001,-4.8364,-4.8744,-2.21,-2.2334,-2.2646,-2.3104,-2.3031,-2.3546,-2.5599,-2.5408,-2.553,-2.6983,-2.7705,-2.8186,-2.8619,-2.8751,-2.8895,-2.91,-2.9027,-2.9184,-2.9725,-2.9665,-2.9749,-3.0074,-2.9733,-2.9573,-2.9752,-2.9628,-2.988,-3.0547,0.0,0.0,0.0,0.0,0.0,0.0,0.0,0.0,0.0,-3.4578,-3.4893,-3.5314,-3.4806,-3.4661,-3.4762,-3.4646,-3.4588,-3.4588,-3.4457,-3.4414,-3.4428,-3.4559,-3.5285,-3.5967,-3.5067,-3.5488,-3.6199,-3.5706,-3.5546,-3.5691,-3.633,-3.6504,-3.6533,-3.6649,-3.6678,-3.675,0.0,0.0,0.0,-3.7493,-3.829,-3.885,-3.7918,-3.8796,-3.9574,-3.9439,-3.9155,-3.9484,-4.098,-4.0182,-3.9566,-3.9826,-3.9889,-4.0081,-4.0423,-4.1119,-4.1468,-4.1525,-4.2173,-4.2525,-4.2396,-4.2912,-4.3174,-4.3174,-4.3355,-4.3432,-4.3432,-4.3568,-4.3628,-4.3628,-4.3628,-4.3628,-4.3628,-4.3761,-4.3827,-4.386,-4.4589,-4.5317,-4.6046,-4.6643,-4.7338,-4.8001,-4.8001,-4.8001,-4.8001,-4.8001,-4.8049,-4.8163,-2.2852,-2.2734,-2.2745,-2.3504,-2.3932,-2.484,-2.6725,-2.7202,-2.7555,-2.827,-2.8799,-2.9136,-2.9208,-2.9629,-3.029,-3.1216,-3.0879,-3.0831,-3.136,-3.0951,-3.0506,-3.011,-2.9581,-2.9603,-3.0323,-3.0069,-3.0016,-3.0219,-3.0495,0.0,0.0,0.0,0.0,0.0,-3.3796,0.0,0.0,-3.5193,-3.5369,-3.5427,-3.5354,-3.559,-3.604,-3.5473,-3.5256,-3.5183,-3.4617,-3.4414,-3.4501,-3.5067,-3.5357,-3.5546,-3.5967,-3.6185,-3.6301,-3.6228,-3.6199,-3.6344,-3.7012,-3.7201,-3.7317,-3.7854,-3.7984,-3.7984,-3.7984,0.0,-3.8458,-3.859,0.0,-3.9133,-3.9143,0.0,0.0,-3.9514,-4.0337,-4.092,-4.0561,-3.9886,-3.9869,-4.104,-3.9159,-3.8476,-4.0269,-4.1026,-4.1426,-4.1507,-4.2161,-4.224,-4.1623,-4.1722,-4.1722,-4.1722,-4.238,-4.271,-4.271,-4.3295,-4.3628,-4.3628,-4.3628,-4.3628,-4.3645,-4.4274,-4.4572,-4.4605,-4.5334,-4.6079,-4.6775,-4.6874,-4.7338,-4.8001,-4.8001,-4.8001,-4.8001,-4.8001,-4.8001,-4.8001,-2.249,-2.2471,-2.2924,-2.4312,-2.4764,-2.5703,-2.8058,-2.8521,-2.8823,-2.9352,-2.9617,-2.9869,-3.0182,-3.0687,-3.118,-3.1625,-3.0903,-3.0771,-3.1613,-3.0879,-3.0591,-3.0987,-3.0749,-3.0589,-3.0587,-3.0696,-3.0667,-3.0423,-3.0829,0.0,0.0,0.0,0.0,0.0,-3.289,-3.3403,-3.4461,-3.4654,-3.5209,-3.5909,-3.5909,-3.6301,-3.6736,-3.5343,-3.482,-3.482,-3.4922,-3.4965,-3.5067,-3.5691,-3.6402,-3.6925,-3.646,-3.707,-3.7839,-3.7114,-3.7128,-3.7549,-3.8217,-3.813,-3.7984,-3.8623,-3.8492,-3.8202,-3.8202,-3.8658,-3.9044,-3.887,0.0,0.0,0.0,0.0,0.0,0.0,-4.0127,-4.0412,-4.0905,-3.9723,-3.917,-4.0127,-3.8901,-3.8467,-3.9709,-4.0435,-4.0648,-4.0331,-4.1272,-4.1572,-4.0972,-4.126,-4.1525,-4.1525,-4.1787,-4.219,-4.2585,-4.2912,-4.3235,-4.3628,-4.3628,-4.3843,-4.4257,-4.4556,-4.492,-4.5367,-4.6113,-4.6609,-4.6924,-4.7355,-4.7719,-4.8001,-4.8001,-4.8001,-4.8001,-4.8001,-4.8001,-4.8001,-2.2764,0.0,-2.3312,-2.4767,-2.5221,-2.6312,-2.8928,-2.9424,-2.9653,-3.0037,-3.0086,-3.029,-3.0819,-3.148,-3.1949,-3.2094,-3.1408,-3.1156,-3.1637,-3.0807,-3.0518,-3.0999,-3.1126,-3.0967,-3.0723,-3.1212,-3.1272,-3.0817,-3.1354,0.0,0.0,0.0,0.0,0.0,0.0,-3.2701,-3.3996,-3.4273,-3.4808,-3.5439,-3.5898,-3.6344,-3.6635,-3.5401,-3.482,-3.4762,-3.5386,-3.5619,-3.572,-3.6359,-3.7201,-3.7825,-3.707,-3.7796,-3.8739,-3.7825,-3.7854,-3.8347,-3.903,-3.8841,-3.8594,-3.9088,-3.8826,-3.8434,-3.8246,-3.8862,-3.9349,-3.9091,-4.0127,0.0,0.0,0.0,-4.0546,-4.0187,0.0,-4.0232,-4.0995,-3.9858,-3.92,-3.9873,-3.9514,-3.9334,-3.9649,-4.0442,-4.0516,-3.9499,-4.0637,-4.101,-3.9986,-4.056,-4.0925,-4.0925,-4.1127,-4.1459,-4.1997,-4.2396,-4.2834,-4.3312,-4.3493,-4.3871,-4.4364,-4.4571,-4.5093,-4.5779,-4.6519,-4.6979,-4.7239,-4.7785,-4.8001,-4.8001,-4.8001,-4.8001,-4.8001,-4.8001,-4.8001,-4.8001,-2.4346,-2.4014,-2.3877,-2.4379,-2.5155,-2.659,-2.8962,-2.9737,-3.0074,-3.0086,-3.0086,-3.029,-3.0819,-3.1829,-3.2683,-3.3188,-3.32,-3.2755,-3.1733,-3.1156,-3.041,-2.9412,-2.9845,-3.0338,-3.0843,-3.1382,-3.154,-3.1503,-3.1925,0.0,0.0,0.0,0.0,0.0,-3.2739,-3.2921,-3.3566,-3.4589,-3.4247,-3.3219,-3.4782,-3.547,-3.5488,-3.604,-3.5865,-3.5415,-3.6054,-3.6272,-3.6373,-3.7056,-3.7302,-3.7433,-3.797,-3.8188,-3.8217,-3.8188,-3.8188,-3.8347,-3.903,-3.9189,-3.9175,-3.9204,-3.9189,-3.9,-3.8347,-3.8725,-3.9343,-3.9694,-4.03,-4.0911,-4.1249,-4.1324,-4.0935,-3.9649,-4.0502,0.0,0.0,-4.0382,-4.0576,-4.1235,-4.1294,-4.104,-4.0427,-4.1534,-4.1504,-3.9574,-4.0621,-4.0561,-3.8597,-3.9122,-3.9481,-3.9481,-4.0146,-4.0547,-4.0547,-4.1933,-4.2585,-4.2648,-4.3281,-4.3622,-4.3686,-4.4304,-4.4995,-4.5743,-4.6471,-4.7237,-4.7968,-4.7984,-4.8001,-4.8001,-4.8001,-4.8001,-4.8001,-4.8001,-4.8001,-4.8001,0.0,-2.4736,-2.4858,-2.5331,-2.6197,-2.7738,-3.0465,-3.0723,-3.0867,-3.1589,-3.136,-3.1733,-3.332,-3.3513,-3.3873,-3.4751,-3.3885,-3.3272,-3.3236,-3.2082,-3.1408,-3.142,-3.1414,-3.1319,-3.1308,-3.2352,-3.2537,-3.1963,-3.2882,0.0,0.0,0.0,0.0,0.0,0.0,-3.327,-3.2973,-3.41,-3.4176,-3.3683,-3.5222,-3.552,-3.5223,-3.6,-3.617,-3.6069,-3.6736,-3.6968,-3.707,-3.768,-3.8188,-3.8522,-3.8275,-3.8783,-3.9291,-3.8449,-3.8507,-3.8913,-3.9146,-3.8884,-3.8739,-3.9581,-3.9494,-3.9247,-3.9421,-3.9717,-4.0047,-4.0356,-4.0778,-4.108,-4.1384,-4.1384,-4.1235,-4.0786,-4.1459,-4.1654,0.0,-4.0023,-4.0157,-4.125,-4.0995,-4.0816,-4.1025,-4.1055,-4.0606,-3.9499,-3.9409,-3.911,-3.8422,-3.8616,-3.8945,-3.9409,-3.961,-4.0021,-4.0478,-4.1361,-4.2055,-4.2553,-4.3186,-4.3759,-4.4236,-4.4503,-4.4962,-4.5776,-4.6507,-4.6965,-4.7253,-4.777,-4.8001,-4.8001,-4.8001,-4.8001,-4.8001,-4.8001,-4.8001,-4.8001,-2.5303,-2.5176,-2.5253,-2.5594,-2.6309,-2.7646,-3.0179,-3.0671,-3.1032,-3.2106,-3.2226,-3.2899,-3.4631,-3.4691,-3.4956,-3.5821,-3.498,-3.4294,-3.4054,-3.308,-3.2509,-3.2394,-3.2144,-3.1869,-3.1577,-3.2611,-3.2984,-3.2347,-3.3546,-3.411,0.0,0.0,0.0,0.0,0.0,-3.3503,-3.2542,-3.3814,-3.3786,-3.3158,-3.4516,-3.4981,-3.5044,-3.612,-3.6547,-3.6751,-3.7404,-3.7622,-3.768,-3.8072,-3.8492,-3.8768,-3.8333,-3.8754,-3.9262,-3.8449,-3.8507,-3.8942,-3.9392,-3.9204,-3.9131,-4.0191,-4.0162,-3.9987,-4.0365,-4.0546,-4.0704,-4.094,-4.1366,-4.1551,-4.1245,-4.1682,-4.1923,-4.1383,-4.1938,-4.1983,0.0,-4.0382,-4.0516,-4.1594,-4.1145,-4.0831,-4.101,-4.107,-4.0427,-3.8826,-3.8736,-3.8542,-3.8063,-3.8257,-3.8706,-3.9394,-3.9424,-3.973,-4.0441,-4.1091,-4.1767,-4.245,-4.3138,-4.37,-4.4153,-4.4184,-4.4526,-4.5332,-4.6111,-4.6534,-4.688,-4.7704,-4.8001,-4.8001,-4.8001,-4.8001,-4.8001,-4.8001,-4.8001,-4.8001,-2.5703,-2.5361,-2.5068,-2.5068,-2.5542,-2.6604,-2.8509,-2.9696,-3.0749,-3.1788,-3.2803,-3.3861,-3.4944,-3.5473,-3.5942,-3.6471,-3.6471,-3.5809,-3.4294,-3.4114,-3.3498,-3.2345,-3.2135,-3.1967,-3.1712,-3.2475,-3.2823,-3.2798,-3.4134,-3.5014,0.0,0.0,0.0,0.0,-3.4776,-3.3859,-3.229,-3.3688,-3.3123,-3.1593,-3.3002,-3.402,-3.4803,-3.6323,-3.6982,-3.7271,-3.7999,-3.8202,-3.8202,-3.8202,-3.8202,-3.8202,-3.8202,-3.8202,-3.8202,-3.8202,-3.8202,-3.8463,-3.9683,-4.0002,-4.0176,-4.0873,-4.1047,-4.1062,-4.1134,-4.1149,-4.1229,-4.1441,-4.2071,-4.2275,-4.1159,-4.2149,-4.2817,-4.1469,-4.1876,-4.2087,-4.1474,-4.1324,-4.1534,-4.2314,-4.1728,-4.1115,-4.0546,-4.1534,-4.0891,-3.7704,-3.8586,-3.8736,-3.7479,-3.8033,-3.8706,-3.9394,-3.9424,-3.9738,-4.0382,-4.1066,-4.1761,-4.241,-4.3085,-4.3392,-4.3422,-4.3328,-4.3693,-4.4526,-4.5332,-4.6056,-4.6742,-4.7638,-4.8001,-4.7919,-4.8001,-4.8001,-4.8001,-4.8001,-4.8001,-4.8001,-2.5244,-2.5146,-2.5068,-2.5068,-2.6434,-2.8398,-3.1109,-3.2067,-3.3136,-3.4992,-3.5437,-3.6314,-3.8178,-3.7781,-3.7601,-3.8154,-3.7457,-3.6819,-3.6411,-3.528,-3.4547,-3.4421,-3.3642,-3.3338,-3.3665,-3.4264,-3.4429,-3.4209,-3.4898,-3.5203,-3.4939,0.0,0.0,0.0,0.0,-3.4788,-3.2918,-3.4048,-3.382,-3.2739,-3.3778,-3.4327,-3.4587,-3.5574,-3.6012,-3.623,-3.7663,-3.8202,-3.8202,-3.8202,-3.8202,-3.8202,-3.8202,-3.8202,-3.8202,-3.8202,-3.8202,-3.8275,-3.8609,-3.8696,-3.8957,-4.0075,-4.035,-4.0612,-4.1613,-4.1845,-4.1913,-4.2143,-4.1946,-4.1836,-4.2396,-4.2401,-4.2514,-4.2742,-4.2162,-4.1579,-4.1399,-4.0531,-4.0352,-4.1489,-4.1055,-4.0965,-4.1788,-4.0846,-3.9619,-3.8242,-3.7584,-3.7285,-3.7404,-3.8033,-3.8706,-3.9394,-3.9424,-3.9738,-4.0382,-4.1084,-4.1731,-4.2394,-4.3057,-4.3296,-4.3296,-4.3334,-4.3409,-4.3708,-4.511,-4.5478,-4.5227,-4.7202,-4.7638,-4.7186,-4.7787,-4.8001,-4.8001,-4.8001,-4.8001,-4.8001,-2.54,-2.5518,-2.5984,-2.7109,-2.8433,-2.9831,-3.1331,-3.2594,-3.3967,-3.5781,-3.6663,-3.7553,-3.8767,-3.8563,-3.8479,-3.8791,-3.8034,-3.7433,-3.7216,-3.6362,-3.5752,-3.5588,-3.4542,-3.4059,-3.4375,-3.4413,-3.4504,-3.4726,-3.5278,-3.5629,-3.5793,0.0,0.0,0.0,0.0,-3.5629,-3.3822,-3.4198,-3.401,-3.3494,-3.3756,-3.3823,0.0,-3.4772,-3.5087,-3.5332,-3.7014,-3.7644,-3.772,-3.8052,-3.8202,-3.8202,-3.8202,-3.8202,-3.8202,-3.8202,-3.8405,-3.8696,-3.8957,-3.9247,-3.9712,-4.0713,-4.0974,-4.1236,-4.2252,-4.2281,-4.2092,-4.2257,-4.1784,-4.1404,-4.1371,-4.1755,-4.2361,-4.316,-4.2476,-4.1818,-4.1818,-4.1175,-4.098,-4.1728,-4.1743,-4.1863,-4.2312,-4.0576,-3.8901,-3.7644,-3.7404,-3.7345,-3.7404,-3.8317,-3.902,-3.9409,-3.9694,-4.0172,-4.0816,-4.1474,-4.2132,-4.2791,-4.3165,-4.3329,-4.3329,-4.3329,-4.3329,-4.3409,-4.4662,-4.4887,-4.4662,-4.6673,-4.7186,-4.688,-4.7704,-4.8001,-4.8001,-4.8001,-4.8001,-4.8001,-2.5977,-2.6172,-2.7092,-2.9471,-3.0438,-3.0855,-3.0767,-3.2503,-3.4328,-3.5745,-3.7252,-3.8166,-3.8094,-3.8587,-3.8864,-3.8719,-3.8262,-3.7781,-3.7324,-3.7168,-3.6789,-3.6159,-3.5101,-3.4499,-3.4483,-3.3937,-3.4105,-3.4848,-3.5249,-3.6069,0.0,0.0,0.0,0.0,0.0,0.0,-3.4688,-3.4135,-3.3897,-3.3859,-3.3382,-3.3181,-3.3268,-3.401,-3.4295,-3.4468,-3.5976,-3.6702,-3.7014,-3.7886,-3.8202,-3.8202,-3.8202,-3.826,-3.8333,-3.8333,-3.8797,-3.9436,-3.9958,-4.0525,-4.1134,-4.1802,-4.1961,-4.2121,-4.2731,-4.2469,-4.2092,-4.2092,-4.1718,-4.0981,-3.9731,-4.0842,-4.2198,-4.2906,-4.2611,-4.2207,-4.2117,-4.2177,-4.2267,-4.2434,-4.2791,0.0,-4.2402,-4.0651,-3.8796,-3.7,-3.7808,-3.8138,-3.7569,-3.8736,-3.9424,-3.9424,-4.0053,-4.0711,-4.1369,-4.2028,-4.2686,-4.3329,-4.3329,-4.3329,-4.3329,-4.3329,-4.3329,-4.3329,-4.4143,-4.4434,-4.4434,-4.6024,-4.6673,-4.688,-4.7704,-4.8001,-4.8001,-4.8001,-4.8001,-4.8001,-2.6807,-2.6572,-2.6903,-2.8593,-3.0041,-3.1595,-3.3229,-3.4785,-3.6267,-3.7445,-3.8587,-3.9152,-3.8719,-3.9152,-3.9104,-3.8202,-3.8034,-3.7938,-3.7853,-3.7024,-3.656,-3.6682,-3.5649,-3.5137,-3.5338,-3.509,-3.5171,-3.573,-3.5637,-3.5881,-3.6508,0.0,0.0,0.0,0.0,0.0,-3.4688,-3.4135,-3.3897,-3.3884,-3.3796,-3.3759,-3.3759,-3.3921,-3.3718,-3.3484,-3.4468,-3.5749,-3.7014,-3.7886,-3.8202,-3.8202,-3.8202,-3.858,-3.903,-3.903,-3.9465,-3.9958,-4.006,-4.0191,-4.0437,-4.1105,-4.1279,-4.1439,-4.2107,-4.2179,-4.2092,-4.2092,-4.1555,-4.1098,-4.1025,-4.1062,-4.1211,-4.1622,-4.1486,-4.1217,-4.0816,-4.1205,-4.1758,-4.2297,-4.1983,-4.1893,-4.2327,-4.107,-3.9858,-3.8975,-3.8586,-3.8347,-3.8227,-3.8975,-3.9424,-3.9424,-4.0053,-4.0711,-4.1369,-4.2028,-4.2686,-4.3329,-4.3329,-4.3329,-4.3329,-4.3329,-4.3329,-4.3329,-4.4143,-4.4143,-4.3615,-4.5243,-4.6253,-4.688,-4.7704,-4.8001,-4.8001,-4.8001,-4.8001,-4.8001,-2.7588,-2.7344,-2.7851,-3.0123,-3.1446,-3.2934,-3.5348,-3.6558,-3.7312,-3.7541,-3.8262,-3.8563,-3.8034,-3.8707,-3.8864,-3.8046,-3.7986,-3.7986,-3.7986,-3.7505,-3.7079,-3.6638,-3.6118,-3.5684,-3.544,-3.4715,-3.4891,-3.6015,-3.5264,-3.5612,-3.6784,-3.6496,-3.6521,0.0,0.0,-3.5805,-3.5516,-3.4688,-3.4324,-3.4324,-3.4324,-3.4324,-3.4324,-3.4324,-3.4161,-3.401,-3.493,-3.5743,-3.6552,-3.7303,-3.7782,-3.813,-3.8558,-3.916,-3.9668,-3.9668,-4.0118,-4.0612,-4.0612,-4.0873,-4.1207,-4.1541,-4.1613,-4.17,-4.202,-4.2092,-4.2092,-4.2092,-4.157,-4.1069,-4.0973,-4.1101,-4.1351,-4.1739,-4.2022,-4.2022,-4.1504,-4.1983,-4.2387,-4.2372,-4.2387,-4.2521,-4.2836,-4.1983,-4.0861,-3.9514,-3.9424,-3.9125,-3.8422,-3.9379,-3.9768,-3.9424,-4.0382,-4.1055,-4.1384,-4.2372,-4.3015,-4.3329,-4.3329,-4.3329,-4.3329,-4.3329,-4.3329,-4.3329,-4.3693,-4.363,-4.3394,-4.5036,-4.6111,-4.688,-4.7704,-4.8001,-4.8001,-4.8001,-4.8001,-4.8001,-2.8271,-2.8086,-2.8775,-3.196,-3.286,-3.4128,-3.6784,-3.7649,-3.7829,-3.7421,-3.7829,-3.795,-3.7421,-3.8238,-3.8587,-3.8034,-3.7986,-3.7986,-3.7986,-3.7769,-3.7276,-3.6447,-3.6194,-3.5777,-3.5138,-3.4287,-3.4495,-3.5734,-3.5096,-3.5381,-3.6483,-3.6521,-3.6646,-3.6797,-3.5931,-3.5717,-3.5956,-3.509,-3.4788,-3.4901,-3.4901,-3.4901,-3.4901,-3.4901,-3.4826,-3.4803,-3.5467,-3.5719,-3.5839,-3.6498,-3.732,-3.8206,-3.9131,-3.9813,-4.0307,-4.0307,-4.0786,-4.1308,-4.1308,-4.17,-4.2092,-4.2092,-4.2092,-4.2092,-4.2092,-4.2092,-4.2092,-4.2092,-4.157,-4.1069,-4.0958,-4.1037,-4.145,-4.2194,-4.254,-4.2757,-4.2596,-4.3015,-4.3135,-4.2626,-4.3015,-4.3329,-4.3329,-4.2865,-4.1863,-4.0172,-4.0262,-3.9933,-3.8871,-3.9828,-4.0172,-3.9649,-4.0905,-4.1594,-4.1594,-4.2746,-4.3329,-4.3329,-4.3329,-4.3329,-4.3329,-4.3329,-4.3329,-4.3329,-4.3329,-4.3329,-4.3394,-4.5036,-4.604,-4.6673,-4.7638,-4.8001,-4.8001,-4.8001,-4.81,-4.8233,-2.8769,-2.8525,-2.9226,-3.2436,-3.3079,-3.4128,-3.6784,-3.7649,-3.7962,-3.7914,-3.8395,-3.8527,-3.7974,-3.8455,-3.8587,-3.8034,-3.7986,-3.7986,-3.7986,-3.7084,-3.6507,-3.6411,-3.5485,-3.4931,-3.4835,-3.4747,-3.4785,-3.4895,-3.5831,-3.5529,-3.4248,-3.6194,-3.6596,-3.5692,-3.5592,-3.529,-3.4864,-3.4763,-3.5014,-3.5466,-3.5466,-3.5466,-3.5466,-3.5466,-3.5152,-3.4726,-3.4803,-3.4803,-3.4958,-3.5765,-3.7199,-3.876,-3.9686,-4.0466,-4.1004,-4.1004,-4.1482,-4.2005,-4.2005,-4.2049,-4.2092,-4.2092,-4.2092,-4.2092,-4.2092,-4.2092,-4.2092,-4.2092,-4.157,-4.1346,-4.2114,-4.0669,-4.0164,-4.2545,-4.1814,-4.1566,-4.3011,-4.3284,-4.3314,-4.324,-4.3299,-4.3329,-4.3329,-4.3284,-4.2925,-4.2147,-4.104,-4.0352,-4.0217,-4.0337,-4.0367,-4.0307,-4.1594,-4.2267,-4.2267,-4.297,-4.3329,-4.3329,-4.3329,-4.3329,-4.3329,-4.3329,-4.3329,-4.3329,-4.3329,-4.3329,-4.3394,-4.5036,-4.5769,-4.5985,-4.7421,-4.8001,-4.8001,-4.8001,-4.8431,-4.9011,-2.9277,-2.917,-2.9779,-3.2007,-3.2441,-3.3367,-3.6175,-3.6764,-3.7215,-3.788,-3.8178,-3.8238,-3.7998,-3.8178,-3.8226,-3.7998,-3.7986,-3.7986,-3.7986,-3.7589,-3.7072,-3.6435,-3.6002,-3.5473,-3.4847,-3.451,-3.4591,-3.5003,-3.5273,-3.5344,-3.5219,-3.5862,-3.5968,-3.5529,-3.5203,-3.5115,-3.5215,-3.5215,-3.5341,-3.5567,-3.5893,-3.6031,-3.6031,-3.6031,-3.5893,-3.5705,-3.5705,-3.5705,-3.589,-3.6755,-3.7739,-3.8642,-3.9587,-4.0728,-4.17,-4.17,-4.1889,-4.2092,-4.2092,-4.2092,-4.2092,-4.2092,-4.2092,-4.2092,-4.2092,-4.2092,-4.2092,-4.2092,-4.1889,-4.1657,-4.1593,-4.1339,-4.1236,-4.1617,-4.1903,-4.2268,-4.2731,-4.309,-4.3329,-4.3329,-4.3329,-4.3329,-4.3329,-4.3329,-4.3389,-4.3524,-4.2327,-4.1399,-4.101,-4.0606,-4.0576,-4.098,-4.1504,-4.1953,-4.2357,-4.3015,-4.3329,-4.3329,-4.3329,-4.3329,-4.3329,-4.3329,-4.3329,-4.3329,-4.3329,-4.3329,-4.3394,-4.5036,-4.5697,-4.5841,-4.7421,-4.8001,-4.8001,-4.8001,-4.8481,-4.9177,-2.9726,-2.9756,-3.0333,-3.1861,-3.2493,-3.349,-3.5847,-3.6449,-3.7,-3.7868,-3.7986,-3.7986,-3.7986,-3.7986,-3.7986,-3.7986,-3.7986,-3.7986,-3.7986,-3.7685,-3.7252,-3.6663,-3.6194,-3.5665,-3.5076,-3.4547,-3.457,-3.4992,-3.5218,-3.5342,-3.5282,-3.5232,-3.5391,-3.5516,-3.4964,-3.4939,-3.529,-3.514,-3.5253,-3.5579,-3.5968,-3.6219,-3.6358,-3.6358,-3.6358,-3.6358,-3.6358,-3.6358,-3.6546,-3.7176,-3.7793,-3.8411,-3.9633,-4.0926,-4.2092,-4.2092,-4.2092,-4.2092,-4.2092,-4.2092,-4.2092,-4.2092,-4.2092,-4.2092,-4.2092,-4.2092,-4.2092,-4.2092,-4.2092,-4.1961,-4.1482,-4.1762,-4.1938,-4.1701,-4.2213,-4.2684,-4.294,-4.3165,-4.3404,-4.3599,-4.3629,-4.3629,-4.3629,-4.3629,-4.3733,-4.4003,-4.3165,-4.2447,-4.1983,-4.1324,-4.119,-4.1654,-4.1863,-4.2177,-4.2641,-4.3105,-4.3329,-4.3329,-4.3329,-4.3329,-4.3329,-4.3329,-4.3329,-4.3329,-4.3329,-4.3329,-4.3409,-4.4812,-4.5478,-4.5841,-4.7134,-4.7787,-4.8001,-4.8001,-4.8597,-4.9508,-3.0107,-3.0185,-3.0665,-3.2374,-3.3674,-3.477,-3.6013,-3.7215,-3.7974,-3.7986,-3.7986,-3.7986,-3.7986,-3.7986,-3.7986,-3.7986,-3.7986,-3.7986,-3.7986,-3.7,-3.6651,-3.7168,-3.5677,-3.5088,-3.5593,-3.5283,-3.4956,-3.4433,-3.6047,-3.5655,-3.358,-3.4295,-3.5027,-3.5516,-3.4964,-3.4726,-3.47,-3.4148,-3.455,-3.5542,-3.5554,-3.5881,-3.6358,-3.6358,-3.6358,-3.6358,-3.6358,-3.6358,-3.6358,-3.6452,-3.7083,-3.8147,-3.9972,-4.1254,-4.2092,-4.2092,-4.2092,-4.2092,-4.2092,-4.2092,-4.2092,-4.2092,-4.2092,-4.2092,-4.2092,-4.2092,-4.2092,-4.2092,-4.2092,-4.2092,-4.2092,-4.1555,-4.1674,-4.3425,-4.2555,-4.2347,-4.4026,-4.3733,-4.3584,-4.4227,-4.4302,-4.4302,-4.4302,-4.4302,-4.4032,-4.3389,-4.3329,-4.3329,-4.3314,-4.2686,-4.2419,-4.2434,-4.297,-4.3314,-4.3329,-4.3329,-4.3329,-4.3329,-4.3329,-4.3329,-4.3329,-4.3329,-4.3329,-4.3329,-4.3329,-4.3329,-4.3329,-4.4143,-4.4962,-4.5769,-4.6534,-4.7337,-4.8001,-4.8001,-4.8945,-5.0204,-3.0644,-3.0674,-3.105,-3.2436,-3.3016,-3.3899,-3.5904,-3.6557,-3.7108,-3.7868,-3.7986,-3.7986,-3.7986,-3.7986,-3.7986,-3.7986,-3.7986,-3.7986,-3.7986,-3.7324,-3.6855,-3.6663,-3.5821,-3.528,-3.5088,-3.5017,-3.4848,-3.4679,-3.5598,-3.561,-3.4832,-3.5111,-3.5378,-3.5516,-3.4964,-3.4926,-3.5265,-3.509,-3.5014,-3.5052,-3.5793,-3.5981,-3.5843,-3.6219,-3.6358,-3.6358,-3.6358,-3.6358,-3.6358,-3.6358,-3.6989,-3.79,-3.8509,-3.9387,-4.0273,-4.0887,-4.1071,-4.1254,-4.1912,-4.2092,-4.2092,-4.2092,-4.2092,-4.2092,-4.2092,-4.2092,-4.2092,-4.2092,-4.2092,-4.2092,-4.2092,-4.1918,-4.184,-4.2122,-4.2298,-4.2444,-4.2718,-4.3101,-4.3404,-4.3614,-4.3643,-4.3643,-4.3643,-4.3643,-4.3748,-4.3988,-4.3584,-4.3329,-4.3329,-4.2716,-4.2566,-4.3015,-4.2791,-4.288,-4.3329,-4.3329,-4.3329,-4.3329,-4.3329,-4.3329,-4.3329,-4.3329,-4.3329,-4.3329,-4.3329,-4.3329,-4.3329,-4.4143,-4.4662,-4.5036,-4.6308,-4.6965,-4.7253,-4.7787,-4.8945,-5.0204,-3.0889,-3.0889,-3.1112,-3.1903,-3.2352,-3.3243,-3.4681,-3.5234,-3.6002,-3.7215,-3.7311,-3.7536,-3.7974,-3.7986,-3.7986,-3.7986,-3.7986,-3.7986,-3.7986,-3.7481,-3.7048,-3.6711,-3.6002,-3.5461,-3.5136,-3.4931,-3.4823,-3.4823,-3.532,-3.5722,-3.5855,-3.5855,-3.5855,-3.583,-3.5278,-3.5102,-3.5228,-3.5014,-3.4851,-3.4776,-3.5479,-3.5793,-3.5893,-3.6232,-3.6358,-3.6358,-3.6358,-3.6358,-3.6358,-3.6358,-3.6815,-3.7268,-3.7268,-3.7704,-3.8405,-3.9724,-4.0332,-4.0774,-4.1353,-4.1814,-4.2092,-4.2092,-4.2092,-4.2092,-4.2092,-4.2281,-4.2368,-4.215,-4.2092,-4.2092,-4.2092,-4.2092,-4.2044,-4.1784,-4.2195,-4.2475,-4.2287,-4.2823,-4.326,-4.3513,-4.3623,-4.3703,-4.3703,-4.3703,-4.3763,-4.3928,-4.3344,-4.3075,-4.3329,-4.294,-4.291,-4.3329,-4.294,-4.2925,-4.3329,-4.3329,-4.3329,-4.3329,-4.3329,-4.3329,-4.3329,-4.3329,-4.3329,-4.3329,-4.3329,-4.3329,-4.3329,-4.3849,-4.422,-4.4586,-4.552,-4.6308,-4.688,-4.7337,-4.8643,-5.0204,-3.0889,-3.0889,-3.0889,-3.1005,-3.1903,-3.2685,-3.2799,-3.3674,-3.4781,-3.5904,-3.61,-3.6642,-3.7761,-3.7986,-3.7986,-3.7986,-3.7986,-3.7986,-3.7986,-3.7457,-3.7132,-3.7132,-3.6134,-3.5557,-3.5557,-3.5088,-3.4823,-3.4835,-3.532,-3.5895,-3.6358,-3.6358,-3.6358,-3.6332,-3.5755,-3.5228,-3.4751,-3.4186,-3.4248,-3.4726,-3.4813,-3.5429,-3.6307,-3.6345,-3.6358,-3.6358,-3.6358,-3.6358,-3.6358,-3.6358,-3.6358,-3.6358,-3.6358,-3.6358,-3.6722,-3.8585,-3.9724,-4.0418,-4.0504,-4.1254,-4.2009,-4.2009,-4.2121,-4.2165,-4.2165,-4.2586,-4.2832,-4.2281,-4.2121,-4.2092,-4.2092,-4.2092,-4.2175,-4.2325,-4.2392,-4.2474,-4.2607,-4.2835,-4.3218,-4.3872,-4.4094,-4.4242,-4.4242,-4.4242,-4.3988,-4.3389,-4.2776,-4.2701,-4.3299,-4.3329,-4.3329,-4.3329,-4.3329,-4.3329,-4.3329,-4.3329,-4.3329,-4.3329,-4.3329,-4.3329,-4.3329,-4.3329,-4.3329,-4.3329,-4.3329,-4.3329,-4.3329,-4.3329,-4.3771,-4.4434,-4.445,-4.5374,-4.6759,-4.6876,-4.8302,-5.022,-3.0889,-3.0889,-3.1228,-3.2123,-3.2467,-3.3016,-3.3899,-3.4224,-3.4447,-3.4781,-3.5674,-3.634,-3.6557,-3.7441,-3.7986,-3.7986,-3.7986,-3.7986,-3.7986,-3.7108,-3.6591,-3.6591,-3.5581,-3.5016,-3.5016,-3.4895,-3.492,-3.5126,-3.5223,-3.5608,-3.6098,-3.6098,-3.6193,-3.632,-3.5341,-3.5077,-3.5316,-3.4763,-3.46,-3.4801,-3.5642,-3.5881,-3.578,-3.6194,-3.6358,-3.6358,-3.6358,-3.6358,-3.6358,-3.6358,-3.6358,-3.6358,-3.6358,-3.6358,-3.664,-3.7795,-3.8328,-3.8599,-3.9373,-4.026,-4.0972,-4.0972,-4.1879,-4.2774,-4.2774,-4.289,-4.2948,-4.2818,-4.2411,-4.2092,-4.2092,-4.2092,-4.2092,-4.2175,-4.2325,-4.2392,-4.2459,-4.2769,-4.304,-4.3218,-4.3394,-4.3569,-4.3569,-4.3569,-4.3509,-4.3344,-4.3195,-4.3165,-4.3329,-4.3329,-4.3329,-4.3329,-4.3329,-4.3329,-4.3329,-4.3329,-4.3329,-4.3329,-4.3329,-4.3329,-4.3329,-4.3329,-4.3329,-4.3329,-4.3329,-4.3329,-4.3329,-4.3329,-4.3409,-4.363,-4.4297,-4.5095,-4.612,-4.7216,-4.8744,-5.0286,-3.0889,-3.0889,-3.1112,-3.1787,-3.1903,-3.2123,-3.2675,-3.2778,-3.3006,-3.3572,-3.4235,-3.4792,-3.5344,-3.6002,-3.6545,-3.7108,-3.7655,-3.7986,-3.7986,-3.7445,-3.7024,-3.6771,-3.599,-3.5437,-3.5196,-3.4956,-3.492,-3.5223,-3.5223,-3.5416,-3.5824,-3.592,-3.6098,-3.6168,-3.5742,-3.5504,-3.5437,-3.5228,-3.5102,-3.5152,-3.5742,-3.5968,-3.5956,-3.6257,-3.6358,-3.6358,-3.6358,-3.6358,-3.6358,-3.6358,-3.6358,-3.6358,-3.6358,-3.6358,-3.6546,-3.6989,-3.7441,-3.79,-3.8419,-3.9549,-4.0759,-4.1497,-4.2595,-4.3442,-4.3442,-4.3442,-4.3355,-4.305,-4.2513,-4.2092,-4.2092,-4.2092,-4.2092,-4.2092,-4.2175,-4.2242,-4.2242,-4.2622,-4.2835,-4.2835,-4.309,-4.3329,-4.3329,-4.3329,-4.3329,-4.3329,-4.3045,-4.3015,-4.3329,-4.3045,-4.303,-4.3329,-4.3329,-4.3329,-4.3329,-4.3329,-4.3329,-4.3329,-4.3329,-4.3329,-4.3329,-4.3329,-4.3329,-4.3329,-4.3329,-4.3329,-4.3329,-4.3329,-4.3329,-4.3329,-4.3771,-4.4434,-4.5231,-4.6019,-4.7509,-4.9227,-3.0889,-3.0889,-3.0889,-3.0889,-3.0889,-3.0889,-3.0889,-3.0889,-3.1228,-3.2238,-3.2581,-3.3016,-3.4011,-3.4336,-3.4781,-3.5795,-3.6989,-3.7761,-3.7986,-3.7914,-3.7625,-3.7096,-3.6567,-3.6038,-3.5509,-3.5052,-3.4932,-3.5126,-3.5126,-3.532,-3.562,-3.5824,-3.6015,-3.6098,-3.6188,-3.6031,-3.5667,-3.5579,-3.5592,-3.5667,-3.5667,-3.5943,-3.6358,-3.6358,-3.6358,-3.6358,-3.6358,-3.6358,-3.6358,-3.6358,-3.6358,-3.6358,-3.6358,-3.6358,-3.6383,-3.6458,-3.713,-3.765,-3.7651,-3.9011,-4.087,-4.2409,-4.34,-4.3964,-4.3863,-4.3921,-4.3834,-4.3253,-4.2658,-4.2237,-4.2237,-4.215,-4.2121,-4.2291,-4.2165,-4.2136,-4.2306,-4.2532,-4.2688,-4.2688,-4.309,-4.3329,-4.3329,-4.3329,-4.3329,-4.3329,-4.2821,-4.2746,-4.3299,-4.2806,-4.2761,-4.3314,-4.3329,-4.3329,-4.3329,-4.3329,-4.3329,-4.3329,-4.3329,-4.3329,-4.3329,-4.3329,-4.3329,-4.3329,-4.3329,-4.3329,-4.3329,-4.3329,-4.3329,-4.3329,-4.3329,-4.3771,-4.4526,-4.4633,-4.6055,-4.7929,-3.0889,-3.0889,-3.0889,-3.0889,-3.0889,-3.0889,-3.0889,-3.0889,-3.1005,-3.1112,-3.2123,-3.2799,-3.2903,-3.3786,-3.4447,-3.467,-3.5783,-3.6893,-3.7974,-3.7565,-3.7084,-3.6555,-3.6014,-3.5485,-3.4968,-3.4871,-3.4823,-3.4823,-3.4823,-3.5126,-3.562,-3.562,-3.5895,-3.6345,-3.5881,-3.5881,-3.6207,-3.5742,-3.5805,-3.6232,-3.6232,-3.6282,-3.6358,-3.6358,-3.6358,-3.6358,-3.6358,-3.6358,-3.6358,-3.6358,-3.6358,-3.6358,-3.6358,-3.6358,-3.6458,-3.6923,-3.7144,-3.7235,-3.6767,-3.8425,-4.046,-4.1443,-4.2868,-4.3848,-4.3282,-4.3587,-4.3964,-4.3863,-4.3311,-4.2861,-4.2861,-4.244,-4.2349,-4.304,-4.2607,-4.2364,-4.3055,-4.2878,-4.2688,-4.2688,-4.309,-4.3329,-4.3329,-4.3329,-4.3329,-4.3329,-4.324,-4.3225,-4.3329,-4.324,-4.3225,-4.3329,-4.3329,-4.3329,-4.3329,-4.3329,-4.3329,-4.3329,-4.3329,-4.3329,-4.3329,-4.3329,-4.3329,-4.3329,-4.3329,-4.3329,-4.3329,-4.3329,-4.3329,-4.3329,-4.3329,-4.3771,-4.4587,-4.5172,-4.6481,-4.8074,-3.0889,-3.0889,-3.0889,-3.0889,-3.0889,-3.0889,-3.0889,-3.0889,-3.0889,-3.0889,-3.1334,-3.1682,-3.1682,-3.2238,-3.2789,-3.3459,-3.4011,-3.4792,-3.5991,-3.7086,-3.7505,-3.7264,-3.6471,-3.5665,-3.4847,-3.51,-3.5112,-3.4823,-3.4823,-3.4932,-3.5126,-3.532,-3.5608,-3.5978,-3.5824,-3.6038,-3.6345,-3.6094,-3.6132,-3.6358,-3.6358,-3.6358,-3.6358,-3.6358,-3.6358,-3.6358,-3.6358,-3.6358,-3.6358,-3.6358,-3.6358,-3.6358,-3.6358,-3.6358,-3.6471,-3.7023,-3.74,-3.766,-3.7948,-3.8893,-4.0187,-4.2098,-4.314,-4.3741,-4.3994,-4.4255,-4.4385,-4.4066,-4.3747,-4.3427,-4.3065,-4.276,-4.2655,-4.2694,-4.2364,-4.2276,-4.265,-4.2731,-4.2821,-4.3175,-4.3611,-4.3868,-4.3868,-4.3868,-4.3718,-4.3359,-4.3329,-4.3329,-4.3329,-4.3329,-4.3329,-4.3329,-4.3329,-4.3329,-4.3329,-4.3329,-4.3329,-4.3329,-4.3329,-4.3329,-4.3329,-4.3329,-4.3329,-4.3329,-4.3329,-4.3329,-4.3329,-4.3329,-4.3329,-4.3329,-4.3329,-4.3777,-4.4379,-4.4413,-4.5511,-4.7233,-3.0889,-3.0889,-3.0889,-3.0889,-3.0889,-3.0889,-3.0889,-3.0889,-3.0889,-3.0889,-3.0889,-3.0889,-3.0889,-3.0889,-3.1228,-3.2238,-3.2581,-3.3016,-3.3899,-3.622,-3.7489,-3.7358,-3.668,-3.5845,-3.5028,-3.5292,-3.5232,-3.4823,-3.4823,-3.4835,-3.4932,-3.5126,-3.5428,-3.5716,-3.592,-3.6193,-3.6358,-3.6358,-3.6358,-3.6358,-3.6358,-3.6358,-3.6358,-3.6358,-3.6358,-3.6358,-3.6358,-3.6358,-3.6358,-3.6358,-3.6358,-3.6358,-3.6358,-3.6458,-3.6659,-3.7211,-3.7864,-3.8591,-3.9231,-3.9505,-4.0166,-4.2416,-4.3202,-4.3644,-4.4514,-4.4792,-4.4748,-4.4284,-4.4197,-4.4037,-4.3529,-4.3195,-4.289,-4.2669,-4.2281,-4.215,-4.2364,-4.2562,-4.2857,-4.3505,-4.3991,-4.4295,-4.446,-4.446,-4.4191,-4.3614,-4.3489,-4.3429,-4.3344,-4.3479,-4.3569,-4.3569,-4.3419,-4.3404,-4.3554,-4.3569,-4.3569,-4.3569,-4.3718,-4.3629,-4.3344,-4.3643,-4.3629,-4.3344,-4.3494,-4.3479,-4.3329,-4.3329,-4.3329,-4.3344,-4.3509,-4.3868,-4.4272,-4.3928,-4.4955,-4.6559,-3.0889,-3.0889,-3.0889,-3.0889,-3.0889,-3.0889,-3.0889,-3.0889,-3.0889,-3.0889,-3.0889,-3.0889,-3.0889,-3.0889,-3.0889,-3.1005,-3.2008,-3.2685,-3.2799,-3.5013,-3.6121,-3.5626,-3.5596,-3.5641,-3.5557,-3.5112,-3.4871,-3.4823,-3.4823,-3.492,-3.5126,-3.5223,-3.5524,-3.6015,-3.6015,-3.6193,-3.6358,-3.6358,-3.6358,-3.6358,-3.6358,-3.6358,-3.6358,-3.6358,-3.6358,-3.6358,-3.6358,-3.6358,-3.6358,-3.6358,-3.6358,-3.6358,-3.6358,-3.6709,-3.7236,-3.7789,-3.8718,-3.9572,-3.9662,-3.9953,-4.0584,-4.1666,-4.262,-4.3531,-4.3994,-4.4487,-4.4879,-4.4821,-4.4821,-4.4806,-4.4748,-4.379,-4.3265,-4.3989,-4.3015,-4.2378,-4.3211,-4.2772,-4.2626,-4.327,-4.3758,-4.4243,-4.4852,-4.4911,-4.4712,-4.4287,-4.4094,-4.3745,-4.328,-4.3913,-4.4242,-4.4242,-4.3643,-4.3629,-4.4242,-4.4242,-4.4242,-4.4242,-4.4855,-4.4511,-4.3374,-4.4601,-4.4481,-4.3359,-4.3988,-4.3898,-4.3329,-4.3329,-4.3329,-4.3389,-4.4003,-4.4272,-4.4392,-4.4945,-4.5743,-4.6619,-3.0889,-3.0889,-3.0889,-3.0889,-3.0889,-3.0889,-3.0889,-3.0889,-3.0889,-3.0889,-3.0889,-3.0889,-3.0889,-3.0889,-3.0889,-3.0889,-3.1344,-3.1566,-3.1566,-3.313,-3.4791,-3.6449,-3.6589,-3.629,-3.5629,-3.5425,-3.516,-3.4823,-3.4823,-3.4823,-3.4932,-3.4932,-3.5126,-3.5524,-3.5716,-3.5908,-3.6193,-3.637,-3.6358,-3.6358,-3.6358,-3.6358,-3.6358,-3.6358,-3.6358,-3.6358,-3.6358,-3.6358,-3.6358,-3.6358,-3.6358,-3.642,-3.6759,-3.701,-3.7362,-3.8278,-3.9094,-3.9697,-3.9697,-3.9829,-4.0233,-4.1176,-4.2234,-4.3142,-4.3579,-4.4579,-4.5387,-4.498,-4.5213,-4.5372,-4.4966,-4.4487,-4.4124,-4.408,-4.3658,-4.3355,-4.3758,-4.3653,-4.3811,-4.4455,-4.4799,-4.5073,-4.5324,-4.5339,-4.5143,-4.4546,-4.4599,-4.4496,-4.4325,-4.4713,-4.493,-4.493,-4.4676,-4.4466,-4.4317,-4.4721,-4.493,-4.493,-4.517,-4.5035,-4.4571,-4.5065,-4.4811,-4.3988,-4.4631,-4.4317,-4.3389,-4.4212,-4.4317,-4.4003,-4.4661,-4.5185,-4.5544,-4.5364,-4.598,-4.7076,-3.0889,-3.0889,-3.0889,-3.0889,-3.0889,-3.0889,-3.0889,-3.0889,-3.0889,-3.0889,-3.0889,-3.0889,-3.0889,-3.0889,-3.0889,-3.0889,-3.0889,-3.0889,-3.0889,-3.2018,-3.3982,-3.6802,-3.6576,-3.6181,-3.5881,-3.5533,-3.5196,-3.4823,-3.4823,-3.4823,-3.4823,-3.4823,-3.492,-3.5223,-3.5416,-3.5716,-3.6015,-3.6193,-3.637,-3.6358,-3.6358,-3.6358,-3.6358,-3.6358,-3.6358,-3.6358,-3.6358,-3.6358,-3.6358,-3.6358,-3.6471,-3.6684,-3.7061,-3.7425,-3.7902,-3.8843,-3.9396,-3.9697,-3.9697,-3.9697,-3.9981,-4.0932,-4.1703,-4.2573,-4.3501,-4.4584,-4.536,-4.5196,-4.5561,-4.575,-4.5285,-4.5024,-4.4748,-4.4342,-4.411,-4.3993,-4.3993,-4.4151,-4.4456,-4.5099,-4.5346,-4.5623,-4.5727,-4.5756,-4.5564,-4.4988,-4.5029,-4.5128,-4.5312,-4.5341,-4.5394,-4.5618,-4.5618,-4.5394,-4.4945,-4.5394,-4.5618,-4.5618,-4.5828,-4.5708,-4.5304,-4.5738,-4.5454,-4.4661,-4.5319,-4.4975,-4.4018,-4.493,-4.5035,-4.4691,-4.5349,-4.5918,-4.6292,-4.6022,-4.6516,-4.7321,-3.0889,-3.0889,-3.0889,-3.0889,-3.0889,-3.0889,-3.0889,-3.0889,-3.0889,-3.0889,-3.0889,-3.0889,-3.0889,-3.0889,-3.0889,-3.0889,-3.0889,-3.0889,-3.0889,-3.2008,-3.3685,-3.6013,-3.5138,-3.512,-3.6398,-3.5364,-3.4823,-3.4823,-3.4823,-3.4823,-3.4823,-3.4823,-3.492,-3.5223,-3.5223,-3.5524,-3.6015,-3.6015,-3.6193,-3.6358,-3.6358,-3.6358,-3.6358,-3.6358,-3.6358,-3.6358,-3.6358,-3.6358,-3.6358,-3.637,-3.6734,-3.7186,-3.7199,-3.7965,-3.8981,-3.9534,-3.9697,-3.9697,-3.9697,-3.9697,-3.9981,-4.0932,-4.1219,-4.1703,-4.3829,-4.4312,-4.4606,-4.5685,-4.588,-4.588,-4.588,-4.5343,-4.4893,-4.4893,-4.44,-4.4008,-4.4008,-4.4008,-4.4226,-4.4821,-4.5172,-4.5522,-4.6151,-4.621,-4.6035,-4.5594,-4.5361,-4.5448,-4.601,-4.5609,-4.5618,-4.6307,-4.6337,-4.6337,-4.6337,-4.6337,-4.6337,-4.6337,-4.6995,-4.6606,-4.5349,-4.6696,-4.6576,-4.5349,-4.6037,-4.5933,-4.5289,-4.5304,-4.5304,-4.5364,-4.6067,-4.6337,-4.6411,-4.7055,-4.7309,-4.7309,-3.0889,-3.0889,-3.0889,-3.0889,-3.0889,-3.0889,-3.0889,-3.0889,-3.0889,-3.0889,-3.0889,-3.0889,-3.0889,-3.0889,-3.0889,-3.0889,-3.0889,-3.0889,-3.0889,-3.1228,-3.2123,-3.3685,-3.4263,-3.4797,-3.512,-3.4956,-3.4823,-3.4823,-3.4823,-3.4823,-3.4823,-3.4823,-3.4823,-3.492,-3.5126,-3.532,-3.5416,-3.5812,-3.6015,-3.6098,-3.637,-3.6358,-3.6358,-3.6358,-3.6358,-3.6358,-3.6358,-3.6358,-3.642,-3.681,-3.7048,-3.7324,-3.8115,-3.8868,-3.9484,-3.9647,-3.9697,-3.9697,-3.9697,-3.9697,-3.9788,-4.0083,-4.0642,-4.1319,-4.1985,-4.2682,-4.3559,-4.4606,-4.4805,-4.5003,-4.579,-4.5721,-4.559,-4.559,-4.5445,-4.5314,-4.5314,-4.5314,-4.5387,-4.5561,-4.568,-4.5752,-4.5941,-4.597,-4.5973,-4.5798,-4.6035,-4.6402,-4.6852,-4.6815,-4.68,-4.701,-4.701,-4.701,-4.701,-4.701,-4.701,-4.701,-4.7204,-4.71,-4.6726,-4.7115,-4.683,-4.6052,-4.6726,-4.6352,-4.5364,-4.6322,-4.6441,-4.6082,-4.6756,-4.701,-4.704,-4.7234,-4.7309,-4.7309,-3.0889,-3.0889,-3.0889,-3.0889,-3.0889,-3.0889,-3.0889,-3.0889,-3.0889,-3.0889,-3.0889,-3.0889,-3.0889,-3.0889,-3.0889,-3.0889,-3.0889,-3.0889,-3.0889,-3.0889,-3.1228,-3.1903,-3.2937,-3.3715,-3.3949,-3.4217,-3.4315,-3.4127,-3.4617,-3.4823,-3.4823,-3.4823,-3.4823,-3.4823,-3.4932,-3.5126,-3.5223,-3.5524,-3.5716,-3.592,-3.6098,-3.6275,-3.6275,-3.6358,-3.6358,-3.6358,-3.6358,-3.6358,-3.6445,-3.6998,-3.7475,-3.8015,-3.8919,-3.9421,-3.9697,-3.9697,-3.9697,-3.9697,-3.9697,-3.9697,-3.9697,-3.9697,-4.0173,-4.0743,-4.1119,-4.1716,-4.2488,-4.345,-4.4031,-4.4499,-4.5201,-4.5595,-4.588,-4.588,-4.588,-4.588,-4.588,-4.588,-4.588,-4.588,-4.588,-4.588,-4.588,-4.588,-4.588,-4.588,-4.6239,-4.658,-4.7033,-4.7121,-4.7207,-4.7309,-4.7309,-4.7309,-4.7309,-4.7309,-4.7309,-4.7309,-4.7309,-4.7309,-4.7309,-4.7309,-4.7085,-4.6741,-4.713,-4.6845,-4.6157,-4.698,-4.707,-4.6756,-4.7145,-4.7309,-4.7309,-4.7309,-4.7309,-4.7309,-3.0889,-3.0889,-3.0889,-3.0889,-3.0889,-3.0889,-3.0889,-3.0889,-3.0889,-3.0889,-3.0889,-3.0889,-3.0889,-3.0889,-3.0889,-3.0889,-3.0889,-3.0889,-3.0889,-3.0889,-3.0889,-3.0889,-3.1489,-3.2117,-3.2684,-3.3361,-3.3492,-3.3201,-3.4213,-3.4726,-3.4823,-3.4823,-3.4823,-3.4823,-3.4823,-3.4932,-3.5126,-3.5223,-3.532,-3.562,-3.592,-3.6015,-3.6015,-3.6275,-3.6358,-3.6358,-3.6358,-3.6358,-3.6458,-3.7048,-3.7977,-3.8969,-3.9521,-3.9697,-3.9697,-3.9697,-3.9697,-3.9697,-3.9697,-3.9697,-3.9697,-3.9697,-3.9697,-3.9981,-4.0844,-4.1032,-4.1319,-4.2404,-4.345,-4.4219,-4.4312,-4.5201,-4.588,-4.588,-4.588,-4.588,-4.588,-4.588,-4.588,-4.588,-4.588,-4.588,-4.588,-4.588,-4.588,-4.588,-4.6135,-4.6314,-4.6594,-4.6756,-4.7019,-4.7294,-4.7309,-4.7309,-4.7309,-4.7309,-4.7309,-4.7309,-4.7309,-4.7309,-4.7309,-4.7309,-4.7309,-4.7309,-4.7309,-4.7309,-4.7309,-4.7309,-4.7309,-4.7309,-4.7309,-4.7309,-4.7309,-4.7309,-4.7309,-4.7309,-3.0889,-3.0889,-3.0889,-3.0889,-3.0889,-3.0889,-3.0889,-3.0889,-3.0889,-3.0889,-3.0889,-3.0889,-3.0889,-3.0889,-3.0889,-3.0889,-3.0889,-3.0889,-3.0889,-3.0889,-3.0889,-3.0889,-3.1023,-3.0819,-3.0339,-3.1785,-3.2766,-3.3201,-3.34,-3.4017,-3.4823,-3.4823,-3.4823,-3.4823,-3.4823,-3.4835,-3.492,-3.5126,-3.5223,-3.532,-3.5812,-3.6015,-3.6015,-3.6275,-3.6358,-3.6358,-3.6358,-3.6358,-3.6508,-3.75,-3.8291,-3.8969,-3.9521,-3.9697,-3.9697,-3.9697,-3.9697,-3.9697,-3.9697,-3.9697,-3.9697,-3.9697,-3.9697,-3.9788,-3.9981,-4.0083,-4.0262,-4.1319,-4.239,-4.3355,-4.4125,-4.5201,-4.588,-4.588,-4.588,-4.588,-4.588,-4.588,-4.588,-4.588,-4.588,-4.588,-4.588,-4.588,-4.597,-4.6135,-4.621,-4.6314,-4.6594,-4.6756,-4.6931,-4.7019,-4.7207,-4.7309,-4.7309,-4.7309,-4.7309,-4.7309,-4.7309,-4.7309,-4.7309,-4.7309,-4.7309,-4.7309,-4.7309,-4.7309,-4.7309,-4.7309,-4.7309,-4.7309,-4.7309,-4.7309,-4.7309,-4.7309,-4.7309,-4.7309,-3.0889,-3.0889,-3.0889,-3.0889,-3.0889,-3.0889,-3.0889,-3.0889,-3.0889,-3.0889,-3.0889,-3.0889,-3.0889,-3.0889,-3.0889,-3.0889,-3.0889,-3.0889,-3.0889,-3.0889,-3.0889,-3.0889,-3.0889,-3.0566,-2.9883,-3.0628,-3.1233,-3.1666,-3.2689,-3.3511,-3.4017,-3.4519,-3.4823,-3.4823,-3.4823,-3.4823,-3.4823,-3.4932,-3.503,-3.503,-3.5416,-3.5716,-3.5812,-3.6098,-3.6275,-3.6358,-3.6358,-3.6533,-3.6885,-3.7726,-3.8391,-3.8969,-3.9521,-3.9697,-3.9697,-3.9697,-3.9697,-3.9697,-3.9697,-3.9697,-3.9697,-3.9697,-3.9697,-3.9697,-3.9697,-3.9697,-3.989,-4.0364,-4.1332,-4.2195,-4.2765,-4.3748,-4.462,-4.5095,-4.511,-4.5293,-4.579,-4.588,-4.588,-4.588,-4.588,-4.588,-4.588,-4.588,-4.597,-4.6046,-4.6046,-4.6135,-4.6403,-4.6491,-4.6653,-4.6756,-4.7033,-4.7121,-4.7121,-4.7207,-4.7309,-4.7309,-4.7309,-4.7309,-4.7309,-4.7309,-4.7309,-4.7309,-4.7309,-4.7309,-4.7309,-4.7309,-4.7309,-4.7309,-4.7309,-4.7309,-4.7309,-4.7309,-4.7309,-4.7309,-3.0889,-3.0889,-3.0889,-3.0889,-3.0889,-3.0889,-3.0889,-3.0889,-3.0889,-3.0889,-3.0889,-3.0889,-3.0889,-3.0889,-3.0889,-3.0889,-3.0889,-3.0889,-3.0889,-3.0889,-3.0889,-3.0889,-3.0889,-3.0674,-3.0205,-2.9785,-2.9719,-3.0046,-3.1812,-3.2789,-3.3201,-3.4115,-3.4628,-3.4823,-3.4823,-3.4823,-3.4823,-3.4823,-3.4823,-3.4823,-3.5126,-3.532,-3.5524,-3.5824,-3.6098,-3.637,-3.637,-3.6659,-3.7149,-3.7789,-3.8329,-3.8843,-3.9484,-3.9697,-3.9697,-3.9697,-3.9697,-3.9697,-3.9697,-3.9697,-3.9697,-3.9697,-3.9697,-3.9697,-3.9697,-3.9697,-3.9697,-3.9697,-4.0453,-4.1219,-4.1219,-4.211,-4.3177,-4.4125,-4.4312,-4.4698,-4.5776,-4.588,-4.588,-4.588,-4.588,-4.588,-4.588,-4.588,-4.588,-4.588,-4.588,-4.597,-4.6135,-4.621,-4.6314,-4.6506,-4.6756,-4.6844,-4.6916,-4.7121,-4.7207,-4.7309,-4.7309,-4.7309,-4.7309,-4.7309,-4.7309,-4.7309,-4.7309,-4.7309,-4.7309,-4.7309,-4.7309,-4.7309,-4.7309,-4.7309,-4.7309,-4.7309,-4.7309,-4.7309,-3.0889,-3.0889,-3.0889,-3.0889,-3.0889,-3.0889,-3.0889,-3.0889,-3.0889,-3.0889,-3.0889,-3.0889,-3.0889,-3.0889,-3.0889,-3.0889,-3.0889,-3.0889,-3.0889,-3.0889,-3.0889,-3.0889,-3.0889,-3.0674,-3.0205,-2.9785,-2.9868,-3.0522,-3.0423,-3.1359,-3.3201,-3.33,-3.3918,-3.4823,-3.4823,-3.4823,-3.4823,-3.4823,-3.4823,-3.4823,-3.5126,-3.5223,-3.532,-3.5524,-3.5812,-3.6015,-3.6015,-3.6243,-3.6634,-3.7663,-3.8052,-3.8304,-3.9371,-3.9697,-3.9697,-3.9697,-3.9697,-3.9697,-3.9697,-3.9697,-3.9697,-3.9697,-3.9697,-3.9697,-3.9697,-3.9697,-3.9697,-3.9697,-4.0453,-4.1219,-4.1219,-4.211,-4.3177,-4.4125,-4.4312,-4.4698,-4.5776,-4.588,-4.588,-4.588,-4.588,-4.588,-4.588,-4.588,-4.588,-4.588,-4.588,-4.588,-4.597,-4.6135,-4.621,-4.621,-4.6506,-4.6756,-4.6916,-4.6931,-4.7106,-4.7309,-4.7309,-4.7309,-4.7309,-4.7309,-4.7309,-4.7309,-4.7309,-4.7309,-4.7309,-4.7309,-4.7309,-4.7309,-4.7309,-4.7309,-4.7309,-4.7309,-4.7309,-4.7309,-3.0889,-3.0889,-3.0889,-3.0889,-3.0889,-3.0889,-3.0889,-3.0889,-3.0889,-3.0889,-3.0889,-3.0889,-3.0889,-3.0889,-3.0889,-3.0889,-3.0889,-3.0889,-3.0889,-3.0889,-3.0889,-3.0889,-3.0889,-3.0791,-3.0596,-2.9922,-2.9685,-3.0038,-2.9956,-3.0432,-3.1359,-3.1982,-3.2901,-3.3918,-3.3918,-3.4225,-3.4823,-3.4823,-3.4823,-3.4823,-3.492,-3.503,-3.5223,-3.532,-3.5512,-3.5861,-3.6338,-3.663,-3.6985,-3.8115,-3.8492,-3.863,-3.9446,-3.9697,-3.9697,-3.9697,-3.9697,-3.9697,-3.9697,-3.9697,-3.9697,-3.9697,-3.9697,-3.9697,-3.9697,-3.9697,-3.9697,-3.9697,-4.0083,-4.0364,-4.0364,-4.0756,-4.1432,-4.2377,-4.3054,-4.3843,-4.4897,-4.5489,-4.588,-4.588,-4.588,-4.588,-4.588,-4.588,-4.588,-4.588,-4.588,-4.588,-4.588,-4.597,-4.6046,-4.6046,-4.6225,-4.6403,-4.6476,-4.6741,-4.6931,-4.7106,-4.7207,-4.7309,-4.7309,-4.7309,-4.7309,-4.7309,-4.7309,-4.7309,-4.7309,-4.7309,-4.7309,-4.7309,-4.7309,-4.7309,-4.7309,-4.7309,-4.7309,-4.7309]}]]